[[{"header":{"parameterUnit":"m.s-1","parameterCategory":1,"la1":30.6,"la2":29.2853,"lo1":-89.7004,"lo2":-87.6739,"dy":0.0162,"dx":0.0183,"nx":112,"ny":82,"refTime":"2024-04-02T00:00:00:Z","depth":0,"parameterNumber":2,"parameterNumberName":"U-component_of_WINDS"},"data":[0.0,0.0,0.0,0.0,0.0,0.0,0.0,0.0,0.0,0.0,0.0,0.0,0.0,0.0,0.0,0.0,0.0,0.0,0.0,0.0,0.0,0.0,0.0,0.0,0.0,0.0,0.0,0.0,0.0,0.0,0.0,0.0,0.0,0.0,0.0,0.0,0.0,0.0,0.0,0.0,0.0,0.0,0.0,0.0,0.0,0.0,0.0,0.0,0.0,0.0,0.0,0.0,0.0,0.0,0.0,0.0,0.0,0.0,0.0,0.0,0.0,0.0,0.0,0.0,0.0,0.0,0.0,0.0,0.0,0.0,0.0,0.0,0.0,0.0,0.0,0.0,0.0,0.0,0.0,0.0,0.0,0.0,0.0,0.0,0.0,0.0,0.0,0.0,0.0,0.0,0.0,2.406,2.3786,2.358,2.3547,2.3417,2.3318,2.3342,0.0,0.0,0.0,0.0,0.0,0.0,0.0,0.0,0.0,0.0,0.0,0.0,0.0,0.0,0.0,0.0,0.0,0.0,0.0,0.0,0.0,0.0,0.0,0.0,0.0,0.0,0.0,0.0,0.0,0.0,0.0,0.0,0.0,0.0,0.0,0.0,0.0,0.0,0.0,0.0,0.0,0.0,0.0,0.0,0.0,0.0,0.0,0.0,0.0,0.0,0.0,0.0,0.0,0.0,0.0,0.0,0.0,0.0,0.0,0.0,0.0,0.0,0.0,0.0,0.0,0.0,0.0,0.0,0.0,0.0,0.0,0.0,0.0,0.0,0.0,0.0,0.0,0.0,0.0,0.0,0.0,0.0,0.0,0.0,0.0,0.0,0.0,0.0,0.0,0.0,0.0,0.0,0.0,0.0,0.0,0.0,0.0,0.0,0.0,0.0,0.0,0.0,0.0,0.0,2.4333,2.4947,2.4154,2.3858,2.4523,2.3898,2.3477,2.3455,0.0,0.0,0.0,0.0,0.0,0.0,0.0,0.0,0.0,0.0,0.0,0.0,0.0,0.0,0.0,0.0,0.0,0.0,0.0,0.0,0.0,0.0,0.0,0.0,0.0,0.0,0.0,0.0,0.0,0.0,0.0,0.0,0.0,0.0,0.0,0.0,0.0,0.0,0.0,0.0,0.0,0.0,0.0,0.0,0.0,0.0,0.0,0.0,0.0,0.0,0.0,0.0,0.0,0.0,0.0,0.0,0.0,0.0,0.0,0.0,0.0,0.0,0.0,0.0,0.0,0.0,0.0,0.0,0.0,0.0,0.0,0.0,0.0,0.0,0.0,0.0,0.0,0.0,0.0,0.0,0.0,0.0,0.0,0.0,0.0,0.0,0.0,0.0,0.0,0.0,0.0,0.0,0.0,0.0,0.0,0.0,0.0,0.0,0.0,0.0,0.0,0.0,0.0,2.4539,2.5078,2.5428,2.5423,2.5322,2.5126,2.4693,2.4187,2.3646,2.3486,0.0,0.0,0.0,0.0,0.0,0.0,0.0,0.0,0.0,0.0,0.0,0.0,0.0,0.0,0.0,0.0,0.0,0.0,0.0,0.0,0.0,0.0,0.0,0.0,0.0,0.0,0.0,0.0,0.0,0.0,0.0,0.0,0.0,0.0,0.0,0.0,0.0,0.0,0.0,0.0,0.0,0.0,0.0,0.0,0.0,0.0,0.0,0.0,0.0,0.0,0.0,0.0,0.0,0.0,0.0,0.0,0.0,0.0,0.0,0.0,0.0,0.0,0.0,0.0,0.0,0.0,0.0,0.0,0.0,0.0,0.0,0.0,0.0,0.0,0.0,0.0,0.0,0.0,0.0,0.0,0.0,0.0,0.0,0.0,0.0,0.0,0.0,0.0,0.0,0.0,0.0,0.0,0.0,0.0,0.0,0.0,0.0,0.0,0.0,0.0,0.0,0.0,2.5096,2.5801,2.621,2.6656,2.6673,2.6094,2.5527,2.4866,2.4103,2.3701,0.0,0.0,0.0,0.0,0.0,0.0,0.0,0.0,0.0,0.0,0.0,0.0,0.0,0.0,0.0,0.0,0.0,0.0,0.0,0.0,0.0,0.0,0.0,0.0,0.0,0.0,0.0,0.0,0.0,0.0,0.0,0.0,0.0,0.0,0.0,0.0,0.0,0.0,0.0,0.0,0.0,0.0,0.0,0.0,0.0,0.0,0.0,0.0,0.0,0.0,0.0,0.0,0.0,0.0,0.0,0.0,0.0,0.0,0.0,0.0,0.0,0.0,0.0,0.0,0.0,0.0,0.0,0.0,0.0,0.0,0.0,0.0,0.0,0.0,0.0,0.0,0.0,0.0,0.0,0.0,0.0,0.0,0.0,0.0,0.0,0.0,0.0,0.0,0.0,0.0,0.0,0.0,0.0,0.0,0.0,0.0,0.0,0.0,0.0,0.0,0.0,0.0,2.5616,2.6265,2.777,2.7325,2.7157,2.7863,2.6232,2.5166,2.509,2.4096,0.0,0.0,0.0,0.0,0.0,0.0,0.0,0.0,0.0,0.0,0.0,0.0,0.0,0.0,0.0,0.0,0.0,0.0,0.0,0.0,0.0,0.0,0.0,0.0,0.0,0.0,0.0,0.0,0.0,0.0,0.0,0.0,0.0,0.0,0.0,0.0,0.0,0.0,0.0,0.0,0.0,0.0,0.0,0.0,0.0,0.0,0.0,0.0,0.0,0.0,0.0,0.0,0.0,0.0,0.0,0.0,0.0,0.0,0.0,0.0,0.0,0.0,0.0,0.0,0.0,0.0,0.0,0.0,0.0,0.0,0.0,0.0,0.0,0.0,0.0,0.0,0.0,0.0,0.0,0.0,0.0,0.0,0.0,0.0,0.0,0.0,0.0,0.0,0.0,0.0,0.0,0.0,0.0,0.0,0.0,0.0,0.0,0.0,0.0,0.0,0.0,0.0,2.6544,2.7436,0.0,2.8329,2.8366,2.8104,2.6886,2.5876,2.5239,0.0,0.0,0.0,0.0,0.0,0.0,0.0,0.0,0.0,0.0,0.0,0.0,0.0,0.0,0.0,0.0,0.0,0.0,0.0,0.0,0.0,0.0,0.0,0.0,0.0,0.0,0.0,0.0,0.0,0.0,0.0,0.0,0.0,0.0,0.0,0.0,0.0,0.0,0.0,0.0,0.0,0.0,0.0,0.0,0.0,0.0,0.0,0.0,0.0,0.0,0.0,0.0,0.0,0.0,0.0,0.0,0.0,0.0,0.0,0.0,0.0,0.0,0.0,0.0,0.0,0.0,0.0,0.0,0.0,0.0,0.0,0.0,0.0,0.0,0.0,0.0,0.0,0.0,0.0,0.0,0.0,0.0,0.0,0.0,0.0,0.0,0.0,0.0,0.0,0.0,0.0,0.0,0.0,0.0,0.0,0.0,0.0,0.0,0.0,0.0,0.0,0.0,2.6339,2.7379,2.8197,0.0,2.9054,2.9165,2.857,2.7631,2.6694,2.5724,0.0,0.0,0.0,0.0,0.0,0.0,0.0,0.0,0.0,0.0,0.0,0.0,0.0,0.0,0.0,0.0,0.0,0.0,0.0,0.0,0.0,0.0,0.0,0.0,0.0,0.0,0.0,0.0,0.0,0.0,0.0,0.0,0.0,0.0,0.0,0.0,0.0,0.0,0.0,0.0,0.0,0.0,0.0,0.0,0.0,0.0,0.0,0.0,0.0,0.0,0.0,0.0,0.0,0.0,0.0,0.0,0.0,0.0,0.0,0.0,0.0,0.0,0.0,0.0,0.0,0.0,0.0,0.0,0.0,0.0,0.0,0.0,0.0,0.0,0.0,0.0,0.0,0.0,0.0,0.0,0.0,0.0,0.0,0.0,0.0,0.0,0.0,0.0,0.0,0.0,0.0,0.0,0.0,0.0,0.0,0.0,0.0,0.0,0.0,0.0,0.0,0.0,2.7881,2.8104,2.8459,2.9314,2.9407,2.9407,2.9407,2.8482,2.7564,0.0,0.0,0.0,0.0,0.0,0.0,0.0,0.0,0.0,0.0,0.0,0.0,0.0,0.0,0.0,0.0,0.0,0.0,0.0,0.0,0.0,0.0,0.0,0.0,0.0,0.0,0.0,0.0,0.0,0.0,0.0,0.0,0.0,0.0,0.0,0.0,0.0,0.0,0.0,0.0,0.0,0.0,0.0,0.0,0.0,0.0,0.0,0.0,0.0,0.0,0.0,0.0,0.0,0.0,0.0,0.0,0.0,0.0,0.0,0.0,0.0,0.0,0.0,0.0,0.0,0.0,0.0,0.0,0.0,0.0,0.0,0.0,0.0,0.0,0.0,0.0,0.0,0.0,0.0,0.0,0.0,0.0,0.0,0.0,0.0,0.0,0.0,0.0,0.0,0.0,0.0,0.0,0.0,0.0,0.0,0.0,0.0,0.0,0.0,0.0,0.0,0.0,0.0,2.803,2.8645,2.9128,2.937,2.9407,2.9407,2.9407,2.8567,2.7911,2.7564,0.0,0.0,0.0,0.0,0.0,0.0,0.0,0.0,0.0,0.0,0.0,0.0,0.0,0.0,0.0,0.0,0.0,0.0,0.0,0.0,0.0,0.0,0.0,0.0,0.0,0.0,0.0,0.0,0.0,0.0,0.0,0.0,0.0,0.0,0.0,0.0,0.0,0.0,0.0,0.0,0.0,0.0,0.0,0.0,0.0,0.0,0.0,0.0,0.0,0.0,0.0,0.0,0.0,0.0,0.0,0.0,0.0,0.0,0.0,0.0,0.0,0.0,0.0,0.0,0.0,0.0,0.0,0.0,0.0,0.0,0.0,0.0,0.0,0.0,0.0,0.0,0.0,0.0,0.0,0.0,0.0,0.0,0.0,0.0,0.0,0.0,0.0,0.0,0.0,0.0,0.0,0.0,0.0,0.0,0.0,0.0,0.0,0.0,0.0,0.0,0.0,0.0,2.857,2.9091,2.9407,2.9407,2.9407,2.9407,2.9407,2.8924,2.8456,2.8019,0.0,0.0,0.0,0.0,0.0,0.0,0.0,0.0,0.0,0.0,0.0,0.0,0.0,0.0,0.0,0.0,0.0,0.0,0.0,0.0,0.0,0.0,0.0,0.0,0.0,0.0,0.0,0.0,0.0,0.0,0.0,0.0,0.0,0.0,0.0,0.0,0.0,0.0,0.0,0.0,0.0,0.0,0.0,0.0,0.0,0.0,0.0,0.0,0.0,0.0,0.0,0.0,0.0,0.0,0.0,0.0,0.0,0.0,0.0,0.0,0.0,0.0,0.0,0.0,0.0,0.0,0.0,0.0,0.0,0.0,0.0,0.0,0.0,0.0,0.0,0.0,0.0,0.0,0.0,0.0,0.0,0.0,0.0,0.0,0.0,0.0,0.0,0.0,0.0,0.0,0.0,0.0,0.0,0.0,0.0,0.0,0.0,0.0,0.0,0.0,0.0,0.0,2.9314,2.9407,2.9407,2.9407,2.9407,2.9407,2.9407,2.9407,2.9072,2.8253,0.0,0.0,0.0,0.0,0.0,0.0,0.0,0.0,0.0,0.0,0.0,0.0,0.0,0.0,0.0,0.0,0.0,0.0,0.0,0.0,0.0,0.0,0.0,0.0,0.0,0.0,0.0,0.0,0.0,0.0,0.0,0.0,0.0,0.0,0.0,0.0,0.0,0.0,0.0,0.0,0.0,0.0,0.0,0.0,0.0,0.0,0.0,0.0,0.0,0.0,0.0,0.0,0.0,0.0,0.0,0.0,0.0,0.0,0.0,0.0,2.553,0.0,0.0,0.0,0.0,0.0,0.0,0.0,0.0,0.0,0.0,0.0,0.0,0.0,0.0,0.0,0.0,0.0,0.0,0.0,0.0,0.0,0.0,0.0,0.0,0.0,0.0,0.0,0.0,0.0,0.0,0.0,0.0,0.0,0.0,0.0,0.0,0.0,0.0,0.0,0.0,0.0,2.9388,2.9407,2.9407,2.9407,2.9407,2.9407,2.9407,2.9407,2.9332,2.9128,0.0,0.0,0.0,0.0,0.0,0.0,0.0,0.0,0.0,0.0,0.0,0.0,0.0,0.0,0.0,0.0,0.0,0.0,0.0,0.0,0.0,0.0,0.0,0.0,0.0,0.0,0.0,0.0,0.0,0.0,0.0,0.0,0.0,0.0,0.0,0.0,0.0,0.0,0.0,0.0,0.0,0.0,0.0,0.0,0.0,0.0,0.0,0.0,0.0,0.0,0.0,0.0,0.0,0.0,0.0,0.0,0.0,0.0,0.0,0.0,0.0,2.6132,0.0,0.0,0.0,0.0,0.0,0.0,0.0,0.0,0.0,0.0,0.0,0.0,0.0,0.0,0.0,0.0,0.0,0.0,0.0,0.0,0.0,0.0,0.0,0.0,0.0,0.0,0.0,0.0,0.0,0.0,0.0,0.0,0.0,0.0,0.0,0.0,0.0,0.0,0.0,0.0,2.9407,2.9407,2.9407,2.9407,2.9407,2.9407,2.9407,2.9407,2.9407,2.9407,2.9328,0.0,0.0,0.0,0.0,0.0,0.0,0.0,0.0,0.0,0.0,0.0,0.0,0.0,0.0,0.0,0.0,0.0,0.0,0.0,0.0,0.0,0.0,0.0,0.0,0.0,0.0,0.0,0.0,0.0,0.0,0.0,0.0,0.0,0.0,0.0,0.0,0.0,0.0,0.0,0.0,0.0,0.0,0.0,0.0,0.0,0.0,0.0,0.0,0.0,0.0,0.0,0.0,0.0,2.8371,2.8517,2.8517,2.8517,2.8617,2.8764,2.8471,2.8088,2.7644,0.0,0.0,0.0,0.0,0.0,0.0,0.0,0.0,0.0,0.0,0.0,0.0,0.0,0.0,0.0,0.0,0.0,0.0,0.0,0.0,0.0,0.0,0.0,0.0,0.0,2.8798,2.861,0.0,0.0,0.0,0.0,0.0,0.0,0.0,0.0,0.0,0.0,0.0,0.0,2.9834,2.9834,2.9834,2.9834,2.9834,2.9834,2.9834,2.9834,2.9834,2.9834,2.99,3.018,0.0,0.0,0.0,0.0,0.0,0.0,0.0,0.0,0.0,0.0,0.0,0.0,0.0,0.0,0.0,0.0,0.0,0.0,0.0,0.0,0.0,0.0,0.0,0.0,0.0,0.0,0.0,0.0,0.0,0.0,0.0,0.0,2.6774,2.6774,0.0,0.0,0.0,0.0,0.0,0.0,0.0,0.0,0.0,0.0,0.0,0.0,0.0,0.0,2.7644,2.9267,3.0004,2.9882,3.1444,3.2193,3.2193,3.2193,3.2225,3.2237,3.2193,0.0,2.7849,2.7838,0.0,0.0,0.0,0.0,0.0,0.0,0.0,0.0,0.0,0.0,0.0,0.0,0.0,0.0,0.0,0.0,0.0,0.0,0.0,0.0,0.0,0.0,3.1654,3.1599,3.1559,3.15,0.0,3.0615,3.0355,3.1151,0.0,0.0,0.0,0.0,0.0,0.0,0.0,0.0,3.1489,3.1489,3.1489,3.1489,3.1489,3.1489,3.1489,3.1489,3.1489,3.1489,3.1598,3.1717,3.1808,3.192,0.0,0.0,0.0,0.0,0.0,0.0,0.0,0.0,0.0,0.0,0.0,0.0,0.0,0.0,0.0,0.0,0.0,0.0,0.0,0.0,0.0,0.0,0.0,0.0,0.0,0.0,0.0,0.0,0.0,2.7332,2.7332,2.7332,2.7659,2.8082,0.0,0.0,0.0,0.0,0.0,0.0,0.0,0.0,0.0,3.0044,3.0467,3.0674,3.0586,3.1385,3.177,3.1732,3.2519,3.2891,3.2891,3.2891,3.2891,3.2891,3.2891,3.2064,3.066,3.0221,2.974,2.9308,0.0,0.0,0.0,0.0,0.0,3.0085,3.0095,3.0393,0.0,0.0,0.0,0.0,0.0,0.0,0.0,0.0,0.0,0.0,0.0,0.0,0.0,3.2146,3.2087,3.2158,3.2426,3.2191,3.1912,0.0,3.1782,3.1782,3.1782,0.0,0.0,0.0,0.0,0.0,3.1782,3.1782,3.1782,3.1782,3.1782,3.1782,3.1782,3.1782,3.1827,3.1912,3.2,3.2291,3.2821,3.2525,3.2562,0.0,0.0,0.0,0.0,0.0,0.0,0.0,0.0,0.0,0.0,0.0,0.0,0.0,0.0,0.0,0.0,0.0,0.0,0.0,0.0,0.0,0.0,0.0,0.0,0.0,0.0,0.0,0.0,2.8082,2.8198,2.8198,2.839,2.8775,0.0,0.0,0.0,0.0,0.0,0.0,3.1044,3.166,3.2006,3.2006,3.2583,3.2891,3.2891,3.3122,3.3237,3.3237,3.3468,3.3564,3.3564,3.3564,3.3564,3.3564,3.3564,3.3449,3.316,3.2351,3.165,3.1072,3.1124,3.1135,3.1146,3.1165,3.1581,3.2122,3.2134,3.2559,3.307,3.2921,0.0,3.2781,3.2752,0.0,0.0,0.0,0.0,3.2893,3.2924,3.3061,3.3149,3.294,3.2845,3.2934,3.3318,3.3352,3.312,0.0,3.2395,3.2395,3.2395,0.0,0.0,0.0,0.0,3.2395,3.2395,3.2395,3.2395,3.2395,3.2395,3.2395,3.2395,3.2395,3.2482,3.2614,3.2681,3.3067,3.3808,3.3318,3.3335,3.3998,0.0,0.0,0.0,0.0,0.0,0.0,0.0,0.0,0.0,0.0,0.0,0.0,0.0,0.0,0.0,0.0,0.0,0.0,0.0,0.0,0.0,0.0,0.0,0.0,0.0,0.0,0.0,0.0,0.0,2.9044,2.9775,0.0,0.0,0.0,0.0,3.1564,3.1641,3.1968,3.2737,3.2814,3.2833,3.2833,3.2872,3.2891,3.2891,3.3718,3.4122,3.4141,3.4968,3.5372,3.5372,3.5372,3.5372,3.5372,3.5372,3.4911,3.4077,3.3275,3.2902,3.2875,3.286,3.2871,3.2883,3.2943,3.2993,3.3042,3.3044,3.3063,3.3102,3.3102,3.2956,3.2795,3.2814,3.2651,0.0,0.0,3.3336,3.3944,3.4077,3.4738,3.5282,3.5089,3.4904,3.4717,3.4551,3.4307,3.4123,0.0,3.4067,3.4067,3.4067,0.0,3.4067,3.4067,3.4067,3.4067,3.4067,3.4067,3.4067,3.4067,3.4067,3.4067,3.4067,3.4067,3.4134,3.4274,3.4386,3.4553,3.4732,3.4756,3.4794,3.4832,3.4055,0.0,0.0,0.0,0.0,0.0,0.0,0.0,0.0,0.0,0.0,0.0,0.0,0.0,0.0,0.0,0.0,0.0,0.0,0.0,0.0,0.0,0.0,0.0,0.0,0.0,0.0,0.0,0.0,3.0717,3.1044,0.0,0.0,3.2006,3.2141,3.2449,3.2468,3.2602,3.2872,3.343,3.3737,3.3737,3.4276,3.4584,3.4584,3.4891,3.5045,3.5045,3.5353,3.5493,3.5493,3.5493,3.5493,3.5493,3.5493,3.5334,3.5007,3.4719,3.3974,3.2995,3.3037,3.3059,3.3062,3.3091,3.345,3.3933,3.3944,3.4292,3.4775,3.4775,3.4723,3.467,3.467,3.4615,3.4558,3.4646,3.4827,3.5027,3.5083,3.5321,3.5502,3.5315,3.5138,3.4982,3.4772,3.4586,3.4473,3.4473,3.4404,3.4316,3.4316,3.4316,3.4316,3.4316,3.4245,3.4221,3.4316,3.4245,3.4221,3.4316,3.4245,3.4197,3.4197,3.4269,3.4404,3.4517,3.4645,3.4769,3.485,3.4889,3.4908,3.4908,3.4624,3.4226,0.0,0.0,0.0,0.0,0.0,0.0,0.0,0.0,0.0,0.0,0.0,0.0,0.0,0.0,0.0,0.0,0.0,0.0,0.0,0.0,0.0,0.0,0.0,0.0,0.0,0.0,3.1468,3.2045,3.2102,3.2314,3.2852,3.2891,3.3026,3.3314,3.3333,3.3468,3.3757,3.4314,3.4641,3.4641,3.5199,3.5493,3.5493,3.5493,3.5493,3.5493,3.5493,3.5493,3.5493,3.5493,3.5493,3.5493,3.5493,3.5493,3.5507,3.5489,3.4853,3.3886,3.3928,3.395,3.3982,3.3982,3.435,3.4833,3.4833,3.522,3.5704,3.5704,3.5704,3.5704,3.5704,3.5704,3.5704,3.5704,3.5673,3.5631,3.5612,3.5608,3.5572,3.5435,3.5254,3.5088,3.4981,3.4812,3.4689,3.4732,3.4586,3.4476,3.452,3.4524,3.452,3.4458,3.4435,3.439,3.4386,3.4363,3.4363,3.4473,3.4404,3.434,3.434,3.4363,3.4473,3.4666,3.4727,3.479,3.4908,3.4908,3.4908,3.4908,3.4908,3.4643,3.4093,0.0,0.0,0.0,0.0,0.0,0.0,0.0,0.0,0.0,0.0,0.0,0.0,0.0,0.0,0.0,0.0,0.0,0.0,0.0,0.0,0.0,0.0,0.0,3.1852,3.241,3.291,3.2949,3.2949,3.2949,3.2987,3.2987,3.3333,3.418,3.4237,3.4622,3.5488,3.5545,3.5565,3.5584,3.5584,3.5584,3.5584,3.5584,3.5584,3.5584,3.5584,3.5584,3.5584,3.5584,3.5584,3.5584,3.5584,3.5584,3.5584,3.5586,3.5624,3.5681,3.5608,3.5643,3.5704,3.5704,3.5704,3.5704,3.5704,3.5704,3.5704,3.5704,3.5704,3.5704,3.5704,3.5704,3.5704,3.5704,3.5704,3.5684,3.5612,3.5601,3.5601,3.5604,3.5345,3.5155,3.5266,3.5051,3.4851,3.498,3.4793,3.4668,3.4792,3.4812,3.4773,3.4632,3.4733,0.0,3.445,3.4517,3.4602,3.4623,3.4602,3.4602,3.4602,3.4473,3.4517,3.4788,3.4687,3.4689,3.4889,3.4908,3.4908,3.4908,3.4908,3.4908,3.4908,0.0,0.0,0.0,0.0,0.0,0.0,0.0,0.0,0.0,0.0,0.0,0.0,0.0,0.0,0.0,0.0,0.0,0.0,0.0,0.0,0.0,0.0,3.3564,3.2679,3.2756,3.3122,3.3776,3.3833,3.4083,3.4718,3.4795,3.4891,3.5122,3.5141,3.5507,3.6334,3.6372,3.6661,3.7296,3.7315,3.7315,3.7315,3.7315,3.7315,3.7315,3.7315,3.7315,3.7315,3.7315,3.7315,3.7315,3.7315,3.7315,3.7315,3.7357,3.7398,3.7302,3.6072,3.5643,3.5704,3.5704,3.5704,3.5704,3.5704,3.5704,3.5704,3.5704,3.5704,3.5704,3.5704,3.5704,3.5704,3.5704,3.5704,3.5704,3.5673,3.5673,3.5673,3.5662,3.5528,3.5402,3.543,3.5296,3.5168,3.5219,3.5171,3.5086,3.5013,3.5013,3.4978,3.4832,3.4793,0.0,3.4708,3.4645,3.4645,3.4728,3.4561,3.4495,3.4583,3.458,3.4623,0.0,3.481,3.4831,3.4908,3.4908,3.4908,3.4908,3.4908,3.4908,0.0,0.0,0.0,0.0,0.0,0.0,0.0,0.0,0.0,0.0,0.0,0.0,0.0,0.0,0.0,0.0,0.0,0.0,0.0,0.0,0.0,0.0,3.4287,3.4631,3.4064,3.4,3.4186,3.4731,3.4788,3.5005,3.5523,3.5902,3.6122,3.61,3.6408,3.6787,3.7219,3.7238,3.7488,3.7988,3.8007,3.8007,3.8007,3.8007,3.8007,3.8007,3.8007,3.8007,3.8007,3.8007,3.8007,0.0,3.8007,3.8022,3.8036,3.8078,3.8119,0.0,0.0,0.0,0.0,0.0,3.6748,3.6748,3.6748,3.6748,3.6748,3.6748,3.6748,3.6748,3.6748,3.6748,3.6748,3.6748,3.6748,3.6748,3.6748,3.6748,3.6748,3.6748,3.6639,3.6556,3.6626,3.6529,3.644,3.6502,0.0,0.0,3.6328,3.5718,3.5228,3.5078,3.5032,3.4981,3.4926,3.4792,3.4771,3.4908,3.4751,3.4628,3.473,3.4708,0.0,0.0,0.0,3.487,3.4908,3.4908,0.0,0.0,0.0,3.4908,3.4908,0.0,0.0,0.0,3.3994,3.3689,0.0,0.0,0.0,0.0,0.0,0.0,0.0,0.0,0.0,0.0,0.0,0.0,0.0,0.0,0.0,0.0,3.5165,3.5679,3.5538,3.5515,3.5528,3.5596,3.5695,3.5786,3.5849,3.6642,3.7113,3.7072,3.7719,3.8136,3.818,0.0,0.0,0.0,0.0,3.8291,3.8306,3.8291,3.8277,3.8277,3.8277,3.8277,3.8277,3.8277,3.8277,3.8277,3.8277,3.8325,3.8387,3.8389,3.8434,3.8472,3.8279,3.8194,3.8199,3.8199,3.8199,0.0,3.8199,0.0,0.0,3.8199,3.8199,3.8199,3.8199,3.8199,3.8199,3.8199,3.8199,3.8199,3.8199,3.8199,3.8199,3.8199,3.8119,3.8061,3.8175,3.8119,3.8061,3.8175,3.8199,3.8163,3.8034,3.6787,3.5726,3.5571,3.5565,3.5503,3.5367,3.519,3.5097,3.5223,0.0,0.0,3.4908,3.483,3.4849,3.4908,3.4849,3.483,3.4908,3.4908,3.4908,3.4908,3.4908,3.4908,3.4908,3.4908,3.4908,3.4908,3.471,3.473,0.0,0.0,0.0,0.0,0.0,0.0,0.0,0.0,0.0,0.0,0.0,0.0,0.0,0.0,0.0,3.5588,3.5708,3.5752,3.5667,3.5666,3.566,3.5599,3.627,3.6742,3.6759,3.7544,3.8041,3.8024,3.816,3.8558,3.9248,3.9189,0.0,4.0227,4.01,4.0082,4.0172,4.0082,4.0008,4.0008,0.0,0.0,4.0008,4.0008,4.0008,4.0008,4.0057,4.0106,4.0106,4.0158,4.025,4.0172,3.8748,3.8206,3.8199,3.8199,3.8199,3.8199,3.8199,3.8199,3.8199,3.8199,3.8199,3.8199,3.8199,3.8199,0.0,3.8199,3.8199,3.8199,3.8199,3.8199,3.8199,3.8199,3.8187,3.8175,3.8187,3.8187,3.8175,3.8187,3.8199,3.8187,3.8175,3.7791,3.7435,3.7194,3.7161,3.7108,3.6977,3.6368,3.597,3.597,3.5285,3.483,3.4908,3.483,3.4849,3.4908,3.4889,3.4889,3.4908,3.4908,3.4908,3.4908,3.4908,3.4908,3.4908,3.4908,3.4908,3.4908,3.487,3.4851,0.0,0.0,0.0,0.0,0.0,0.0,0.0,0.0,0.0,0.0,0.0,3.5185,0.0,0.0,3.5852,3.5854,3.5857,3.5827,3.5755,3.5805,3.5963,3.6312,3.6752,3.7242,3.7745,3.8564,3.9039,3.9006,3.9388,3.9821,4.0178,4.014,4.0315,4.0791,4.0707,4.0692,4.0749,4.0649,4.0588,4.0588,4.0534,4.0489,4.0489,4.0489,4.0523,4.0539,4.0592,4.0622,4.0665,4.072,4.0778,4.0713,3.9843,3.9495,3.9495,3.9495,3.9495,3.9495,3.9495,3.9495,3.9495,3.9495,3.9495,3.9495,3.9495,3.9495,3.9495,3.9495,3.9495,3.9495,3.9495,3.9495,3.9495,3.9495,3.9495,3.9495,3.9495,3.9495,3.9495,3.9495,3.9495,3.9482,3.9361,3.9287,3.8941,3.8035,3.7792,3.7725,3.7792,3.7276,3.6956,3.7097,3.661,3.6137,3.5789,3.5318,3.5037,3.5,3.5,3.4963,3.4889,3.4908,3.4908,3.4908,3.4908,3.4908,3.4908,3.4908,3.4908,3.4908,3.4908,3.4908,0.0,0.0,0.0,0.0,0.0,0.0,0.0,0.0,3.4842,3.4784,3.5356,3.5869,3.5762,3.5846,3.5895,3.5853,3.588,3.5895,3.5855,3.6087,3.6547,3.7294,3.7386,3.7776,3.8746,3.9566,4.002,3.9984,4.0622,4.0968,4.0871,4.0846,4.0924,4.1116,4.1062,4.115,4.1343,4.1264,4.1149,4.0974,4.0861,4.0714,4.0564,4.0564,4.0569,4.0607,4.0622,4.0665,4.0713,4.0778,4.079,4.079,4.079,4.079,4.079,4.079,4.079,4.079,4.079,4.079,4.079,4.079,4.079,4.079,4.079,4.079,4.079,4.079,4.079,4.079,4.079,4.079,4.079,4.079,4.079,4.079,4.079,4.079,4.079,4.079,4.079,4.0746,4.0593,4.0559,4.0111,3.8801,3.843,3.8351,3.8575,3.8201,3.7972,3.8195,3.7963,3.7552,3.6884,3.6194,3.5729,3.5632,3.5446,3.53,3.5211,3.5003,3.4908,3.4908,3.4908,3.4908,3.4908,3.4908,3.4984,3.5154,3.5154,3.5059,3.3144,3.3184,3.3476,3.4336,3.4551,3.4746,0.0,0.0,3.5742,3.5665,3.5781,3.5908,3.5889,3.5943,3.5996,3.5976,3.5975,3.5987,3.5982,3.6653,3.7477,3.8333,3.843,3.8762,3.9585,4.0444,4.0952,4.0948,4.1026,4.1081,4.1078,4.1011,4.1356,4.2186,4.205,4.238,4.3286,4.3169,4.2714,4.1927,4.1917,4.1526,4.0769,4.0769,4.0746,4.068,4.0679,4.0733,4.079,4.079,4.079,4.079,4.079,4.079,4.079,4.079,4.079,4.079,4.079,4.079,4.079,4.079,4.079,4.079,4.079,4.079,4.079,4.079,4.079,4.079,4.079,4.079,4.079,4.079,4.079,4.079,4.079,4.079,4.079,4.079,4.079,4.079,4.0778,4.0778,4.0596,4.0134,4.003,4.003,4.0063,3.9397,3.8939,3.8972,3.8262,3.7763,3.7667,3.759,3.7517,3.7501,3.6716,3.6249,3.6231,3.5362,3.4908,3.4908,3.4908,3.4908,3.4908,3.4908,3.5306,3.6045,3.6045,3.5628,3.416,3.416,0.0,0.0,3.5469,3.5527,3.582,3.5901,3.588,3.5799,3.5854,3.5908,3.5908,3.5943,3.5996,0.0,3.5996,3.5995,3.6003,3.6745,3.7621,3.8492,3.9019,3.9624,4.0464,4.0893,4.1108,4.1108,4.1108,4.1322,4.183,4.1835,4.2221,4.3138,4.3066,4.3231,4.366,4.3559,4.3327,4.2977,4.2898,4.2671,4.2319,4.2316,4.2039,4.1567,4.1577,4.1293,4.0848,4.0848,4.0829,4.079,4.079,4.079,4.079,4.079,4.079,4.079,4.079,4.079,4.079,4.079,4.079,4.079,4.079,4.079,4.079,4.079,4.079,4.079,4.079,4.079,4.079,4.079,4.079,4.079,4.079,4.079,4.079,4.079,4.079,4.079,4.079,4.079,4.0746,4.0612,4.0481,4.0466,4.0579,4.0192,3.9946,4.0077,3.9301,3.878,3.878,3.8317,3.8001,3.7911,3.7559,3.7274,3.7106,3.669,3.6426,3.6348,3.6348,3.6348,3.6348,3.6348,3.6538,3.6898,3.6898,3.6689,3.5059,0.0,0.0,3.584,3.5996,3.5996,3.5937,3.5937,3.5917,3.5864,3.5891,3.5931,3.5931,3.5978,0.0,3.5996,3.5996,3.6074,3.6328,3.7107,3.7977,3.8843,3.9663,4.0405,4.103,4.1108,4.1108,4.1108,4.1322,4.1732,4.2376,4.263,4.3157,4.4036,4.4055,4.4172,4.4406,4.4378,4.422,4.3986,4.3884,4.3723,4.3489,4.3468,4.3128,4.2597,4.2576,4.2197,4.1623,4.1601,4.1557,4.1519,4.1487,4.1487,4.1487,4.1487,4.1197,4.079,4.079,4.079,4.079,4.079,4.079,4.079,4.079,4.079,4.079,4.079,4.079,4.079,4.079,4.079,4.079,4.079,4.079,4.079,4.079,4.079,4.079,4.079,4.079,4.079,4.079,4.079,4.079,4.079,4.0687,4.064,4.079,4.0668,4.0654,4.079,4.023,3.9874,3.9874,3.9282,3.889,3.8774,3.8488,3.8216,3.8018,3.7717,3.749,3.739,3.739,3.739,3.739,3.739,3.7523,3.775,3.775,3.7883,0.0,0.0,3.5976,3.5996,3.5996,3.5996,3.5996,3.5996,3.5996,3.5996,3.5996,3.5996,3.5996,3.5996,3.5996,3.5996,3.5996,3.6309,3.7148,3.8005,3.8877,3.9764,4.0561,4.1069,0.0,4.1108,4.1108,4.1108,4.1888,4.2376,4.2396,4.3196,4.4055,4.4933,4.4953,4.5363,4.6202,4.6222,4.5792,4.4949,4.4949,4.451,4.3683,4.3612,4.3574,4.3554,4.348,4.3455,4.3422,4.335,4.3318,4.3318,4.3247,4.3227,4.3227,4.3227,4.2202,4.079,4.079,4.079,4.079,4.079,4.079,4.079,4.079,4.079,4.079,4.079,4.079,4.079,4.079,4.079,4.079,4.079,4.079,4.079,4.079,4.079,4.079,4.079,4.079,4.079,4.079,4.079,4.079,4.079,4.079,4.079,4.079,4.079,4.079,4.079,4.0771,4.0752,4.0752,4.0732,4.0713,4.0713,3.9672,3.9051,3.9051,3.7985,3.7411,3.739,3.739,3.739,3.739,3.739,3.7826,3.8662,3.8662,3.9077,0.0,0.0,3.5996,3.5996,3.5996,3.5996,3.5996,3.5996,3.5996,3.5996,3.5996,3.5996,3.5996,3.5996,3.5996,3.5996,3.5996,3.6309,3.7187,3.8045,3.8916,3.9803,4.06,0.0,0.0,0.0,0.0,4.1108,4.1908,4.265,4.3235,4.4094,4.4953,4.5831,4.5851,4.6007,4.63,4.63,4.6144,4.5851,4.5863,4.5716,4.5429,4.539,4.5078,4.4531,4.4506,4.415,4.3562,4.3541,4.3483,4.3401,4.3369,4.3343,4.3305,4.3305,4.2937,4.2454,4.2454,4.2454,4.2454,4.2454,4.2067,4.1603,4.1603,4.1216,4.079,4.079,4.079,4.079,4.079,4.079,4.079,4.079,4.079,4.079,4.079,4.079,4.079,4.079,4.079,4.0965,4.1506,4.1603,4.1796,4.2376,4.1506,4.079,4.079,4.079,4.079,4.079,4.079,4.079,4.079,4.079,4.079,4.079,4.0309,3.9996,3.9895,3.9433,3.9143,3.9058,3.9058,3.9058,3.9058,3.9058,3.921,3.9513,3.9513,3.9646,0.0,3.5996,3.5996,3.5996,3.5996,3.5996,3.5996,3.5996,3.5996,3.5996,3.5996,3.5996,3.5996,3.5996,3.5996,3.5996,3.5996,3.6406,3.7598,3.8241,3.9037,4.0193,4.0795,0.0,0.0,0.0,0.0,4.1537,4.2376,4.3235,4.4114,4.4992,4.5714,4.628,4.63,4.63,4.63,4.63,4.63,4.63,4.6297,4.6306,4.6308,4.6308,4.5996,4.5469,4.5469,4.5117,4.4551,4.4531,4.4465,4.4358,4.435,4.4272,4.4194,4.4194,4.4194,4.4117,4.3518,4.3305,4.3305,4.3305,4.2918,4.2454,4.2454,4.1893,4.1235,4.1235,4.1023,4.079,4.079,4.079,4.079,4.079,4.1023,4.1235,4.1235,4.1467,4.168,4.168,4.168,4.1854,4.2376,4.2454,4.2647,4.3227,4.2376,4.1583,4.1274,4.0984,4.079,4.079,4.079,4.079,4.079,4.079,4.079,4.079,4.0579,4.0383,4.0298,4.012,3.9998,3.9911,3.9889,3.9889,3.9889,3.9889,3.9889,3.9889,3.9889,3.9889,3.5996,3.5996,3.5996,3.5996,3.5996,3.5996,3.5996,3.5996,3.5996,3.5996,3.5996,3.5996,0.0,0.0,3.5996,3.5996,3.5996,3.6601,3.8359,3.8594,3.9217,0.0,0.0,0.0,0.0,0.0,0.0,4.2396,0.0,4.4075,4.4953,4.5831,4.63,4.63,4.63,4.63,4.63,4.63,4.63,4.63,4.6295,4.6306,4.6308,4.6308,4.6308,4.6308,4.6308,4.6308,4.6308,4.623,4.6153,4.6084,4.6034,4.593,4.58,4.58,4.58,4.5568,4.3982,4.344,4.344,4.344,4.3401,4.3363,4.3363,4.2763,4.2067,4.2067,4.1525,4.0926,4.0926,4.0926,4.0926,4.0926,4.1506,4.2067,4.2067,4.2725,4.3305,4.3305,4.3343,4.3363,4.3363,4.3401,4.344,4.344,4.3401,4.3053,4.2183,4.139,4.0926,4.0926,4.0926,4.0926,4.0926,4.0887,4.0848,4.0848,4.0504,4.03,4.03,4.004,3.9889,3.9889,3.9889,3.9889,3.9889,3.9889,3.9889,3.9889,3.9889,3.9889,3.5996,3.5996,3.5996,3.5996,3.5996,3.5996,3.5996,3.5996,3.5996,3.5996,3.5996,3.5996,0.0,0.0,0.0,3.5996,3.5996,0.0,3.8359,3.8592,0.0,0.0,0.0,4.1108,4.1108,4.1693,0.0,0.0,4.3567,4.4075,4.4953,4.5831,4.63,4.63,4.63,4.63,4.63,4.63,4.63,4.63,4.6306,4.63,4.6308,4.6308,4.6308,4.6308,4.6308,4.6308,4.6308,4.6289,4.6212,4.6103,4.6072,4.5969,4.58,4.58,4.58,4.5742,4.5297,4.5162,4.5162,4.5162,4.4755,4.4272,4.4272,4.3653,4.2976,4.2976,4.2821,4.2667,4.2667,4.2667,4.2667,4.2667,4.2821,4.2976,4.2976,4.315,4.3305,4.3305,4.3827,4.4272,4.4272,4.4775,4.5162,4.5162,4.4659,4.3962,4.3073,4.2783,4.2667,4.2667,4.2667,4.2667,4.2667,4.2067,4.1654,4.1538,4.0765,4.0266,4.0158,3.9998,3.9889,3.9889,3.9889,3.9889,3.9889,3.9889,3.9889,3.9889,3.9889,3.9889,3.5996,3.5996,3.5996,3.5996,3.5996,3.5996,3.5996,3.5996,3.5996,3.5996,3.5996,0.0,0.0,0.0,0.0,0.0,0.0,0.0,3.8359,3.8593,3.9215,0.0,4.1094,0.0,4.1635,4.2103,4.2923,0.0,4.427,4.4641,4.5519,4.6027,4.63,4.63,4.63,4.63,4.63,4.63,4.63,4.63,4.63,4.6295,4.6307,4.6308,4.6308,4.6308,0.0,4.6308,4.6308,4.6308,4.6245,4.6143,4.6119,4.6007,4.5877,4.5819,4.58,4.58,4.58,4.58,4.58,4.58,4.549,4.5123,4.5123,4.4543,4.3866,4.3866,4.3595,4.3305,4.3305,4.3305,4.3305,4.3305,4.3595,4.3866,4.3866,4.4156,4.4407,4.4407,4.4794,4.5123,4.5123,4.549,4.58,4.58,4.5413,4.4949,4.4465,4.3769,4.3305,4.3305,4.3305,4.3278,4.3217,4.2814,4.2483,4.2261,4.1387,4.0823,4.0673,4.0167,3.9889,3.9889,3.9889,3.9889,3.9889,3.9889,3.9889,3.9889,3.9889,3.9889,3.5996,3.5996,3.5996,3.5996,3.5996,3.5996,3.5996,3.5996,3.5996,3.5996,0.0,0.0,3.5996,0.0,3.5996,3.5996,0.0,3.6601,3.8359,3.8594,3.9216,4.0899,4.1091,4.1439,4.2318,4.2494,4.3255,4.4875,4.5109,4.55,4.6261,4.63,4.63,4.63,4.63,4.63,4.63,4.63,4.63,4.63,4.63,4.6309,4.6301,4.6307,4.6308,4.6308,0.0,0.0,4.6308,4.6285,4.6245,4.6184,4.6113,4.6046,4.5969,4.5838,4.58,4.58,4.58,4.58,4.58,4.58,4.58,4.58,4.58,4.5316,4.4755,4.4755,4.4214,4.3634,4.3634,4.3634,4.3634,4.3634,4.4214,4.4755,4.4755,4.5316,4.58,4.58,4.58,4.58,4.58,4.58,4.58,4.58,4.58,4.58,4.58,4.4523,4.3634,4.3634,4.3634,4.3578,4.3439,4.3434,4.3293,4.2967,4.2181,4.1666,4.1528,4.0583,4.006,4.006,3.9946,3.9889,3.9889,3.9889,3.9889,3.9889,4.0003,4.006,3.5996,3.5996,3.5996,3.5996,3.5996,3.5996,3.5996,3.5996,0.0,0.0,0.0,3.5996,3.5996,3.5996,0.0,3.5996,0.0,0.0,0.0,0.0,3.9214,0.0,0.0,0.0,0.0,0.0,0.0,0.0,0.0,0.0,4.628,4.63,4.63,4.63,4.63,4.63,4.63,4.63,4.63,4.63,4.63,4.6306,4.6297,4.6307,4.6308,4.6308,0.0,0.0,4.6307,4.6247,4.6173,4.6099,4.6046,4.5949,4.5819,4.58,4.58,4.58,4.58,4.58,4.58,4.58,4.58,4.58,4.58,4.5703,4.5587,4.5587,4.5471,4.5374,4.5374,4.5374,4.5374,4.5374,4.5471,4.5587,4.5587,4.5703,4.58,4.58,4.58,4.58,4.58,4.58,4.58,4.58,4.58,4.58,4.58,4.5548,4.5374,4.5374,4.5374,4.5312,4.5189,4.4534,4.4011,4.3729,4.2906,4.2366,4.2231,4.1408,4.0972,4.0972,4.0271,3.9889,3.9889,3.9889,3.9889,3.9908,4.065,4.0972,3.5996,3.5996,3.5996,3.5996,3.5996,3.5996,3.5996,0.0,0.0,0.0,0.0,3.5996,3.5996,0.0,0.0,0.0,0.0,0.0,0.0,0.0,0.0,0.0,0.0,0.0,0.0,0.0,0.0,0.0,0.0,0.0,4.63,4.63,4.63,4.63,4.63,4.63,4.63,4.63,4.63,4.63,4.63,4.6306,4.6295,4.63,4.6306,4.6308,4.627,0.0,4.624,4.6183,4.6143,4.6083,4.6042,4.5969,4.5896,4.5819,4.58,4.58,4.58,4.58,4.58,4.58,4.58,4.58,4.58,4.58,4.58,4.58,4.58,4.58,4.58,4.58,4.58,4.58,4.58,4.58,4.58,4.58,4.58,4.58,4.58,4.58,4.58,4.58,4.58,4.58,4.58,4.58,4.58,4.58,4.58,4.58,4.58,4.5708,4.551,4.5197,4.4823,4.4433,4.37,4.3219,4.3076,4.228,4.1825,4.1825,4.1427,4.12,4.12,4.12,4.12,4.1219,4.1635,4.1825,3.5996,3.5996,3.5996,3.5996,3.5996,3.5996,3.5996,3.5996,0.0,0.0,0.0,0.0,0.0,0.0,0.0,0.0,0.0,0.0,0.0,0.0,0.0,0.0,0.0,0.0,0.0,0.0,0.0,0.0,0.0,0.0,4.63,4.63,4.63,4.63,4.63,4.63,4.63,4.63,4.63,4.63,4.63,4.6306,4.6293,4.6303,4.6293,4.6282,4.6211,0.0,0.0,4.6105,4.6074,4.6065,4.5988,4.5969,4.5949,4.5838,4.58,4.58,4.58,4.58,4.58,4.58,4.58,4.58,4.58,4.58,4.58,4.58,4.58,4.58,4.58,4.58,4.58,4.58,4.58,4.58,4.58,4.58,4.58,4.58,4.58,4.58,4.58,4.58,4.58,4.58,4.58,4.58,4.58,4.58,4.58,4.58,4.58,4.5692,4.5419,4.5493,4.5362,4.4919,4.441,4.4072,4.3947,4.3133,4.2678,4.2678,4.2507,4.2412,4.2412,4.2412,4.2412,4.2412,4.2602,4.2678,3.5996,3.5996,3.5996,3.5996,3.5996,3.5996,3.5996,0.0,0.0,0.0,3.5996,3.5996,0.0,0.0,0.0,0.0,0.0,0.0,0.0,0.0,0.0,0.0,0.0,0.0,0.0,0.0,0.0,0.0,0.0,0.0,0.0,4.63,4.63,4.63,4.63,4.63,4.63,4.63,4.63,4.63,4.63,4.63,4.6303,4.63,4.6269,4.6201,0.0,0.0,0.0,4.6035,4.6002,4.6007,4.5858,4.5819,4.5819,4.58,4.58,4.58,4.58,4.58,4.58,4.58,4.58,4.58,4.58,4.58,4.58,4.58,4.58,4.58,4.58,4.58,4.58,4.58,4.58,4.58,4.58,4.58,4.58,4.58,4.58,4.58,4.58,4.58,4.58,4.58,4.58,4.58,4.58,4.58,4.58,4.58,4.58,4.5692,4.5419,4.5419,4.5262,4.4919,4.4843,4.4806,4.4781,4.4004,4.3587,4.3587,4.281,4.2412,4.2412,4.2412,4.2412,4.2431,4.3208,4.3587,3.5996,3.5996,3.5996,3.5996,3.5996,3.5996,3.5996,0.0,0.0,3.5996,3.5996,3.5996,3.5996,0.0,0.0,0.0,0.0,0.0,0.0,0.0,0.0,0.0,0.0,0.0,0.0,0.0,0.0,0.0,0.0,0.0,0.0,4.63,4.63,4.63,4.63,4.63,4.63,4.63,4.63,4.63,4.63,4.63,4.63,4.63,4.6236,4.6142,0.0,0.0,0.0,4.5892,4.5887,4.5868,4.5819,4.58,4.58,4.58,4.58,4.58,4.58,4.58,4.58,4.5805,4.5791,4.5791,4.58,4.58,4.58,4.58,4.58,4.58,4.5791,4.5791,4.5791,4.58,4.58,4.58,4.58,4.58,4.58,4.58,4.58,4.58,4.58,4.58,4.58,4.58,4.58,4.58,4.58,4.58,4.58,4.58,4.58,4.5723,4.5528,4.5457,4.5301,4.5084,4.4967,4.4895,4.4895,4.4592,4.4421,4.4421,4.408,4.391,4.391,4.391,4.391,4.391,4.427,4.4421,3.5996,3.5996,3.5996,3.5996,3.5996,3.5996,0.0,0.0,0.0,3.5996,3.5996,3.5996,3.5996,3.5996,3.5996,3.5996,0.0,3.5996,0.0,0.0,0.0,0.0,0.0,0.0,0.0,0.0,0.0,0.0,0.0,0.0,0.0,4.63,4.63,4.63,4.63,4.63,4.63,4.63,4.63,4.63,4.63,4.63,4.63,4.6269,4.6189,4.6074,0.0,0.0,0.0,4.577,4.5765,4.5765,4.5791,4.5805,4.5805,4.58,4.58,4.58,4.5786,4.5805,4.5805,4.5781,4.5765,4.5781,4.5757,4.5786,4.5786,4.58,4.58,4.58,4.5795,4.5795,4.581,4.5805,4.58,4.58,4.5786,4.58,4.58,4.58,4.58,4.58,4.58,4.58,4.58,4.58,4.58,4.58,4.58,4.58,4.58,4.58,4.58,4.5757,4.5613,4.5475,4.5341,4.5213,4.4991,4.4895,4.4895,4.4895,4.4895,4.4895,4.4895,4.4895,4.4895,4.4895,4.4895,4.4895,4.4895,4.4895,3.5996,3.5996,3.5996,3.5996,3.5996,3.5996,0.0,0.0,0.0,3.5996,3.5996,3.5996,3.5996,3.5996,3.5996,3.5996,3.5996,0.0,0.0,0.0,0.0,0.0,0.0,0.0,0.0,0.0,0.0,0.0,0.0,0.0,0.0,4.63,4.63,4.63,4.63,4.63,4.63,4.63,4.63,4.63,4.63,4.63,4.63,4.615,4.6068,0.0,0.0,0.0,0.0,4.57,4.57,4.5715,4.5765,4.58,4.5795,4.5786,4.58,4.58,4.5795,4.58,4.5781,4.5715,4.57,4.57,4.57,4.575,4.5795,4.58,4.58,4.58,4.5795,4.5791,4.58,4.5795,4.5791,4.58,4.5795,4.5805,4.58,4.58,4.58,4.58,4.58,4.58,4.58,4.58,4.58,4.58,4.58,4.58,4.58,4.58,4.58,4.5757,4.5613,4.5475,4.5341,4.5213,4.4991,4.4895,4.4895,4.4895,4.4895,4.4895,4.4895,4.4895,4.4895,4.4895,4.4895,4.4895,4.4895,4.4895,3.5996,3.5996,3.5996,3.5996,3.5996,3.5996,3.5996,0.0,0.0,0.0,3.5996,3.5996,3.5996,3.5996,3.5996,3.5996,3.5996,0.0,0.0,0.0,0.0,0.0,0.0,0.0,0.0,0.0,0.0,0.0,0.0,0.0,0.0,4.63,4.63,4.63,4.63,4.63,4.63,4.63,4.63,4.63,4.63,4.6245,4.615,4.6112,0.0,0.0,0.0,0.0,0.0,4.569,4.5706,4.5706,4.5735,4.5765,4.5815,4.5795,4.5805,4.58,4.5795,4.581,4.5791,4.5731,4.5731,4.5765,4.5715,4.5715,4.5731,4.5795,4.5765,4.5735,4.58,4.5781,4.5746,4.5781,4.5791,4.58,4.5805,4.58,4.58,4.58,4.58,4.58,4.58,4.58,4.58,4.58,4.58,4.58,4.58,4.58,4.58,4.58,4.58,4.5766,4.5737,4.5528,4.5381,4.5341,4.5065,4.4895,4.4895,4.4895,4.4895,4.4895,4.4895,4.4895,4.4895,4.4895,4.4895,4.4895,4.4895,4.4895,0.0,3.5996,3.5996,3.5996,3.5996,0.0,0.0,0.0,0.0,0.0,0.0,3.5996,3.5996,3.5996,3.5996,3.5996,3.5995,0.0,0.0,0.0,0.0,0.0,0.0,0.0,0.0,0.0,0.0,0.0,0.0,0.0,0.0,0.0,4.63,4.63,4.63,4.63,4.63,4.63,4.63,4.63,4.63,4.624,4.6098,4.6049,0.0,0.0,0.0,0.0,0.0,4.564,4.5657,4.5657,4.5687,4.5738,4.577,4.5765,4.5795,4.5805,4.5781,4.5776,4.5791,4.5735,4.5703,4.5719,4.5668,4.5684,4.5715,4.5754,4.5738,4.5706,4.5754,4.5735,4.5715,4.5754,4.6032,4.6288,4.6274,4.654,4.6786,4.6786,4.6786,4.6786,4.6786,4.6786,4.6786,4.6786,4.6496,4.6283,4.6283,4.5993,4.58,4.58,4.58,4.58,4.58,4.5596,4.5438,4.54,4.5173,4.4967,4.4895,4.4895,4.4895,4.4895,4.4895,4.4895,4.4895,4.4895,4.4895,4.4895,4.4895,4.4895,0.0,3.5996,3.5996,3.5996,3.5996,3.5996,0.0,0.0,0.0,0.0,0.0,3.5996,3.5996,3.5996,3.5996,3.5996,3.6007,0.0,0.0,0.0,0.0,0.0,0.0,0.0,0.0,0.0,0.0,0.0,0.0,0.0,0.0,0.0,4.63,4.63,4.63,4.63,4.63,4.63,4.63,4.6296,4.6296,4.6211,4.6064,4.5959,0.0,0.0,0.0,0.0,0.0,4.5586,4.5586,4.5622,4.5676,4.5693,4.5709,4.5703,4.575,4.5781,4.5715,4.5731,4.58,4.5742,4.5657,4.5622,4.5622,4.5654,4.5684,4.569,4.5706,4.5684,4.569,4.5687,4.5703,4.5767,4.6452,4.7079,4.7086,4.777,4.8377,4.8377,4.8377,4.8377,4.8377,4.8392,4.8392,4.8392,4.7715,4.7192,4.7192,4.6477,4.5974,4.5974,4.5916,4.5877,4.5877,4.57,4.5528,4.5419,4.5258,4.5084,4.4895,4.4895,4.4895,4.4895,4.4895,4.4895,4.4895,4.4895,4.4895,4.4895,4.4895,4.4933,3.5767,0.0,3.5996,3.5996,3.5996,3.5996,0.0,0.0,0.0,0.0,0.0,3.5996,3.5996,3.5996,3.5996,3.5996,0.0,0.0,0.0,0.0,0.0,0.0,0.0,0.0,0.0,0.0,0.0,0.0,0.0,0.0,0.0,0.0,4.63,4.63,4.63,4.63,4.63,4.63,4.6245,4.6144,4.6144,4.6052,4.5866,4.5829,0.0,0.0,0.0,0.0,4.5586,4.5586,4.5586,4.5586,4.5622,4.5657,4.5709,4.569,4.5703,4.5715,4.5706,4.5738,4.58,4.5785,4.5722,4.5693,4.5693,4.5657,4.5637,4.5693,4.5657,4.5637,4.5693,4.5709,4.5863,4.6463,4.6824,4.7185,4.786,4.8166,4.8337,4.8337,4.8337,4.8337,4.8337,4.8314,4.8327,4.8327,4.8203,4.8082,4.8082,4.7927,4.7792,4.7792,4.7192,4.6786,4.6786,4.5965,4.5419,4.54,4.5132,4.4943,4.4895,4.4895,4.4895,4.4895,4.4895,4.4895,4.4895,4.4895,4.4895,4.4895,4.4895,4.5255,3.5639,3.6003,3.5992,3.5995,3.5995,3.5995,3.5996,0.0,0.0,0.0,0.0,0.0,3.5996,0.0,0.0,0.0,0.0,0.0,0.0,0.0,0.0,0.0,0.0,0.0,0.0,0.0,0.0,0.0,0.0,0.0,0.0,0.0,4.63,4.63,4.63,4.63,4.63,4.624,4.6176,4.6098,4.6041,4.5938,4.58,4.58,0.0,0.0,0.0,0.0,4.5586,4.5586,4.5586,4.5586,4.5586,4.5622,4.5657,4.5657,4.5673,4.5687,4.5709,4.5706,4.5754,4.5754,4.5706,4.5657,4.5657,4.564,4.5622,4.564,4.564,4.5622,4.564,4.5657,4.5851,4.6698,4.7234,4.7885,4.9138,4.9753,5.0156,5.0522,5.06,5.06,5.06,5.0598,5.0595,5.0648,5.0336,5.0117,5.0132,4.9475,4.8991,4.8991,4.8217,4.7695,4.7695,4.7077,4.6338,4.555,4.5262,4.5087,4.5038,4.4943,4.4895,4.4895,4.4895,4.4895,4.4895,4.5293,4.5501,4.5501,4.588,4.6297,3.5561,3.5991,3.5996,3.6007,3.6009,3.5991,3.5995,0.0,0.0,0.0,0.0,0.0,0.0,0.0,0.0,0.0,0.0,0.0,0.0,0.0,0.0,0.0,0.0,0.0,0.0,0.0,0.0,0.0,0.0,0.0,0.0,0.0,0.0,4.63,4.63,4.6296,4.6273,4.617,4.6091,4.6064,4.5949,4.5828,4.5771,4.5771,4.5715,0.0,0.0,0.0,4.5586,4.5586,4.5586,4.5586,4.5586,4.5586,4.5586,4.5586,4.564,4.5693,4.5693,4.5693,4.5693,4.5693,4.5657,4.5586,4.5586,4.5586,4.5586,4.5586,4.5586,4.5586,4.5586,4.5586,4.5836,4.6855,4.7757,4.8852,5.0509,5.1606,5.2473,5.3147,5.3282,5.3282,5.3282,5.3301,5.332,5.3375,5.2756,5.229,5.236,5.1141,5.0252,5.0252,4.9378,4.8778,4.8778,4.8433,4.7595,4.6111,4.5859,4.5724,4.5595,4.5441,4.5328,4.5274,4.5299,4.5299,4.5274,4.6013,4.6373,4.6392,4.7074,4.7472,3.574,3.5991,3.5994,3.5996,3.5996,3.5996,0.0,0.0,0.0,0.0,0.0,0.0,0.0,0.0,0.0,0.0,0.0,0.0,0.0,0.0,0.0,0.0,0.0,0.0,0.0,0.0,0.0,0.0,0.0,0.0,0.0,0.0,0.0,4.63,4.63,4.6245,4.6138,4.6105,4.6049,4.593,4.5847,4.5757,4.5637,4.5637,4.562,0.0,0.0,4.5586,4.5586,4.5586,4.5586,4.5586,4.5586,4.5586,4.5586,4.5586,4.5622,4.5622,4.5693,4.5657,4.5622,4.5693,4.5657,4.5586,4.5586,4.5586,4.5586,4.5586,4.5586,4.5586,4.5586,4.5586,4.599,4.7548,4.8567,4.9682,5.1337,5.2415,5.3069,5.3184,5.3223,5.3223,5.3223,5.3263,5.3302,5.3302,5.3205,5.3107,5.3126,5.2968,5.2831,5.2831,5.1435,5.0519,5.0519,4.9208,4.8265,4.7994,4.7681,4.7448,4.7312,4.7403,4.7319,4.7018,4.7172,4.7191,4.7018,4.715,4.7207,4.7207,4.734,4.7795,3.5759,3.5991,3.5991,3.5991,3.5991,0.0,0.0,0.0,0.0,0.0,0.0,0.0,0.0,0.0,0.0,0.0,0.0,0.0,0.0,0.0,0.0,0.0,0.0,0.0,0.0,0.0,0.0,0.0,0.0,0.0,0.0,0.0,0.0,0.0,4.63,4.624,4.6098,4.6033,4.5939,4.5847,4.5737,4.5651,4.5586,4.5586,4.5586,4.5586,0.0,4.5586,4.5586,4.5586,4.5586,4.5586,4.5586,4.5586,4.5586,4.5586,4.5586,4.5603,4.564,4.5622,4.5622,4.564,4.5622,4.5586,4.5586,4.5586,4.5586,4.5586,4.5586,4.5586,4.5586,4.5586,4.6009,4.7702,4.8779,4.999,5.2145,5.3299,5.403,5.4472,5.4549,5.4549,5.4549,5.457,5.461,5.465,5.4246,5.3957,5.3995,5.3241,5.27,5.2696,5.1612,5.0893,5.089,5.019,4.9328,4.8356,4.8048,4.7872,4.7807,4.7807,4.772,4.7571,4.7647,4.7619,4.7397,4.787,4.8098,4.8098,4.8534,4.8969,3.5818,3.5991,3.5991,0.0,0.0,0.0,0.0,0.0,0.0,0.0,0.0,0.0,0.0,0.0,0.0,0.0,0.0,0.0,0.0,0.0,0.0,0.0,0.0,0.0,0.0,0.0,0.0,0.0,0.0,0.0,0.0,0.0,0.0,0.0,4.6273,4.6181,4.6057,4.5939,4.5847,4.58,4.5668,4.5586,4.5586,4.5586,4.5586,4.5586,4.5586,4.5586,4.5586,4.5586,4.5586,4.5586,4.5586,4.5586,4.5586,4.5586,4.5586,4.5586,4.5586,4.5586,4.5586,4.5586,4.5586,4.5586,4.5586,4.5586,4.5586,4.5586,4.5586,4.5586,4.5586,4.5586,4.597,4.7471,4.8625,5.0048,5.2395,5.3741,5.4741,5.553,5.5703,5.5703,5.5703,5.553,5.5436,5.5497,5.4746,5.4207,5.4265,5.3166,5.2374,5.2391,5.1655,5.1109,5.0909,5.0906,5.0298,4.8921,4.8682,4.8587,4.8567,4.8485,4.8398,4.8304,4.8308,4.8215,4.7984,4.8647,4.8969,4.8935,4.9559,4.9843,3.5971,3.5991,3.5991,3.5991,0.0,0.0,0.0,0.0,0.0,0.0,0.0,0.0,0.0,0.0,0.0,0.0,0.0,0.0,0.0,0.0,0.0,0.0,0.0,0.0,0.0,0.0,0.0,0.0,0.0,0.0,0.0,0.0,0.0,0.0,0.0,4.6049,4.592,4.5835,4.5794,4.58,4.5668,4.5586,4.5586,4.5586,4.5586,4.5586,4.5586,4.5586,4.5586,4.5586,4.5586,4.5586,4.5586,4.5586,4.5586,4.5586,4.5586,4.5586,4.5586,4.5586,4.5586,4.5586,4.5586,4.5586,4.5586,4.5586,4.5586,4.5586,4.5586,4.5586,4.5586,4.5586,4.5817,4.6778,4.8221,4.9875,5.1625,5.3318,5.4741,5.553,5.5703,5.5703,5.5703,5.5068,5.4587,5.4587,5.3837,5.3299,5.3299,5.3263,5.3225,5.3225,5.2489,5.1708,5.0948,5.0906,5.0832,5.0716,5.0681,5.0632,5.049,5.0615,5.0471,5.004,5.0122,5.0054,4.9709,4.9765,4.9768,4.9646,4.9702,4.9615,3.5988,3.5991,3.5991,0.0,0.0,0.0,0.0,0.0,0.0,0.0,0.0,0.0,0.0,0.0,0.0,0.0,0.0,0.0,0.0,0.0,0.0,0.0,0.0,0.0,0.0,0.0,0.0,0.0,0.0,0.0,0.0,0.0,0.0,0.0,0.0,4.5929,4.5841,4.5808,4.5757,4.5668,4.562,4.5586,4.5586,4.5586,4.5586,4.5586,4.5586,4.5586,4.5586,4.5586,4.5586,4.5586,4.5586,4.5586,4.5586,4.5586,4.5586,4.5586,4.5586,4.5586,4.5586,4.5586,4.5586,4.5586,4.5586,4.5586,4.5586,4.5586,4.5586,4.5586,4.5586,4.5586,4.5817,4.6701,4.8182,4.9856,5.1548,5.328,5.4741,5.553,5.5299,5.4953,5.4953,5.4241,5.3683,5.3683,5.2953,5.2395,5.2395,5.1972,5.1665,5.1684,5.145,5.1192,5.0916,5.0897,5.0893,5.089,5.0825,5.0791,5.0825,5.0681,5.0508,5.0336,5.0291,5.0144,4.9898,4.9816,4.975,4.9692,4.9585,4.9476,3.5985,3.5991,3.5991,0.0,0.0,0.0,0.0,0.0,0.0,0.0,0.0,0.0,0.0,0.0,0.0,0.0,0.0,0.0,0.0,0.0,0.0,0.0,0.0,0.0,0.0,0.0,0.0,0.0,0.0,0.0,0.0,0.0,0.0,0.0,0.0,4.5847,4.58,4.5757,4.57,4.5586,4.5586,4.5586,4.5586,4.5586,4.5586,4.5586,4.5586,4.5586,4.5586,4.5586,4.5586,4.5586,4.5586,4.5586,4.5586,4.5586,4.5586,4.5586,4.5586,4.5586,4.5586,4.5586,4.5586,4.5586,4.5586,4.5586,4.5586,4.5586,4.5586,4.5586,4.5586,4.5586,4.574,4.6355,4.7778,4.9452,5.1144,5.2876,5.4337,5.5164,5.4876,5.4414,5.4145,5.3376,5.2799,5.2799,5.2068,5.1529,5.1529,5.1029,5.0702,5.0701,5.0738,5.0793,5.0863,5.0899,5.0897,5.0893,5.0773,5.0756,5.089,5.0644,5.0467,5.0404,5.0264,5.0063,4.9843,4.975,4.9634,4.9544,4.9402,4.9289,3.5981,3.5991,0.0,0.0,0.0,0.0,0.0,0.0,0.0,0.0,0.0,0.0,0.0,0.0,0.0,0.0,0.0,0.0,0.0,0.0,0.0,0.0,0.0,0.0,0.0,0.0,0.0,0.0,0.0,0.0,0.0,0.0,0.0,0.0,0.0,0.0,4.58,4.5668,4.5586,4.5586,4.5586,4.5586,4.5586,4.5586,4.5586,4.5586,4.5586,4.5586,4.5586,4.5586,4.5586,4.5586,4.5586,4.5586,4.5586,4.5586,4.5586,4.5586,4.5586,4.5586,4.5586,4.5586,4.5586,4.5586,4.5586,4.5586,4.5586,4.5586,4.5586,4.5586,4.5586,4.5586,4.5586,4.5586,4.6874,4.8586,5.0298,5.1991,5.3453,5.4318,5.4472,5.4203,5.3337,5.2472,5.1895,5.1895,5.1202,5.0702,5.0702,5.0702,5.0702,5.0701,5.0701,5.072,5.0793,5.0863,5.0899,5.0899,5.0775,5.0756,5.089,5.0773,5.0606,5.0404,5.0264,5.0012,4.9692,4.9692,4.9525,4.9197,4.9197,4.9079,3.5844,3.5931,0.0,0.0,0.0,0.0,0.0,0.0,0.0,0.0,0.0,0.0,0.0,0.0,0.0,0.0,0.0,0.0,0.0,0.0,0.0,0.0,0.0,0.0,0.0,0.0,0.0,0.0,0.0,0.0,0.0,0.0,0.0,0.0,0.0,0.0,4.5651,4.562,4.5586,4.5586,4.5586,4.5586,4.5586,4.5586,4.5586,4.5586,4.5586,4.5586,4.5586,4.5586,4.5586,4.5586,4.5586,4.5586,4.5586,4.5586,4.5586,4.5586,4.5586,4.5586,4.5586,4.5586,4.5586,4.5586,4.5586,4.5586,4.5586,4.5586,4.5586,4.5586,4.5586,4.5586,4.5586,4.5586,4.6874,4.8413,4.9529,5.1106,5.2549,5.3414,5.3087,5.2587,5.2337,5.1606,5.1048,5.1048,5.0837,5.0702,5.0702,5.0702,5.0702,5.0702,5.0683,5.0702,5.0739,5.0757,5.0701,5.0547,5.0507,5.0625,5.089,5.0427,5.023,5.0404,4.9903,4.9655,4.9692,4.9464,4.9295,4.9197,4.9046,4.8978,3.5825,0.0,0.0,0.0,0.0,0.0,0.0,0.0,0.0,0.0,0.0,0.0,0.0,0.0,0.0,0.0,0.0,0.0,0.0,0.0,0.0,0.0,0.0,0.0,0.0,0.0,0.0,0.0,0.0,0.0,0.0,0.0,0.0,0.0,0.0,0.0,4.5586,4.5586,4.5586,4.5586,4.5586,4.5586,4.5586,4.5586,4.5586,4.5586,4.5586,4.5586,4.5586,4.5586,4.5586,4.5586,4.5586,4.5586,4.5586,4.5586,4.5586,4.5586,4.5586,4.5586,4.5586,4.5586,4.5586,4.5586,4.5586,4.5586,4.5586,4.5586,4.5586,4.5586,4.5586,4.5855,4.6124,4.6124,4.7124,4.8432,4.9644,5.0971,5.2068,5.2587,5.226,5.1798,5.1491,5.101,5.0702,5.0702,5.0702,5.0702,5.0702,5.0702,5.0702,5.0702,5.0565,5.0485,5.0507,5.0527,5.0446,5.023,5.0252,5.0344,5.051,5.0073,5.0012,5.038,4.974,4.9476,4.9655,4.9371,4.9146,4.9079,4.8978,4.8909,0.0,0.0,0.0,0.0,0.0,0.0,0.0,0.0,0.0,0.0,0.0,0.0,0.0,0.0,0.0,0.0,0.0,0.0,0.0,0.0,0.0,0.0,0.0,0.0,0.0,0.0,0.0,0.0,0.0,0.0,0.0,0.0,0.0,0.0,0.0,0.0,4.5586,4.5586,4.5586,0.0,4.5586,4.5586,4.5586,4.5586,4.5586,4.5586,4.5586,4.5586,4.5586,4.5586,4.5586,4.5586,4.5586,4.5586,4.5586,4.5586,4.5586,4.5586,4.5586,4.5586,4.5586,4.5586,4.5586,4.5586,4.5586,4.5586,4.5586,4.5586,4.5586,4.5586,4.5586,4.624,4.6932,4.699,4.7625,4.8644,5.024,5.1221,5.1798,5.1798,5.1798,5.1568,5.0818,5.0702,5.0702,5.0702,5.0663,5.0663,5.0702,5.0702,5.0683,5.0663,5.038,5.0183,5.0159,5.023,5.014,4.9884,4.9987,4.9974,4.9822,4.973,4.9876,5.0329,4.9703,4.9427,4.9539,4.9289,4.9079,4.8909,4.8909,4.8909,0.0,0.0,0.0,0.0,0.0,0.0,0.0,0.0,0.0,0.0,0.0,0.0,0.0,0.0,0.0,0.0,0.0,0.0,0.0,0.0,0.0,0.0,0.0,0.0,0.0,0.0,0.0,0.0,0.0,0.0,0.0,0.0,0.0,0.0,0.0,4.5586,4.5586,4.5586,4.5586,0.0,4.5586,4.5586,4.5586,4.5586,4.5586,4.5586,4.5586,4.5586,4.5586,4.5586,4.5586,4.5586,4.5586,4.5586,4.5586,4.5586,4.5586,4.5586,4.5586,4.5586,4.5586,4.5586,4.5586,4.5586,4.5586,4.5586,4.5586,4.5586,4.5586,4.5586,4.5586,4.624,4.7067,4.7702,4.8509,4.9221,4.9606,5.0356,5.0952,5.0952,5.0952,5.0894,5.0721,5.0702,5.0702,5.0702,5.0483,5.038,5.0663,5.0702,5.0604,5.0336,5.023,5.0092,4.9891,4.9891,4.9803,4.9529,4.9529,4.9499,4.9346,4.9302,4.9488,4.9849,4.9283,4.9094,4.9308,4.9079,4.8943,4.8909,4.8909,4.8909,0.0,0.0,0.0,0.0,0.0,0.0,0.0,0.0,0.0,0.0,0.0,0.0,0.0,0.0,0.0,0.0,0.0,0.0,0.0,0.0,0.0,0.0,0.0,0.0,0.0,0.0,0.0,0.0,0.0,0.0,0.0,0.0,0.0,0.0,4.5586,4.5586,4.5586,4.5586,4.5586,4.5586,4.5586,4.5586,4.5586,4.5586,4.5586,4.5586,4.5586,4.5586,4.5586,4.5586,4.5586,4.5586,4.5586,4.5586,4.5586,4.5586,4.5586,4.5586,4.5586,4.5586,4.5586,4.5586,4.5586,4.5586,4.5586,4.5586,4.5586,4.5586,4.5586,4.5586,4.5586,4.6528,4.7586,4.8009,4.8779,4.951,4.9933,5.0375,5.0702,5.0702,5.0702,5.0702,5.0702,5.0565,5.0442,5.0442,5.0202,5.0111,5.0421,5.0442,5.038,5.0206,5.0087,4.991,4.9627,4.9598,4.9499,4.9193,4.9321,4.9289,4.9079,4.9046,4.9239,4.9655,4.9174,4.9027,4.9308,4.9027,4.8909,4.8909,4.8909,4.8909,0.0,0.0,0.0,0.0,0.0,0.0,0.0,0.0,0.0,0.0,0.0,0.0,0.0,0.0,0.0,0.0,0.0,0.0,0.0,0.0,0.0,0.0,0.0,0.0,0.0,0.0,0.0,0.0,0.0,0.0,0.0,0.0,4.5586,4.5586,4.5586,4.5586,4.5586,4.5586,4.5586,4.5586,4.5586,4.5586,4.5586,4.5586,4.5586,4.5586,4.5586,4.5586,4.5586,4.5586,4.5586,4.5586,4.5586,4.5586,4.5586,4.5586,4.5586,4.5586,4.5586,4.5586,4.5586,4.5586,4.5586,4.5586,4.5586,4.5622,4.5603,4.5603,4.5622,4.5603,4.5603,4.6836,4.8105,4.8105,4.8875,4.9817,5.0529,5.0702,5.0702,5.0702,5.0702,5.0683,5.0624,5.0336,5.0135,5.0135,4.9891,4.983,5.0111,5.0135,5.0092,5.0062,4.9857,4.9627,4.9334,4.9302,4.9193,4.8909,4.916,4.9193,4.8909,4.8909,4.9075,4.945,4.9108,4.9027,4.9321,4.9027,4.8909,4.8909,4.8909,4.8909,0.0,0.0,0.0,0.0,0.0,0.0,0.0,0.0,0.0,0.0,0.0,0.0,0.0,0.0,0.0,0.0,0.0,0.0,0.0,0.0,0.0,0.0,0.0,0.0,0.0,0.0,0.0,0.0,0.0,0.0,0.0,4.5586,4.5586,4.5586,4.5586,4.5586,4.5586,4.5586,4.5586,4.5586,4.5586,4.5586,4.5586,4.5586,4.5586,4.5586,4.5586,4.5586,4.5586,4.5586,4.5586,4.5586,4.5586,4.5586,4.5586,4.5586,4.5586,4.5586,4.5586,4.5586,4.5586,4.5586,4.5586,4.5586,4.5586,4.564,4.5657,4.5622,4.564,4.5657,4.5622,4.6836,4.8105,4.8105,4.9336,5.0548,5.0664,5.0702,5.0702,5.0702,5.0702,5.0604,5.0336,5.0038,4.9838,4.9838,4.9627,4.9558,4.983,4.9838,4.9776,4.9529,4.9488,4.9334,4.8993,4.8978,4.8943,4.8909,4.8925,4.8943,4.8909,4.8909,4.8925,4.8993,4.8925,4.8943,4.8978,4.8943,4.8909,4.8909,4.8909,4.8909,0.0,0.0,0.0,0.0,0.0,0.0,0.0,0.0,0.0,0.0,0.0,0.0,0.0,0.0,0.0,0.0,0.0,0.0,0.0,0.0,0.0,0.0,0.0,0.0,0.0,0.0,0.0,0.0,0.0,0.0,4.5586,4.5586,4.5586,4.5586,4.5586,4.5586,4.5586,4.5586,4.5586,4.5586,4.5586,4.5586,4.5586,4.5586,4.5586,4.5586,4.5586,4.5586,4.5586,4.5586,4.5586,4.5586,4.5586,4.5586,4.5586,4.5586,4.5586,4.5586,4.5586,4.5586,4.5586,4.5586,4.5586,4.5586,4.5586,4.5622,4.564,4.5622,4.5622,4.564,4.5622,4.6836,4.8105,4.8105,4.9433,5.0702,5.0702,5.0702,5.0702,5.0702,5.0544,5.0358,5.0249,4.9857,4.9588,4.9588,4.9334,4.9239,4.9558,4.9588,4.9529,4.9396,4.9415,4.9239,4.8943,4.8909,4.8909,4.8909,4.8909,4.8909,4.8909,4.8909,4.8909,4.8909,4.8909,4.8909,4.8909,4.8909,4.8909,4.8909,4.8909,4.8909,0.0,0.0,0.0,0.0,0.0,0.0,0.0,0.0,0.0,0.0,0.0,0.0,0.0,0.0,0.0,0.0,0.0,0.0,0.0,0.0,0.0,0.0,0.0,0.0,0.0,0.0,0.0,0.0,0.0,0.0,4.5586,4.5586,4.5586,4.5586,4.5586,4.5586,4.5586,4.5586,4.5586,4.5586,4.5586,4.5586,4.5586,4.5586,4.5586,4.5586,4.5586,4.5586,4.5586,4.5586,4.5586,4.5586,4.5586,4.5586,4.5586,4.5586,4.5586,4.5586,4.5586,4.5586,4.5586,4.5586,4.5586,4.5586,4.5586,4.5603,4.5622,4.5603,4.5603,4.5622,4.5603,4.6682,4.7855,4.8048,4.926,5.0433,5.0644,5.0624,5.0565,5.0565,5.0313,5.0087,5.0012,4.9655,4.9384,4.9289,4.9061,4.8993,4.9257,4.927,4.927,4.927,4.927,4.916,4.8943,4.8909,4.8909,4.8909,4.8909,4.8909,4.8909,4.8909,4.8909,4.8909,4.8909,4.8909,4.8909,4.8909,4.8909,4.8909,4.8909,4.8909,0.0,0.0,0.0,0.0,0.0,0.0,0.0,0.0,0.0,0.0,0.0,0.0,0.0,0.0,0.0,0.0,0.0,0.0,0.0,0.0,0.0,0.0,0.0,0.0,0.0,0.0,0.0,0.0,0.0,0.0,4.5586,4.5586,4.5586,4.5586,4.5586,4.5586,4.5586,4.5586,4.5586,4.5586,4.5586,4.5586,4.5586,4.5586,4.5586,4.5586,4.5586,4.5586,4.5586,4.5586,4.5586,4.5586,4.5586,4.5586,4.5586,4.5586,4.5586,4.5586,4.5586,4.5586,4.5586,4.5586,4.5586,4.5586,4.5586,4.564,4.5693,4.5622,4.564,4.5693,4.5622,4.6278,4.7163,4.7932,4.8798,4.9683,5.051,5.0442,5.0249,5.0249,5.0012,4.9749,4.9488,4.9415,4.9289,4.8959,4.8909,4.8909,4.8925,4.8943,4.8943,4.8943,4.8943,4.8909,4.8909,4.8909,4.8909,4.8909,4.8909,4.8909,4.8909,4.8909,4.8909,4.8909,4.8909,4.8909,4.8909,4.8909,4.8909,4.8909,4.8909,4.8909,0.0,0.0,0.0,0.0,0.0,0.0,0.0,0.0,0.0,0.0,0.0,0.0,0.0,0.0,0.0,0.0,0.0,0.0,0.0,0.0,0.0,0.0,0.0,0.0,0.0,0.0,0.0,0.0,0.0,0.0,4.5586,4.5586,4.5586,4.5586,4.5586,4.5586,4.5586,4.5586,4.5586,4.5586,4.5586,4.5586,4.5586,4.5586,4.5586,4.5586,4.5586,4.5586,4.5586,4.5586,4.5586,4.5586,4.5586,4.5586,4.5586,4.5586,4.5586,4.5586,4.5586,4.5586,4.5586,4.5586,4.5586,4.5586,4.5586,4.5622,4.564,4.5622,4.5622,4.564,4.5622,4.624,4.724,4.8606,4.9163,4.9644,5.051,5.0442,5.0159,4.9987,4.974,4.9499,4.9415,4.9225,4.9027,4.8909,4.8909,4.8909,4.8909,4.8909,4.8909,4.8909,4.8909,4.8909,4.8909,4.8909,4.8909,4.8909,4.8909,4.8909,4.8909,4.8909,4.8909,4.8909,4.8909,4.8909,4.8909,4.8909,4.8909,4.8909,4.8909,4.8909,3.5209,0.0,0.0,0.0,0.0,0.0,0.0,0.0,0.0,0.0,0.0,0.0,0.0,0.0,0.0,0.0,0.0,0.0,0.0,0.0,0.0,0.0,0.0,0.0,0.0,0.0,0.0,0.0,0.0,0.0,4.5586,4.5586,4.5586,4.5586,4.5586,4.5586,4.5586,4.5586,4.5586,4.5586,4.5586,4.5586,4.5586,4.5586,4.5586,4.5586,4.5586,4.5586,4.5586,4.5586,4.5586,4.5586,4.5586,4.5586,4.5586,4.5586,4.5586,4.5586,4.5586,4.5586,4.5586,4.5586,4.5586,4.5586,4.5586,4.5586,4.5586,4.5586,4.5586,4.5586,4.5586,4.624,4.7182,4.8298,4.8779,4.9144,4.9827,5.0034,4.9993,4.9838,4.948,4.9225,4.9225,4.9061,4.8909,4.8909,4.8909,4.8909,4.8909,4.8909,4.8909,4.8909,4.8909,4.8909,4.8909,4.8909,4.8909,4.8909,4.8909,4.8909,4.8909,4.8909,4.8909,4.8909,4.8909,4.8909,4.8909,4.8909,4.8909,4.8909,4.8909,4.8909,0.0,0.0,0.0,0.0,0.0,0.0,0.0,0.0,0.0,0.0,0.0,0.0,0.0,0.0,0.0,0.0,0.0,0.0,0.0,0.0,0.0,0.0,0.0,0.0,0.0,0.0,0.0,0.0,0.0,4.5586,4.5586,4.5586,4.5586,4.5586,4.5586,4.5586,4.5586,4.5586,4.5586,4.5586,4.5586,4.5586,4.5586,4.5586,4.5586,4.5586,4.5586,4.5586,4.5586,4.5586,4.5586,4.5586,4.5586,4.5586,4.5586,4.5586,4.5586,4.5586,4.5586,4.5586,4.5586,4.5586,4.5586,4.5586,4.5586,4.5586,4.5586,4.5586,4.5586,4.5586,4.5586,4.622,4.6874,4.6894,4.7509,4.8163,4.8447,4.9178,4.9765,4.9757,4.9296,4.8909,4.8909,4.8909,4.8909,4.8909,4.8909,4.8909,4.8909,4.8909,4.8909,4.8909,4.8909,4.8909,4.8909,4.8909,4.8909,4.8909,4.8909,4.8909,4.8909,4.8909,4.8909,4.8909,4.8909,4.8909,4.8909,4.8909,4.8909,4.8909,4.8909,4.8909,3.5209,0.0,0.0,0.0,0.0,0.0,0.0,0.0,0.0,0.0,0.0,0.0,0.0,0.0,0.0,0.0,0.0,0.0,0.0,0.0,0.0,0.0,0.0,0.0,0.0,0.0,0.0,0.0,4.5586,4.5586,4.5586,4.5586,4.5586,4.5586,4.5586,4.5586,4.5586,4.5586,4.5586,4.5586,4.5586,4.5586,4.5586,4.5586,4.5586,4.5586,4.5586,4.5586,4.5586,4.5586,4.5586,4.5586,4.5586,4.5586,4.5586,4.5586,4.5586,4.5586,4.5586,4.5586,4.5586,4.5586,4.5586,4.5586,4.5586,4.5586,4.5586,4.5586,4.5586,4.5586,4.5586,4.5778,4.6124,4.6759,4.7067,4.753,4.8632,4.8872,4.8928,4.9121,4.9008,4.8909,4.8909,4.8909,4.8909,4.8909,4.8909,4.8909,4.8909,4.8909,4.8909,4.8909,4.8909,4.8909,4.8909,4.8909,4.8909,4.8909,4.8909,4.8909,4.8909,4.8909,4.8909,4.8909,4.8909,4.8909,4.8909,4.8909,4.8909,4.8909,4.8909,4.8909,3.5209,0.0,0.0,0.0,0.0,0.0,3.584,3.6604,0.0,0.0,0.0,0.0,0.0,0.0,0.0,0.0,0.0,0.0,0.0,0.0,0.0,0.0,0.0,0.0,0.0,0.0,0.0,0.0,4.5586,4.5586,4.5586,4.5586,4.5586,4.5586,4.5586,4.5586,4.5586,4.5586,4.5586,4.5586,4.5586,4.5586,4.5586,4.5586,4.5586,4.5586,4.5586,4.5586,4.5586,4.5586,4.5586,4.5586,4.5586,4.5586,4.5586,4.5586,4.5586,4.5586,4.5586,4.5586,4.5586,4.5586,4.5586,4.5586,4.5586,4.5586,4.5586,4.5586,4.5586,4.5586,4.5586,4.5586,4.5703,4.6091,4.6455,4.6948,4.7903,4.8226,4.8493,4.9024,4.8993,4.8909,4.8909,4.8909,4.8909,4.8909,4.8909,4.8909,4.8909,4.8909,4.8909,4.8909,4.8909,4.8909,4.8909,4.8909,4.8909,4.8909,4.8909,4.8909,4.8909,4.8909,4.8909,4.8909,4.8909,4.8909,4.8909,4.8909,4.8909,4.8909,4.8909,4.8909,0.0,0.0,0.0,0.0,0.0,0.0,3.5209,3.5878,3.67,0.0,0.0,0.0,0.0,0.0,0.0,0.0,0.0,0.0,0.0,0.0,0.0,0.0,0.0,0.0,0.0,0.0,4.5513,4.5586,4.5605,4.5586,4.5586,4.5586,4.5586,4.5586,4.5586,4.5586,4.5586,4.5586,4.5586,4.5586,4.5586,4.5586,4.5586,4.5586,4.5586,4.5586,4.5586,4.5586,4.5586,4.5586,4.5586,4.5586,4.5586,4.5586,4.5586,4.5586,4.5586,4.5586,4.5586,4.5586,4.5586,4.5586,4.5586,4.5586,4.5586,4.5586,4.5586,4.5586,4.5586,4.5586,4.5586,4.5586,4.555,4.5302,4.5831,4.6496,4.6855,4.7556,4.8352,4.9184,4.9094,4.8909,4.8909,4.8909,4.8909,4.8909,4.8909,4.8909,4.8909,4.8909,4.8909,4.8909,4.8909,4.8909,4.8909,4.8909,4.8909,4.8909,4.8909,4.8909,4.8909,4.8909,4.8909,4.8909,4.8909,4.8909,4.8909,4.8909,4.8909,4.8909,4.8909,4.8909,0.0,0.0,0.0,0.0,0.0,0.0,3.5209,3.5878,3.6547,0.0,0.0,0.0,0.0,0.0,0.0,0.0,0.0,0.0,0.0,0.0,0.0,0.0,0.0,0.0,0.0,0.0,4.5438,4.5513,4.5568,4.5586,4.5586,4.5586,4.5586,4.5586,4.5586,4.5586,4.5586,4.5586,4.5586,4.5586,4.5586,4.5586,4.5586,4.5586,4.5586,4.5586,4.5586,4.5586,4.5586,4.5586,4.5586,4.5586,4.5586,4.5586,4.5586,4.5586,4.5586,4.5586,4.5586,4.5586,4.5586,4.5586,4.5586,4.5586,4.5586,4.5586,4.5586,4.5586,4.5586,4.5586,4.5586,4.5586,4.5586,4.5531,4.5974,4.6542,4.7098,4.7683,4.829,4.8893,4.8925,4.8909,4.8909,4.8909,4.8909,4.8909,4.8909,4.8909,4.8909,4.8909,4.8909,4.8909,4.8909,4.8909,4.8909,4.8909,4.8909,4.8909,4.8909,4.8909,4.8909,4.8909,4.8909,4.8909,4.8909,4.8909,4.8909,4.8909,4.8909,4.8909,4.8909,4.8909,0.0,0.0,0.0,3.5209,0.0,0.0,0.0,3.5553,3.5974,0.0,0.0,0.0,0.0,0.0,0.0,0.0,0.0,0.0,0.0,0.0,0.0,0.0,0.0,0.0,0.0,0.0,4.54,4.5457,4.5495,4.5513,4.555,4.5513,4.5513,4.555,4.5513,4.5513,4.555,4.555,4.5568,4.5586,4.5586,4.5586,4.5586,4.5586,4.5586,4.5586,4.5586,4.5586,4.5586,4.5586,4.5586,4.5586,4.5586,4.5586,4.5586,4.5586,4.5586,4.5586,4.5586,4.5586,4.5586,4.5586,4.5586,4.5586,4.5586,4.5586,4.5586,4.5586,4.5586,4.5586,4.5586,4.5586,4.5628,4.5759,4.6351,4.6973,4.7408,4.8041,4.859,4.885,4.8909,4.8909,4.8909,4.8909,4.8909,4.8909,4.8909,4.8909,4.8909,4.8909,4.8909,4.8909,4.8909,4.8909,4.8909,4.8909,4.8909,4.8909,4.8909,4.8909,4.8909,4.8909,4.8909,4.8909,4.8909,4.8909,4.8909,4.8909,4.8909,4.8909,4.8909,4.8909,0.0,0.0,0.0,0.0,0.0,3.5296,0.0,0.0,0.0,0.0,0.0,0.0,0.0,0.0,0.0,0.0,0.0,0.0,0.0,0.0,0.0,0.0,0.0,0.0,0.0,0.0,4.54,4.54,4.54,4.5438,4.5476,4.5419,4.5419,4.5476,4.5419,4.5419,4.5495,4.5495,4.5513,4.5586,4.5586,4.5586,4.5586,4.5586,4.5586,4.5586,4.5586,4.5586,4.5586,4.5586,4.5586,4.5586,4.5586,4.5586,4.5586,4.5586,4.5586,4.5586,4.5586,4.5586,4.5586,4.5586,4.5586,4.5586,4.555,4.5568,4.5586,4.555,4.5513,4.5513,4.5513,4.561,4.5724,4.5954,4.6751,4.7514,4.7714,4.8367,4.8909,4.8909,4.8909,4.8909,4.8909,4.8909,4.8909,4.8909,4.8909,4.8909,4.8909,4.8909,4.8909,4.8909,4.8909,4.8909,4.8909,4.8909,4.8909,4.8909,4.8909,4.8909,4.8909,4.8909,4.8909,4.8909,4.8909,4.8909,4.8909,4.8909,4.8909,4.8909,4.8909,4.8909,0.0,0.0,0.0,0.0,3.5289,0.0,0.0,0.0,0.0,0.0,0.0,0.0,0.0,0.0,0.0,0.0,0.0,0.0,0.0,0.0,0.0,0.0,0.0,0.0,0.0,0.0,0.0,4.5399,4.5458,4.5476,4.5419,4.54,4.54,4.5419,4.54,4.54,4.5419,4.5419,4.5457,4.5513,4.5513,4.5531,4.5586,4.5586,4.5586,4.5586,4.5586,4.5586,4.5586,4.5586,4.5586,4.5586,4.5586,4.5586,4.5586,4.5586,4.5586,4.5586,4.5586,4.5586,4.5586,4.5586,4.5586,4.5568,4.5322,4.5419,4.555,4.5322,4.5243,4.5243,4.5243,4.5605,4.5968,4.5988,4.7023,4.8025,4.8059,4.8497,4.8909,4.8909,4.8909,4.8909,4.8909,4.8909,4.8909,4.8909,4.8909,4.8909,4.8909,4.8909,4.8909,4.8909,4.8909,4.8909,4.8909,4.8909,4.8909,4.8909,4.8909,4.8909,4.8909,4.8909,4.8909,4.8909,4.8909,4.8909,4.8909,4.8909,4.8909,4.8909,4.8909,4.8909,0.0,0.0,0.0,0.0,0.0,0.0,0.0,0.0,3.5954,0.0,0.0,0.0,0.0,0.0,0.0,0.0,0.0,0.0,0.0,0.0,0.0,0.0,0.0,0.0,0.0,0.0,0.0,0.0,0.0,4.54,4.54,4.536,4.536,4.54,4.536,4.536,4.54,4.54,4.54,4.5438,4.5438,4.54,4.5322,4.5476,4.5476,4.5362,4.5362,4.5362,4.5342,4.5201,4.5137,4.5137,4.5137,4.5322,4.5586,4.5586,4.5586,4.5586,4.5586,4.5586,4.5586,4.5586,4.5586,4.5586,4.5476,4.54,4.5342,4.5222,4.5074,4.5099,4.5532,4.5816,4.6202,4.7023,4.7671,4.8178,4.8492,4.8751,4.8909,4.8909,4.8909,4.8909,4.8909,4.8909,4.8909,4.8909,4.8909,4.8909,4.8909,4.8909,4.8909,4.8909,4.8909,4.8909,4.8909,4.8909,4.8909,4.8909,4.8909,4.8909,4.8909,4.8909,4.8909,4.8909,4.8909,4.8909,4.8909,4.8909,4.8909,4.8909,4.8909,4.8909,3.7932,0.0,0.0,0.0,0.0,0.0,0.0,0.0,0.0,0.0,0.0,0.0,0.0,0.0,0.0,0.0,0.0,0.0,0.0,0.0,0.0,0.0,0.0,0.0,0.0,0.0,0.0,0.0,4.5184,4.5338,4.5359,4.5317,4.5317,4.5359,4.5317,4.5317,4.5359,4.5359,4.538,4.54,4.54,4.5301,4.5074,4.5283,4.5322,4.518,4.5118,4.5118,4.518,4.4896,4.48,4.48,4.48,4.503,4.5362,4.5362,4.5362,4.54,4.5457,4.5495,4.5495,4.5495,4.5438,4.5381,4.5283,4.5201,4.5074,4.4988,4.5019,4.5148,4.5753,4.6164,4.6713,4.7766,4.8172,4.8426,4.8813,4.8909,4.8909,4.8909,4.8909,4.8909,4.8909,4.8909,4.8909,4.8909,4.8909,4.8909,4.8909,4.8909,4.8909,4.8909,4.8909,4.8909,4.8909,4.8909,4.8909,4.8909,4.8909,4.8909,4.8909,4.8909,4.8909,4.8909,4.8909,4.8909,4.8909,4.8909,4.8909,4.8909,4.8909,4.8909,0.0,0.0,0.0,3.7909,0.0,0.0,0.0,0.0,3.7655,0.0,0.0,0.0,0.0,0.0,0.0,4.031,0.0,0.0,0.0,0.0,0.0,0.0,0.0,0.0,0.0,0.0,0.0,4.4055,4.4879,4.5359,4.5317,4.5297,4.5297,4.5297,4.5297,4.5297,4.5297,4.5297,4.5338,4.5398,4.5398,4.5258,4.5007,4.5074,4.5096,4.5096,4.4915,4.4962,4.518,4.4896,4.48,4.48,4.48,4.48,4.4843,4.4843,4.4843,4.4849,4.5118,4.5222,4.5222,4.5222,4.503,4.4776,4.4519,4.4624,4.4751,4.4493,4.4993,4.5566,4.5604,4.6601,4.7661,4.7716,4.8296,4.8872,4.8909,4.8909,4.8909,4.8909,4.8909,4.8909,4.8909,4.8909,4.8909,4.8909,4.8909,4.8909,4.8909,4.8909,4.8909,4.8909,4.8909,4.8909,4.8909,4.8909,4.8909,4.8909,4.8909,4.8909,4.8909,4.8909,4.8909,4.8909,4.8909,4.8909,4.8909,4.8909,4.8909,4.8909,4.8909,4.8909,0.0,0.0,3.8988,3.9492,0.0,0.0,0.0,0.0,0.0,0.0,0.0,0.0,0.0,0.0,4.031,4.031,4.031,0.0,0.0,0.0,0.0,0.0,0.0,0.0,0.0,0.0,0.0,4.3959,4.4304,4.4725,0.0,4.5297,4.5297,4.5297,4.5297,4.5297,4.5297,4.5297,4.5317,4.5338,4.5338,4.5109,4.4676,4.4872,4.48,4.4493,4.4465,4.4519,4.4599,4.4346,4.4279,4.4279,4.4279,4.4279,4.4289,4.465,4.48,4.48,4.4896,4.4938,4.4938,4.4938,4.4872,4.4776,4.4701,4.4976,4.5302,4.5219,4.5683,4.6302,4.6842,4.7355,4.7831,4.837,4.8704,4.8909,4.8909,4.8909,4.8909,4.8909,4.8909,4.8909,4.8909,4.8909,4.8909,4.8909,4.8909,4.8909,4.8909,4.8909,4.8909,4.8909,4.8909,4.8909,4.8909,4.8909,4.8909,4.8909,4.8909,4.8909,4.8909,4.8909,4.8909,4.8909,4.8909,4.8909,4.8909,4.8909,4.8909,4.8909,4.8909,4.8909,4.0489,4.0123,0.0,4.0377,4.0041,0.0,3.9572,0.0,0.0,0.0,0.0,0.0,0.0,0.0,0.0,4.0291,4.0291,4.031,0.0,4.031,0.0,0.0,0.0,0.0,0.0,0.0,4.2466,4.2813,4.3571,4.4204,0.0,0.0,4.5297,4.5297,4.5297,4.5297,4.5297,4.5297,4.5297,4.5297,4.5297,4.5065,4.4624,4.4726,4.4599,4.4289,4.4192,4.4221,4.4289,4.4079,4.4005,4.4005,4.4005,4.4005,4.4048,4.4374,4.4591,4.465,4.465,4.465,4.465,4.465,4.478,4.4963,4.4963,4.5406,4.5915,4.5915,4.6395,4.7051,4.7571,4.7906,4.8259,4.8779,4.8909,4.8909,4.8909,4.8909,4.8909,4.8909,4.8909,4.8909,4.8909,4.8909,4.8909,4.8909,4.8909,4.8909,4.8909,4.8909,4.8909,4.8909,4.8909,4.8909,4.8909,4.8909,4.8909,4.8909,4.8909,4.8909,4.8909,4.8909,4.8909,4.8909,4.8909,4.8909,4.8909,4.8909,4.8909,4.8909,4.8909,4.8909]},{"header":{"parameterUnit":"m.s-1","parameterCategory":1,"la1":30.6,"la2":29.2853,"lo1":-89.7004,"lo2":-87.6739,"dy":0.0162,"dx":0.0183,"nx":112,"ny":82,"refTime":"2024-04-02T00:00:00:Z","depth":0,"parameterNumber":3,"parameterNumberName":"V-component_of_WINDS"},"data":[0.0,0.0,0.0,0.0,0.0,0.0,0.0,0.0,0.0,0.0,0.0,0.0,0.0,0.0,0.0,0.0,0.0,0.0,0.0,0.0,0.0,0.0,0.0,0.0,0.0,0.0,0.0,0.0,0.0,0.0,0.0,0.0,0.0,0.0,0.0,0.0,0.0,0.0,0.0,0.0,0.0,0.0,0.0,0.0,0.0,0.0,0.0,0.0,0.0,0.0,0.0,0.0,0.0,0.0,0.0,0.0,0.0,0.0,0.0,0.0,0.0,0.0,0.0,0.0,0.0,0.0,0.0,0.0,0.0,0.0,0.0,0.0,0.0,0.0,0.0,0.0,0.0,0.0,0.0,0.0,0.0,0.0,0.0,0.0,0.0,0.0,0.0,0.0,0.0,0.0,0.0,-0.9477,-0.9792,-1.0131,-1.0545,-1.0549,-1.0626,-1.0761,0.0,0.0,0.0,0.0,0.0,0.0,0.0,0.0,0.0,0.0,0.0,0.0,0.0,0.0,0.0,0.0,0.0,0.0,0.0,0.0,0.0,0.0,0.0,0.0,0.0,0.0,0.0,0.0,0.0,0.0,0.0,0.0,0.0,0.0,0.0,0.0,0.0,0.0,0.0,0.0,0.0,0.0,0.0,0.0,0.0,0.0,0.0,0.0,0.0,0.0,0.0,0.0,0.0,0.0,0.0,0.0,0.0,0.0,0.0,0.0,0.0,0.0,0.0,0.0,0.0,0.0,0.0,0.0,0.0,0.0,0.0,0.0,0.0,0.0,0.0,0.0,0.0,0.0,0.0,0.0,0.0,0.0,0.0,0.0,0.0,0.0,0.0,0.0,0.0,0.0,0.0,0.0,0.0,0.0,0.0,0.0,0.0,0.0,0.0,0.0,0.0,0.0,0.0,0.0,-0.9037,-0.9514,-0.982,-1.0127,-1.0409,-1.0329,-1.0269,-1.032,0.0,0.0,0.0,0.0,0.0,0.0,0.0,0.0,0.0,0.0,0.0,0.0,0.0,0.0,0.0,0.0,0.0,0.0,0.0,0.0,0.0,0.0,0.0,0.0,0.0,0.0,0.0,0.0,0.0,0.0,0.0,0.0,0.0,0.0,0.0,0.0,0.0,0.0,0.0,0.0,0.0,0.0,0.0,0.0,0.0,0.0,0.0,0.0,0.0,0.0,0.0,0.0,0.0,0.0,0.0,0.0,0.0,0.0,0.0,0.0,0.0,0.0,0.0,0.0,0.0,0.0,0.0,0.0,0.0,0.0,0.0,0.0,0.0,0.0,0.0,0.0,0.0,0.0,0.0,0.0,0.0,0.0,0.0,0.0,0.0,0.0,0.0,0.0,0.0,0.0,0.0,0.0,0.0,0.0,0.0,0.0,0.0,0.0,0.0,0.0,0.0,0.0,0.0,-0.8871,-0.8696,-0.888,-0.9128,-0.9404,-0.9645,-0.9789,-0.9895,-0.9976,-1.0395,0.0,0.0,0.0,0.0,0.0,0.0,0.0,0.0,0.0,0.0,0.0,0.0,0.0,0.0,0.0,0.0,0.0,0.0,0.0,0.0,0.0,0.0,0.0,0.0,0.0,0.0,0.0,0.0,0.0,0.0,0.0,0.0,0.0,0.0,0.0,0.0,0.0,0.0,0.0,0.0,0.0,0.0,0.0,0.0,0.0,0.0,0.0,0.0,0.0,0.0,0.0,0.0,0.0,0.0,0.0,0.0,0.0,0.0,0.0,0.0,0.0,0.0,0.0,0.0,0.0,0.0,0.0,0.0,0.0,0.0,0.0,0.0,0.0,0.0,0.0,0.0,0.0,0.0,0.0,0.0,0.0,0.0,0.0,0.0,0.0,0.0,0.0,0.0,0.0,0.0,0.0,0.0,0.0,0.0,0.0,0.0,0.0,0.0,0.0,0.0,0.0,0.0,-0.8764,-0.8508,-0.8516,-0.8597,-0.8795,-0.8985,-0.9354,-0.967,-0.9738,-1.0244,0.0,0.0,0.0,0.0,0.0,0.0,0.0,0.0,0.0,0.0,0.0,0.0,0.0,0.0,0.0,0.0,0.0,0.0,0.0,0.0,0.0,0.0,0.0,0.0,0.0,0.0,0.0,0.0,0.0,0.0,0.0,0.0,0.0,0.0,0.0,0.0,0.0,0.0,0.0,0.0,0.0,0.0,0.0,0.0,0.0,0.0,0.0,0.0,0.0,0.0,0.0,0.0,0.0,0.0,0.0,0.0,0.0,0.0,0.0,0.0,0.0,0.0,0.0,0.0,0.0,0.0,0.0,0.0,0.0,0.0,0.0,0.0,0.0,0.0,0.0,0.0,0.0,0.0,0.0,0.0,0.0,0.0,0.0,0.0,0.0,0.0,0.0,0.0,0.0,0.0,0.0,0.0,0.0,0.0,0.0,0.0,0.0,0.0,0.0,0.0,0.0,0.0,-0.8447,-0.8534,-0.9023,-0.8813,-0.8824,-0.9053,-0.9418,-0.9597,-0.9631,-1.0166,0.0,0.0,0.0,0.0,0.0,0.0,0.0,0.0,0.0,0.0,0.0,0.0,0.0,0.0,0.0,0.0,0.0,0.0,0.0,0.0,0.0,0.0,0.0,0.0,0.0,0.0,0.0,0.0,0.0,0.0,0.0,0.0,0.0,0.0,0.0,0.0,0.0,0.0,0.0,0.0,0.0,0.0,0.0,0.0,0.0,0.0,0.0,0.0,0.0,0.0,0.0,0.0,0.0,0.0,0.0,0.0,0.0,0.0,0.0,0.0,0.0,0.0,0.0,0.0,0.0,0.0,0.0,0.0,0.0,0.0,0.0,0.0,0.0,0.0,0.0,0.0,0.0,0.0,0.0,0.0,0.0,0.0,0.0,0.0,0.0,0.0,0.0,0.0,0.0,0.0,0.0,0.0,0.0,0.0,0.0,0.0,0.0,0.0,0.0,0.0,0.0,0.0,-0.8689,-0.8849,0.0,-0.9136,-0.9148,-0.9132,-0.9323,-0.9482,-0.9625,0.0,0.0,0.0,0.0,0.0,0.0,0.0,0.0,0.0,0.0,0.0,0.0,0.0,0.0,0.0,0.0,0.0,0.0,0.0,0.0,0.0,0.0,0.0,0.0,0.0,0.0,0.0,0.0,0.0,0.0,0.0,0.0,0.0,0.0,0.0,0.0,0.0,0.0,0.0,0.0,0.0,0.0,0.0,0.0,0.0,0.0,0.0,0.0,0.0,0.0,0.0,0.0,0.0,0.0,0.0,0.0,0.0,0.0,0.0,0.0,0.0,0.0,0.0,0.0,0.0,0.0,0.0,0.0,0.0,0.0,0.0,0.0,0.0,0.0,0.0,0.0,0.0,0.0,0.0,0.0,0.0,0.0,0.0,0.0,0.0,0.0,0.0,0.0,0.0,0.0,0.0,0.0,0.0,0.0,0.0,0.0,0.0,0.0,0.0,0.0,0.0,0.0,-0.8749,-0.8962,-0.9162,0.0,-0.937,-0.9406,-0.9214,-0.9379,-0.9518,-0.9554,0.0,0.0,0.0,0.0,0.0,0.0,0.0,0.0,0.0,0.0,0.0,0.0,0.0,0.0,0.0,0.0,0.0,0.0,0.0,0.0,0.0,0.0,0.0,0.0,0.0,0.0,0.0,0.0,0.0,0.0,0.0,0.0,0.0,0.0,0.0,0.0,0.0,0.0,0.0,0.0,0.0,0.0,0.0,0.0,0.0,0.0,0.0,0.0,0.0,0.0,0.0,0.0,0.0,0.0,0.0,0.0,0.0,0.0,0.0,0.0,0.0,0.0,0.0,0.0,0.0,0.0,0.0,0.0,0.0,0.0,0.0,0.0,0.0,0.0,0.0,0.0,0.0,0.0,0.0,0.0,0.0,0.0,0.0,0.0,0.0,0.0,0.0,0.0,0.0,0.0,0.0,0.0,0.0,0.0,0.0,0.0,0.0,0.0,0.0,0.0,0.0,0.0,-0.9059,-0.9132,-0.9178,-0.9454,-0.9484,-0.9484,-0.9484,-0.9668,-0.9693,0.0,0.0,0.0,0.0,0.0,0.0,0.0,0.0,0.0,0.0,0.0,0.0,0.0,0.0,0.0,0.0,0.0,0.0,0.0,0.0,0.0,0.0,0.0,0.0,0.0,0.0,0.0,0.0,0.0,0.0,0.0,0.0,0.0,0.0,0.0,0.0,0.0,0.0,0.0,0.0,0.0,0.0,0.0,0.0,0.0,0.0,0.0,0.0,0.0,0.0,0.0,0.0,0.0,0.0,0.0,0.0,0.0,0.0,0.0,0.0,0.0,0.0,0.0,0.0,0.0,0.0,0.0,0.0,0.0,0.0,0.0,0.0,0.0,0.0,0.0,0.0,0.0,0.0,0.0,0.0,0.0,0.0,0.0,0.0,0.0,0.0,0.0,0.0,0.0,0.0,0.0,0.0,0.0,0.0,0.0,0.0,0.0,0.0,0.0,0.0,0.0,0.0,0.0,-0.9108,-0.9238,-0.9394,-0.9472,-0.9484,-0.9484,-0.9484,-0.9351,-0.9407,-0.9693,0.0,0.0,0.0,0.0,0.0,0.0,0.0,0.0,0.0,0.0,0.0,0.0,0.0,0.0,0.0,0.0,0.0,0.0,0.0,0.0,0.0,0.0,0.0,0.0,0.0,0.0,0.0,0.0,0.0,0.0,0.0,0.0,0.0,0.0,0.0,0.0,0.0,0.0,0.0,0.0,0.0,0.0,0.0,0.0,0.0,0.0,0.0,0.0,0.0,0.0,0.0,0.0,0.0,0.0,0.0,0.0,0.0,0.0,0.0,0.0,0.0,0.0,0.0,0.0,0.0,0.0,0.0,0.0,0.0,0.0,0.0,0.0,0.0,0.0,0.0,0.0,0.0,0.0,0.0,0.0,0.0,0.0,0.0,0.0,0.0,0.0,0.0,0.0,0.0,0.0,0.0,0.0,0.0,0.0,0.0,0.0,0.0,0.0,0.0,0.0,0.0,0.0,-0.9214,-0.9382,-0.9484,-0.9484,-0.9484,-0.9484,-0.9484,-0.9328,-0.9314,-0.9511,0.0,0.0,0.0,0.0,0.0,0.0,0.0,0.0,0.0,0.0,0.0,0.0,0.0,0.0,0.0,0.0,0.0,0.0,0.0,0.0,0.0,0.0,0.0,0.0,0.0,0.0,0.0,0.0,0.0,0.0,0.0,0.0,0.0,0.0,0.0,0.0,0.0,0.0,0.0,0.0,0.0,0.0,0.0,0.0,0.0,0.0,0.0,0.0,0.0,0.0,0.0,0.0,0.0,0.0,0.0,0.0,0.0,0.0,0.0,0.0,0.0,0.0,0.0,0.0,0.0,0.0,0.0,0.0,0.0,0.0,0.0,0.0,0.0,0.0,0.0,0.0,0.0,0.0,0.0,0.0,0.0,0.0,0.0,0.0,0.0,0.0,0.0,0.0,0.0,0.0,0.0,0.0,0.0,0.0,0.0,0.0,0.0,0.0,0.0,0.0,0.0,0.0,-0.9454,-0.9484,-0.9484,-0.9484,-0.9484,-0.9484,-0.9484,-0.9484,-0.9376,-0.918,0.0,0.0,0.0,0.0,0.0,0.0,0.0,0.0,0.0,0.0,0.0,0.0,0.0,0.0,0.0,0.0,0.0,0.0,0.0,0.0,0.0,0.0,0.0,0.0,0.0,0.0,0.0,0.0,0.0,0.0,0.0,0.0,0.0,0.0,0.0,0.0,0.0,0.0,0.0,0.0,0.0,0.0,0.0,0.0,0.0,0.0,0.0,0.0,0.0,0.0,0.0,0.0,0.0,0.0,0.0,0.0,0.0,0.0,0.0,0.0,-0.6188,0.0,0.0,0.0,0.0,0.0,0.0,0.0,0.0,0.0,0.0,0.0,0.0,0.0,0.0,0.0,0.0,0.0,0.0,0.0,0.0,0.0,0.0,0.0,0.0,0.0,0.0,0.0,0.0,0.0,0.0,0.0,0.0,0.0,0.0,0.0,0.0,0.0,0.0,0.0,0.0,0.0,-0.9478,-0.9484,-0.9484,-0.9484,-0.9484,-0.9484,-0.9484,-0.9484,-0.946,-0.9394,0.0,0.0,0.0,0.0,0.0,0.0,0.0,0.0,0.0,0.0,0.0,0.0,0.0,0.0,0.0,0.0,0.0,0.0,0.0,0.0,0.0,0.0,0.0,0.0,0.0,0.0,0.0,0.0,0.0,0.0,0.0,0.0,0.0,0.0,0.0,0.0,0.0,0.0,0.0,0.0,0.0,0.0,0.0,0.0,0.0,0.0,0.0,0.0,0.0,0.0,0.0,0.0,0.0,0.0,0.0,0.0,0.0,0.0,0.0,0.0,0.0,-0.6274,0.0,0.0,0.0,0.0,0.0,0.0,0.0,0.0,0.0,0.0,0.0,0.0,0.0,0.0,0.0,0.0,0.0,0.0,0.0,0.0,0.0,0.0,0.0,0.0,0.0,0.0,0.0,0.0,0.0,0.0,0.0,0.0,0.0,0.0,0.0,0.0,0.0,0.0,0.0,0.0,-0.9484,-0.9484,-0.9484,-0.9484,-0.9484,-0.9484,-0.9484,-0.9484,-0.9484,-0.9484,-0.96,0.0,0.0,0.0,0.0,0.0,0.0,0.0,0.0,0.0,0.0,0.0,0.0,0.0,0.0,0.0,0.0,0.0,0.0,0.0,0.0,0.0,0.0,0.0,0.0,0.0,0.0,0.0,0.0,0.0,0.0,0.0,0.0,0.0,0.0,0.0,0.0,0.0,0.0,0.0,0.0,0.0,0.0,0.0,0.0,0.0,0.0,0.0,0.0,0.0,0.0,0.0,0.0,0.0,-0.5837,-0.5802,-0.5802,-0.5802,-0.5498,-0.5137,-0.6117,-0.6227,-0.5687,0.0,0.0,0.0,0.0,0.0,0.0,0.0,0.0,0.0,0.0,0.0,0.0,0.0,0.0,0.0,0.0,0.0,0.0,0.0,0.0,0.0,0.0,0.0,0.0,0.0,-0.908,-0.9089,0.0,0.0,0.0,0.0,0.0,0.0,0.0,0.0,0.0,0.0,0.0,0.0,-0.9622,-0.9622,-0.9622,-0.9622,-0.9622,-0.9622,-0.9622,-0.9622,-0.9622,-0.9622,-0.9284,-0.9371,0.0,0.0,0.0,0.0,0.0,0.0,0.0,0.0,0.0,0.0,0.0,0.0,0.0,0.0,0.0,0.0,0.0,0.0,0.0,0.0,0.0,0.0,0.0,0.0,0.0,0.0,0.0,0.0,0.0,0.0,0.0,0.0,-0.4721,-0.4721,0.0,0.0,0.0,0.0,0.0,0.0,0.0,0.0,0.0,0.0,0.0,0.0,0.0,0.0,-0.5687,-0.5424,-0.5629,-0.6147,-0.5899,-0.5821,-0.5821,-0.5821,-0.5755,-0.5684,-0.5821,0.0,-0.5036,-0.5097,0.0,0.0,0.0,0.0,0.0,0.0,0.0,0.0,0.0,0.0,0.0,0.0,0.0,0.0,0.0,0.0,0.0,0.0,0.0,0.0,0.0,0.0,-0.8186,-0.8912,-0.9124,-0.9256,0.0,-0.9874,-0.979,-1.0121,0.0,0.0,0.0,0.0,0.0,0.0,0.0,0.0,-1.0155,-1.0155,-1.0155,-1.0155,-1.0155,-1.0155,-1.0155,-1.0155,-1.0155,-1.0155,-0.9811,-0.9621,-0.9725,-0.8927,0.0,0.0,0.0,0.0,0.0,0.0,0.0,0.0,0.0,0.0,0.0,0.0,0.0,0.0,0.0,0.0,0.0,0.0,0.0,0.0,0.0,0.0,0.0,0.0,0.0,0.0,0.0,0.0,0.0,-0.4819,-0.4819,-0.4819,-0.4877,-0.4952,0.0,0.0,0.0,0.0,0.0,0.0,0.0,0.0,0.0,-0.5298,-0.5372,-0.5547,-0.5807,-0.5675,-0.5745,-0.5953,-0.588,-0.58,-0.58,-0.58,-0.58,-0.58,-0.58,-0.5654,-0.5406,-0.5193,-0.511,-0.497,0.0,0.0,0.0,0.0,0.0,-0.4698,-0.4632,-0.4746,0.0,0.0,0.0,0.0,0.0,0.0,0.0,0.0,0.0,0.0,0.0,0.0,0.0,-0.8915,-0.9125,-0.9373,-1.0302,-1.0459,-1.0369,0.0,-1.0327,-1.0327,-1.0327,0.0,0.0,0.0,0.0,0.0,-1.0327,-1.0327,-1.0327,-1.0327,-1.0327,-1.0327,-1.0327,-1.0327,-1.0188,-0.9985,-0.9631,-0.9336,-0.9257,-0.8639,-0.8497,0.0,0.0,0.0,0.0,0.0,0.0,0.0,0.0,0.0,0.0,0.0,0.0,0.0,0.0,0.0,0.0,0.0,0.0,0.0,0.0,0.0,0.0,0.0,0.0,0.0,0.0,0.0,0.0,-0.4952,-0.4972,-0.4972,-0.5006,-0.5074,0.0,0.0,0.0,0.0,0.0,0.0,-0.5474,-0.5583,-0.5644,-0.5644,-0.5745,-0.58,-0.58,-0.584,-0.5861,-0.5861,-0.5901,-0.5918,-0.5918,-0.5918,-0.5918,-0.5918,-0.5918,-0.5898,-0.5847,-0.5486,-0.5296,-0.52,-0.4999,-0.4931,-0.4863,-0.4866,-0.4861,-0.4944,-0.4731,-0.4793,-0.4942,-0.5509,0.0,-0.6076,-0.644,0.0,0.0,0.0,0.0,-0.7292,-0.7149,-0.7254,-0.7577,-0.8519,-0.8878,-0.9288,-1.0266,-1.0676,-1.0761,0.0,-1.0526,-1.0526,-1.0526,0.0,0.0,0.0,0.0,-1.0526,-1.0526,-1.0526,-1.0526,-1.0526,-1.0526,-1.0526,-1.0526,-1.0526,-1.032,-0.9893,-0.9603,-0.9248,-0.898,-0.8539,-0.8311,-0.8477,0.0,0.0,0.0,0.0,0.0,0.0,0.0,0.0,0.0,0.0,0.0,0.0,0.0,0.0,0.0,0.0,0.0,0.0,0.0,0.0,0.0,0.0,0.0,0.0,0.0,0.0,0.0,0.0,0.0,-0.5121,-0.525,0.0,0.0,0.0,0.0,-0.5566,-0.5579,-0.5637,-0.5772,-0.5786,-0.5789,-0.5789,-0.5796,-0.58,-0.58,-0.5945,-0.6017,-0.602,-0.6166,-0.6237,-0.6237,-0.6237,-0.6237,-0.6237,-0.6237,-0.6156,-0.5932,-0.5643,-0.5506,-0.5428,-0.5278,-0.5206,-0.5135,-0.4997,-0.4931,-0.4865,-0.4718,-0.472,-0.4726,-0.4726,-0.5294,-0.6004,-0.6008,-0.6643,0.0,0.0,-0.6404,-0.6445,-0.5932,-0.5891,-0.63,-0.7298,-0.8138,-0.8978,-0.9744,-1.0571,-1.1087,0.0,-1.1069,-1.1069,-1.1069,0.0,-1.1069,-1.1069,-1.1069,-1.1069,-1.1069,-1.1069,-1.1069,-1.1069,-1.1069,-1.1069,-1.1069,-1.1069,-1.0926,-1.0479,-1.0104,-0.9664,-0.9306,-0.8908,-0.8675,-0.8685,-0.8491,0.0,0.0,0.0,0.0,0.0,0.0,0.0,0.0,0.0,0.0,0.0,0.0,0.0,0.0,0.0,0.0,0.0,0.0,0.0,0.0,0.0,0.0,0.0,0.0,0.0,0.0,0.0,0.0,-0.5416,-0.5474,0.0,0.0,-0.5644,-0.5667,-0.5722,-0.5725,-0.5749,-0.5796,-0.5895,-0.5949,-0.5949,-0.6044,-0.6098,-0.6098,-0.6152,-0.6179,-0.6179,-0.6234,-0.6338,-0.6338,-0.6338,-0.6338,-0.6338,-0.6338,-0.623,-0.6173,-0.5888,-0.5609,-0.53,-0.5159,-0.5015,-0.4867,-0.4798,-0.4776,-0.4845,-0.477,-0.4819,-0.4887,-0.4887,-0.5112,-0.5336,-0.5336,-0.556,-0.5783,-0.5487,-0.5594,-0.5704,-0.5478,-0.5594,-0.5941,-0.6865,-0.7629,-0.8318,-0.9155,-0.9836,-1.0293,-1.0293,-1.0519,-1.0738,-1.0738,-1.0738,-1.0738,-1.0738,-1.0962,-1.1037,-1.0738,-1.0962,-1.1037,-1.0738,-1.0962,-1.1111,-1.1111,-1.0887,-1.0519,-1.0143,-0.9771,-0.9316,-0.8932,-0.878,-0.8703,-0.8703,-0.8633,-0.8533,0.0,0.0,0.0,0.0,0.0,0.0,0.0,0.0,0.0,0.0,0.0,0.0,0.0,0.0,0.0,0.0,0.0,0.0,0.0,0.0,0.0,0.0,0.0,0.0,0.0,0.0,-0.5549,-0.565,-0.5661,-0.5698,-0.5793,-0.58,-0.5823,-0.5874,-0.5878,-0.5901,-0.5952,-0.6051,-0.6108,-0.6108,-0.6207,-0.6338,-0.6338,-0.6338,-0.6338,-0.6338,-0.6338,-0.6338,-0.6338,-0.6338,-0.6338,-0.6338,-0.6338,-0.6338,-0.6261,-0.6018,-0.5676,-0.5291,-0.5146,-0.4998,-0.4776,-0.4776,-0.4828,-0.4896,-0.4896,-0.495,-0.5018,-0.5018,-0.5018,-0.5018,-0.5018,-0.5018,-0.5018,-0.5018,-0.5093,-0.5246,-0.5243,-0.5401,-0.5634,-0.6328,-0.7173,-0.7859,-0.8237,-0.9003,-0.9539,-0.9306,-0.9836,-1.0212,-1.0062,-0.9981,-1.0062,-1.0207,-1.0282,-1.0432,-1.0513,-1.0588,-1.0588,-1.0293,-1.0519,-1.0663,-1.0663,-1.0588,-1.0293,-0.9695,-0.9549,-0.9241,-0.8703,-0.8703,-0.8703,-0.8703,-0.8703,-0.8637,-0.85,0.0,0.0,0.0,0.0,0.0,0.0,0.0,0.0,0.0,0.0,0.0,0.0,0.0,0.0,0.0,0.0,0.0,0.0,0.0,0.0,0.0,0.0,0.0,-0.5616,-0.5715,-0.5803,-0.581,-0.581,-0.581,-0.5817,-0.5817,-0.5878,-0.6027,-0.6037,-0.6105,-0.6257,-0.6268,-0.6271,-0.6274,-0.6274,-0.6274,-0.6274,-0.6274,-0.6274,-0.6274,-0.6274,-0.6274,-0.6274,-0.6274,-0.6274,-0.6274,-0.6274,-0.6274,-0.6274,-0.6035,-0.5802,-0.5572,-0.5401,-0.5168,-0.5018,-0.5018,-0.5018,-0.5018,-0.5018,-0.5018,-0.5018,-0.5018,-0.5018,-0.5018,-0.5018,-0.5018,-0.5018,-0.5018,-0.5018,-0.5015,-0.5243,-0.5321,-0.5321,-0.5559,-0.671,-0.7553,-0.7015,-0.7931,-0.877,-0.8156,-0.8998,-0.9614,-0.9079,-0.8922,-0.9074,-0.9523,-0.9226,0.0,-1.0368,-1.0143,-0.9922,-0.9846,-0.9922,-0.9922,-0.9922,-1.0293,-1.0143,-0.9322,-0.962,-0.9539,-0.8699,-0.8703,-0.8703,-0.8703,-0.8703,-0.8703,-0.8703,0.0,0.0,0.0,0.0,0.0,0.0,0.0,0.0,0.0,0.0,0.0,0.0,0.0,0.0,0.0,0.0,0.0,0.0,0.0,0.0,0.0,0.0,-0.5692,-0.5762,-0.5776,-0.584,-0.5956,-0.5966,-0.601,-0.6122,-0.6135,-0.6152,-0.6193,-0.6196,-0.6261,-0.6407,-0.6413,-0.6464,-0.6576,-0.658,-0.658,-0.658,-0.658,-0.658,-0.658,-0.658,-0.658,-0.658,-0.658,-0.658,-0.658,-0.658,-0.658,-0.658,-0.6335,-0.6091,-0.5825,-0.5471,-0.5168,-0.5018,-0.5018,-0.5018,-0.5018,-0.5018,-0.5018,-0.5018,-0.5018,-0.5018,-0.5018,-0.5018,-0.5018,-0.5018,-0.5018,-0.5018,-0.5018,-0.5093,-0.5093,-0.5093,-0.5171,-0.5786,-0.6402,-0.6247,-0.6861,-0.7395,-0.7246,-0.7476,-0.7778,-0.7923,-0.7923,-0.8075,-0.8685,-0.8917,0.0,-0.9544,-0.9771,-0.9771,-0.9468,-0.9992,-1.0218,-0.9916,-0.9997,-0.9846,0.0,-0.9165,-0.8927,-0.8703,-0.8703,-0.8703,-0.8703,-0.8703,-0.8703,0.0,0.0,0.0,0.0,0.0,0.0,0.0,0.0,0.0,0.0,0.0,0.0,0.0,0.0,0.0,0.0,0.0,0.0,0.0,0.0,0.0,0.0,-0.5124,-0.533,-0.5777,-0.5919,-0.5874,-0.5578,-0.5588,-0.5466,-0.5309,-0.5286,-0.5398,-0.5798,-0.5848,-0.6074,-0.6563,-0.6566,-0.661,-0.6698,-0.6702,-0.6702,-0.6702,-0.6702,-0.6702,-0.6702,-0.6702,-0.6702,-0.6702,-0.6702,-0.6702,0.0,-0.6702,-0.6619,-0.6536,-0.6287,-0.6037,0.0,0.0,0.0,0.0,0.0,-0.5165,-0.5165,-0.5165,-0.5165,-0.5165,-0.5165,-0.5165,-0.5165,-0.5165,-0.5165,-0.5165,-0.5165,-0.5165,-0.5165,-0.5165,-0.5165,-0.5165,-0.5165,-0.5639,-0.6035,-0.5719,-0.6195,-0.6589,-0.6354,0.0,0.0,-0.6979,-0.6943,-0.7007,-0.7536,-0.7927,-0.8237,-0.8546,-0.9079,-0.9236,-0.8703,-0.9311,-0.9685,-0.9387,-0.9544,0.0,0.0,0.0,-0.8856,-0.8703,-0.8703,0.0,0.0,0.0,-0.8703,-0.8703,0.0,0.0,0.0,-0.9268,-0.9343,0.0,0.0,0.0,0.0,0.0,0.0,0.0,0.0,0.0,0.0,0.0,0.0,0.0,0.0,0.0,0.0,-0.463,-0.4618,-0.547,-0.5864,-0.5786,-0.5082,-0.4937,-0.4553,-0.3847,-0.377,-0.4146,-0.4963,-0.5133,-0.5529,-0.6389,0.0,0.0,0.0,0.0,-0.6666,-0.6582,-0.6666,-0.6749,-0.6749,-0.6749,-0.6749,-0.6749,-0.6749,-0.6749,-0.6749,-0.6749,-0.6585,-0.6338,-0.608,-0.5916,-0.5664,-0.5635,-0.5538,-0.5368,-0.5368,-0.5368,0.0,-0.5368,0.0,0.0,-0.5368,-0.5368,-0.5368,-0.5368,-0.5368,-0.5368,-0.5368,-0.5368,-0.5368,-0.5368,-0.5368,-0.5368,-0.5368,-0.5782,-0.6028,-0.5535,-0.5782,-0.6028,-0.5535,-0.5368,-0.5618,-0.6194,-0.6074,-0.6139,-0.6673,-0.6913,-0.7223,-0.7679,-0.8286,-0.8507,-0.797,0.0,0.0,-0.8703,-0.9089,-0.9094,-0.8703,-0.9013,-0.9089,-0.8703,-0.8703,-0.8703,-0.8703,-0.8703,-0.8703,-0.8703,-0.8703,-0.8703,-0.8703,-0.9463,-0.9387,0.0,0.0,0.0,0.0,0.0,0.0,0.0,0.0,0.0,0.0,0.0,0.0,0.0,0.0,0.0,-0.5002,-0.4384,-0.3837,-0.3513,-0.3906,-0.4457,-0.4924,-0.4453,-0.3943,-0.3782,-0.3781,-0.3914,-0.408,-0.4095,-0.4223,-0.4558,-0.5333,0.0,-0.4761,-0.6262,-0.6618,-0.5914,-0.6618,-0.7054,-0.7054,0.0,0.0,-0.7054,-0.7054,-0.7054,-0.7054,-0.6883,-0.6711,-0.6711,-0.6271,-0.5926,-0.5646,-0.5532,-0.5455,-0.5368,-0.5368,-0.5368,-0.5368,-0.5368,-0.5368,-0.5368,-0.5368,-0.5368,-0.5368,-0.5368,-0.5368,0.0,-0.5368,-0.5368,-0.5368,-0.5368,-0.5368,-0.5368,-0.5368,-0.5452,-0.5535,-0.5452,-0.5452,-0.5535,-0.5452,-0.5368,-0.5452,-0.5535,-0.5985,-0.6685,-0.7821,-0.8069,-0.8312,-0.8877,-0.8983,-0.8885,-0.8802,-0.9043,-0.9089,-0.8703,-0.9089,-0.9094,-0.8703,-0.878,-0.878,-0.8703,-0.8703,-0.8703,-0.8703,-0.8703,-0.8703,-0.8703,-0.8703,-0.8703,-0.8703,-0.8856,-0.8851,0.0,0.0,0.0,0.0,0.0,0.0,0.0,0.0,0.0,0.0,0.0,-0.4632,0.0,0.0,-0.2743,-0.361,-0.3374,-0.3056,-0.2735,-0.2582,-0.283,-0.3736,-0.3458,-0.3013,-0.2557,-0.2612,-0.2815,-0.3241,-0.3359,-0.3571,-0.4134,-0.4662,-0.4682,-0.4287,-0.5179,-0.5447,-0.5003,-0.5894,-0.6428,-0.6428,-0.6874,-0.7139,-0.7139,-0.7139,-0.7054,-0.6966,-0.6884,-0.6707,-0.6441,-0.6086,-0.5822,-0.5722,-0.56,-0.5551,-0.5551,-0.5551,-0.5551,-0.5551,-0.5551,-0.5551,-0.5551,-0.5551,-0.5551,-0.5551,-0.5551,-0.5551,-0.5551,-0.5551,-0.5551,-0.5551,-0.5551,-0.5551,-0.5551,-0.5551,-0.5551,-0.5551,-0.5551,-0.5551,-0.5551,-0.5551,-0.5551,-0.5637,-0.6058,-0.6398,-0.6691,-0.6878,-0.7432,-0.7761,-0.7432,-0.8093,-0.8362,-0.7716,-0.8032,-0.8177,-0.7852,-0.7992,-0.8169,-0.8241,-0.8241,-0.8394,-0.8699,-0.8703,-0.8703,-0.8703,-0.8703,-0.8703,-0.8703,-0.8703,-0.8703,-0.8703,-0.8703,-0.8703,0.0,0.0,0.0,0.0,0.0,0.0,0.0,0.0,-0.4974,-0.4966,-0.4969,-0.4961,-0.5026,-0.2271,-0.047,-0.1801,-0.2037,-0.2117,-0.2429,-0.1812,-0.1596,-0.2281,-0.2368,-0.2062,-0.1353,-0.1382,-0.1747,-0.2446,-0.2573,-0.2955,-0.3666,-0.3933,-0.3941,-0.3778,-0.4135,-0.4234,-0.4072,-0.4975,-0.5417,-0.5394,-0.6198,-0.6631,-0.6697,-0.6697,-0.6789,-0.6795,-0.6707,-0.6441,-0.5994,-0.5822,-0.5733,-0.5733,-0.5733,-0.5733,-0.5733,-0.5733,-0.5733,-0.5733,-0.5733,-0.5733,-0.5733,-0.5733,-0.5733,-0.5733,-0.5733,-0.5733,-0.5733,-0.5733,-0.5733,-0.5733,-0.5733,-0.5733,-0.5733,-0.5733,-0.5733,-0.5733,-0.5733,-0.5733,-0.5733,-0.5733,-0.5733,-0.5908,-0.652,-0.6605,-0.6443,-0.5972,-0.6776,-0.7108,-0.6024,-0.7166,-0.7725,-0.6649,-0.695,-0.7129,-0.7086,-0.6953,-0.7188,-0.7655,-0.7777,-0.8069,-0.8535,-0.8646,-0.8703,-0.8703,-0.8703,-0.8703,-0.8703,-0.8703,-0.8722,-0.8765,-0.8765,-0.8741,0.0,0.0,0.0,0.0,0.0,-0.0076,0.0,0.0,-0.5023,-0.5012,-0.5029,-0.4967,-0.4964,-0.2277,-0.0079,-0.0235,-0.0314,-0.0785,-0.228,-0.1841,-0.1309,-0.1422,-0.1426,-0.1438,-0.1382,-0.1412,-0.143,-0.1519,-0.1522,-0.1614,-0.1704,-0.2598,-0.2711,-0.1842,-0.3402,-0.3894,-0.3122,-0.4062,-0.4489,-0.4499,-0.4591,-0.4915,-0.5458,-0.5458,-0.5908,-0.6716,-0.6352,-0.5997,-0.5733,-0.5733,-0.5733,-0.5733,-0.5733,-0.5733,-0.5733,-0.5733,-0.5733,-0.5733,-0.5733,-0.5733,-0.5733,-0.5733,-0.5733,-0.5733,-0.5733,-0.5733,-0.5733,-0.5733,-0.5733,-0.5733,-0.5733,-0.5733,-0.5733,-0.5733,-0.5733,-0.5733,-0.5733,-0.5733,-0.5733,-0.5733,-0.5733,-0.5733,-0.5822,-0.5822,-0.6248,-0.7348,-0.769,-0.769,-0.7516,-0.7569,-0.7569,-0.7399,-0.7264,-0.717,-0.7151,-0.7137,-0.7208,-0.7289,-0.7721,-0.8036,-0.8115,-0.849,-0.8703,-0.8703,-0.8703,-0.8703,-0.8703,-0.8703,-0.8803,-0.8987,-0.8987,-0.8883,0.0,0.0,0.0,0.0,0.0,0.0,0.0,-0.1097,-0.2352,-0.3368,-0.4323,-0.4967,-0.4967,-0.2277,0.0,0.0,0.0,-0.0236,-0.0943,-0.0962,-0.1067,-0.1344,-0.1363,-0.1384,-0.1413,-0.1428,-0.1436,-0.1436,-0.1436,-0.1443,-0.1461,-0.1827,-0.1936,-0.1506,-0.2257,-0.2455,-0.2097,-0.3141,-0.36,-0.3571,-0.4414,-0.505,-0.5196,-0.4541,-0.5069,-0.6491,-0.6028,-0.5803,-0.5741,-0.5741,-0.5738,-0.5733,-0.5733,-0.5733,-0.5733,-0.5733,-0.5733,-0.5733,-0.5733,-0.5733,-0.5733,-0.5733,-0.5733,-0.5733,-0.5733,-0.5733,-0.5733,-0.5733,-0.5733,-0.5733,-0.5733,-0.5733,-0.5733,-0.5733,-0.5733,-0.5733,-0.5733,-0.5733,-0.5733,-0.5733,-0.5733,-0.5733,-0.5733,-0.5733,-0.5908,-0.6523,-0.6956,-0.7044,-0.6609,-0.6906,-0.6954,-0.6527,-0.6313,-0.6229,-0.6229,-0.6155,-0.6274,-0.6685,-0.6876,-0.733,-0.8141,-0.8386,-0.8661,-0.9063,-0.9063,-0.9063,-0.9063,-0.9063,-0.911,-0.92,-0.92,-0.9148,0.0,0.0,0.0,0.0,0.0,0.0,0.0,0.0,-0.0313,-0.1566,-0.2746,-0.3618,-0.3618,-0.1649,0.0,0.0,0.0,0.0,0.0,-0.0405,-0.0912,-0.1356,-0.1385,-0.1411,-0.1433,-0.1436,-0.1436,-0.1436,-0.1443,-0.1457,-0.148,-0.1489,-0.1507,-0.1538,-0.1538,-0.1543,-0.1551,-0.2229,-0.2608,-0.2594,-0.3743,-0.421,-0.3996,-0.304,-0.3394,-0.4665,-0.4851,-0.4901,-0.4926,-0.5569,-0.5748,-0.5743,-0.5831,-0.5831,-0.5831,-0.5831,-0.579,-0.5733,-0.5733,-0.5733,-0.5733,-0.5733,-0.5733,-0.5733,-0.5733,-0.5733,-0.5733,-0.5733,-0.5733,-0.5733,-0.5733,-0.5733,-0.5733,-0.5733,-0.5733,-0.5733,-0.5733,-0.5733,-0.5733,-0.5733,-0.5733,-0.5733,-0.5733,-0.5733,-0.5733,-0.5733,-0.6171,-0.6346,-0.5733,-0.6169,-0.6257,-0.5733,-0.5654,-0.5515,-0.5515,-0.5521,-0.5639,-0.6141,-0.6441,-0.7083,-0.8081,-0.8362,-0.8828,-0.9322,-0.9322,-0.9322,-0.9322,-0.9322,-0.9356,-0.9412,-0.9412,-0.9445,0.0,0.0,0.0,0.0,0.0,0.0,0.0,0.0,-0.0,-0.0079,-0.0079,-0.0157,-0.0157,-0.0079,0.0,0.0,0.0,0.0,0.0,-0.0415,-0.0848,-0.1302,-0.1416,-0.1434,0.0,-0.1436,-0.1436,-0.1436,-0.1463,-0.148,-0.148,-0.1508,-0.1538,-0.1569,-0.157,-0.1584,-0.1613,-0.1614,-0.1599,-0.1668,-0.1668,-0.136,-0.0858,-0.0285,-0.0095,-0.0285,-0.2184,-0.2943,-0.3132,-0.5131,-0.5992,-0.5992,-0.6078,-0.6075,-0.6075,-0.6075,-0.5931,-0.5733,-0.5733,-0.5733,-0.5733,-0.5733,-0.5733,-0.5733,-0.5733,-0.5733,-0.5733,-0.5733,-0.5733,-0.5733,-0.5733,-0.5733,-0.5733,-0.5733,-0.5733,-0.5733,-0.5733,-0.5733,-0.5733,-0.5733,-0.5733,-0.5733,-0.5733,-0.5733,-0.5733,-0.5733,-0.5733,-0.5733,-0.5733,-0.5733,-0.5733,-0.5733,-0.573,-0.5727,-0.5727,-0.5725,-0.5722,-0.5722,-0.6817,-0.7502,-0.7502,-0.8682,-0.9241,-0.9322,-0.9322,-0.9322,-0.9322,-0.9322,-0.9431,-0.955,-0.955,-0.9743,0.0,0.0,0.0,0.0,0.0,0.0,0.0,0.0,0.0,0.0,0.0,0.0,0.0,0.0,0.0,0.0,0.0,0.0,0.0,-0.0415,-0.0849,-0.1303,-0.1418,0.0,0.0,0.0,0.0,-0.1436,-0.1463,-0.1489,-0.151,-0.154,-0.157,-0.16,-0.1601,-0.1607,-0.1617,-0.1617,-0.1611,-0.1601,-0.1201,-0.0798,-0.0198,-0.0099,0.0,-0.0,-0.068,-0.0963,-0.1046,-0.1711,-0.3613,-0.61,-0.6192,-0.6092,-0.6086,-0.6086,-0.6034,-0.5966,-0.5966,-0.5966,-0.5966,-0.5966,-0.5912,-0.5847,-0.5847,-0.5793,-0.5733,-0.5733,-0.5733,-0.5733,-0.5733,-0.5733,-0.5733,-0.5733,-0.5733,-0.5733,-0.5733,-0.5733,-0.5733,-0.5733,-0.5733,-0.5757,-0.5833,-0.5847,-0.5874,-0.5956,-0.5833,-0.5733,-0.5733,-0.5733,-0.5733,-0.5733,-0.5733,-0.5733,-0.5733,-0.5733,-0.5733,-0.5733,-0.6565,-0.7232,-0.7665,-0.8562,-0.9307,-0.9738,-0.9738,-0.9738,-0.9738,-0.9738,-0.9776,-0.9852,-0.9852,-0.9885,0.0,0.0,0.0,0.0,0.0,0.0,0.0,0.0,0.0,0.0,0.0,0.0,0.0,0.0,0.0,0.0,0.0,0.0,0.0,-0.025,-0.0681,-0.1316,-0.1425,0.0,0.0,0.0,0.0,-0.1451,-0.148,-0.151,-0.154,-0.1571,-0.1596,-0.1616,-0.1617,-0.1617,-0.1617,-0.1617,-0.1617,-0.1617,-0.101,-0.0505,0.0,0.0,0.0,0.0,0.0,0.0,0.0,0.0,-0.2039,-0.525,-0.5937,-0.6222,-0.6211,-0.6211,-0.6211,-0.62,-0.6116,-0.6086,-0.6086,-0.6086,-0.6032,-0.5966,-0.5966,-0.5888,-0.5795,-0.5795,-0.5765,-0.5733,-0.5733,-0.5733,-0.5733,-0.5733,-0.5765,-0.5795,-0.5795,-0.5828,-0.5858,-0.5858,-0.5858,-0.5882,-0.5956,-0.5966,-0.5994,-0.6075,-0.5956,-0.5844,-0.5801,-0.576,-0.5733,-0.5733,-0.5733,-0.5733,-0.5733,-0.5733,-0.5733,-0.5733,-0.6609,-0.7394,-0.7742,-0.8803,-0.951,-0.9951,-1.0038,-1.0038,-1.0038,-1.0038,-1.0038,-1.0038,-1.0038,-1.0038,0.0,0.0,0.0,0.0,0.0,0.0,0.0,0.0,0.0,0.0,0.0,0.0,0.0,0.0,0.0,0.0,0.0,0.0,0.0,-0.0,-0.0342,0.0,0.0,0.0,0.0,0.0,0.0,-0.148,0.0,-0.1539,-0.157,-0.16,-0.1617,-0.1617,-0.1617,-0.1617,-0.1617,-0.1617,-0.1617,-0.1617,-0.1111,-0.0505,0.0,0.0,0.0,0.0,0.0,0.0,0.0,0.0,-0.1309,-0.3425,-0.555,-0.6353,-0.6437,-0.6437,-0.6437,-0.6404,-0.6181,-0.6105,-0.6105,-0.6105,-0.61,-0.6094,-0.6094,-0.601,-0.5912,-0.5912,-0.5836,-0.5752,-0.5752,-0.5752,-0.5752,-0.5752,-0.5833,-0.5912,-0.5912,-0.6005,-0.6086,-0.6086,-0.6092,-0.6094,-0.6094,-0.61,-0.6105,-0.6105,-0.61,-0.6051,-0.5928,-0.5817,-0.5752,-0.5752,-0.5752,-0.5752,-0.5752,-0.5746,-0.5741,-0.5741,-0.7051,-0.7834,-0.7834,-0.9244,-1.0038,-1.0038,-1.0038,-1.0038,-1.0038,-1.0038,-1.0038,-1.0038,-1.0038,-1.0038,0.0,0.0,0.0,0.0,0.0,0.0,0.0,0.0,0.0,0.0,0.0,0.0,0.0,0.0,0.0,0.0,0.0,0.0,0.0,-0.0337,0.0,0.0,0.0,-0.1436,-0.1436,-0.1456,0.0,0.0,-0.1521,-0.1539,-0.157,-0.16,-0.1617,-0.1617,-0.1617,-0.1617,-0.1617,-0.1617,-0.1617,-0.1617,-0.1415,-0.0909,0.0,0.0,0.0,0.0,0.0,0.0,0.0,0.0,-0.1311,-0.3426,-0.5555,-0.6358,-0.6437,-0.6437,-0.6437,-0.6429,-0.6366,-0.6347,-0.6347,-0.6347,-0.629,-0.6222,-0.6222,-0.6135,-0.604,-0.604,-0.6018,-0.5996,-0.5996,-0.5996,-0.5996,-0.5996,-0.6018,-0.604,-0.604,-0.6064,-0.6086,-0.6086,-0.6159,-0.6222,-0.6222,-0.6293,-0.6347,-0.6347,-0.6276,-0.6179,-0.6053,-0.6013,-0.5996,-0.5996,-0.5996,-0.5996,-0.5996,-0.5912,-0.604,-0.6672,-0.7371,-0.8009,-0.8627,-0.951,-1.0038,-1.0038,-1.0038,-1.0038,-1.0038,-1.0038,-1.0038,-1.0038,-1.0038,-1.0038,0.0,0.0,0.0,0.0,0.0,0.0,0.0,0.0,0.0,0.0,0.0,0.0,0.0,0.0,0.0,0.0,0.0,0.0,0.0,-0.0253,-0.0513,0.0,-0.1256,0.0,-0.1454,-0.147,-0.1499,0.0,-0.1546,-0.1559,-0.159,-0.1607,-0.1617,-0.1617,-0.1617,-0.1617,-0.1617,-0.1617,-0.1617,-0.1617,-0.1617,-0.1111,-0.0303,-0.0101,0.0,0.0,0.0,0.0,0.0,0.0,-0.0706,-0.2116,-0.5153,-0.6364,-0.6448,-0.6439,-0.6437,-0.6437,-0.6437,-0.6437,-0.6437,-0.6437,-0.6393,-0.6342,-0.6342,-0.626,-0.6165,-0.6165,-0.6127,-0.6086,-0.6086,-0.6086,-0.6086,-0.6086,-0.6127,-0.6165,-0.6165,-0.6206,-0.6241,-0.6241,-0.6295,-0.6342,-0.6342,-0.6393,-0.6437,-0.6437,-0.6382,-0.6317,-0.6249,-0.6151,-0.6086,-0.6086,-0.6086,-0.6275,-0.6555,-0.6208,-0.6444,-0.7547,-0.7764,-0.8213,-0.9017,-0.9643,-1.0038,-1.0038,-1.0038,-1.0038,-1.0038,-1.0038,-1.0038,-1.0038,-1.0038,-1.0038,0.0,0.0,0.0,0.0,0.0,0.0,0.0,0.0,0.0,0.0,0.0,0.0,0.0,0.0,0.0,0.0,0.0,0.0,0.0,-0.0084,-0.0428,-0.125,-0.1345,-0.1447,-0.1478,-0.1484,-0.151,-0.1567,-0.1575,-0.1589,-0.1615,-0.1617,-0.1617,-0.1617,-0.1617,-0.1617,-0.1617,-0.1617,-0.1617,-0.1617,-0.1617,-0.1314,-0.0808,-0.0303,0.0,0.0,0.0,0.0,-0.0,-0.0606,-0.0706,-0.0806,-0.4847,-0.6369,-0.6358,-0.6442,-0.6437,-0.6437,-0.6437,-0.6437,-0.6437,-0.6437,-0.6437,-0.6437,-0.6437,-0.6369,-0.629,-0.629,-0.6214,-0.6132,-0.6132,-0.6132,-0.6132,-0.6132,-0.6214,-0.629,-0.629,-0.6369,-0.6437,-0.6437,-0.6437,-0.6437,-0.6437,-0.6437,-0.6437,-0.6437,-0.6437,-0.6437,-0.6437,-0.6257,-0.6132,-0.6132,-0.6132,-0.6513,-0.7269,-0.6685,-0.6954,-0.8547,-0.839,-0.8572,-0.9397,-0.9837,-1.0081,-1.0081,-1.0052,-1.0038,-1.0038,-1.0038,-1.0038,-1.0038,-1.0067,-1.0081,0.0,0.0,0.0,0.0,0.0,0.0,0.0,0.0,0.0,0.0,0.0,0.0,0.0,0.0,0.0,0.0,0.0,0.0,0.0,0.0,-0.0599,0.0,0.0,0.0,0.0,0.0,0.0,0.0,0.0,0.0,-0.1616,-0.1617,-0.1617,-0.1617,-0.1617,-0.1617,-0.1617,-0.1617,-0.1617,-0.1617,-0.1617,-0.1415,-0.101,-0.0303,0.0,0.0,0.0,0.0,-0.0303,-0.3843,-0.4243,-0.292,-0.545,-0.6356,-0.6439,-0.6437,-0.6437,-0.6437,-0.6437,-0.6437,-0.6437,-0.6437,-0.6437,-0.6437,-0.6437,-0.6423,-0.6407,-0.6407,-0.6391,-0.6377,-0.6377,-0.6377,-0.6377,-0.6377,-0.6391,-0.6407,-0.6407,-0.6423,-0.6437,-0.6437,-0.6437,-0.6437,-0.6437,-0.6437,-0.6437,-0.6437,-0.6437,-0.6437,-0.6437,-0.6401,-0.6377,-0.6377,-0.6377,-0.6671,-0.7461,-0.7353,-0.7859,-0.9395,-0.9316,-0.9587,-1.0334,-1.0324,-1.0216,-1.0216,-1.0041,-1.0038,-1.0038,-1.0038,-1.0038,-1.0043,-1.0135,-1.0216,0.0,0.0,0.0,0.0,0.0,0.0,0.0,0.0,0.0,0.0,0.0,0.0,0.0,0.0,0.0,0.0,0.0,0.0,0.0,0.0,0.0,0.0,0.0,0.0,0.0,0.0,0.0,0.0,0.0,0.0,-0.1617,-0.1617,-0.1617,-0.1617,-0.1617,-0.1617,-0.1617,-0.1617,-0.1617,-0.1617,-0.1617,-0.1415,-0.1111,-0.0909,-0.0505,-0.0101,-0.2324,0.0,-0.3436,-0.4345,-0.4748,-0.4945,-0.5959,-0.6358,-0.645,-0.6439,-0.6437,-0.6437,-0.6437,-0.6437,-0.6437,-0.6437,-0.6437,-0.6437,-0.6437,-0.6437,-0.6437,-0.6437,-0.6437,-0.6437,-0.6437,-0.6437,-0.6437,-0.6437,-0.6437,-0.6437,-0.6437,-0.6437,-0.6437,-0.6437,-0.6437,-0.6437,-0.6437,-0.6437,-0.6437,-0.6437,-0.6437,-0.6437,-0.6437,-0.6437,-0.6437,-0.6437,-0.6437,-0.6933,-0.8127,-0.7766,-0.8409,-1.036,-0.9888,-0.9978,-1.074,-1.0542,-1.0428,-1.0428,-1.0329,-1.0272,-1.0272,-1.0272,-1.0272,-1.0277,-1.0381,-1.0428,0.0,0.0,0.0,0.0,0.0,0.0,0.0,0.0,0.0,0.0,0.0,0.0,0.0,0.0,0.0,0.0,0.0,0.0,0.0,0.0,0.0,0.0,0.0,0.0,0.0,0.0,0.0,0.0,0.0,0.0,-0.1617,-0.1617,-0.1617,-0.1617,-0.1617,-0.1617,-0.1617,-0.1617,-0.1617,-0.1617,-0.1617,-0.1415,-0.1212,-0.1516,-0.1212,-0.0808,-0.4246,0.0,0.0,-0.4541,-0.4843,-0.6372,-0.6361,-0.6358,-0.6356,-0.6442,-0.6437,-0.6437,-0.6437,-0.6437,-0.6437,-0.6437,-0.6437,-0.6437,-0.6437,-0.6437,-0.6437,-0.6437,-0.6437,-0.6437,-0.6437,-0.6437,-0.6437,-0.6437,-0.6437,-0.6437,-0.6437,-0.6437,-0.6437,-0.6437,-0.6437,-0.6437,-0.6437,-0.6437,-0.6437,-0.6437,-0.6437,-0.6437,-0.6437,-0.6437,-0.6437,-0.6437,-0.6437,-0.7033,-0.8623,-0.8226,-0.8817,-1.1096,-1.0457,-1.0276,-1.0957,-1.0754,-1.0641,-1.0641,-1.0598,-1.0575,-1.0575,-1.0575,-1.0575,-1.0575,-1.0622,-1.0641,0.0,0.0,0.0,0.0,0.0,0.0,0.0,0.0,0.0,0.0,0.0,0.0,0.0,0.0,0.0,0.0,0.0,0.0,0.0,0.0,0.0,0.0,0.0,0.0,0.0,0.0,0.0,0.0,0.0,0.0,0.0,-0.1617,-0.1617,-0.1617,-0.1617,-0.1617,-0.1617,-0.1617,-0.1617,-0.1617,-0.1617,-0.1617,-0.1516,-0.1617,-0.1919,-0.2522,0.0,0.0,0.0,-0.6163,-0.6261,-0.6364,-0.6445,-0.6439,-0.6439,-0.6437,-0.6437,-0.6437,-0.6437,-0.6437,-0.6437,-0.6437,-0.6437,-0.6437,-0.6437,-0.6437,-0.6437,-0.6437,-0.6437,-0.6437,-0.6437,-0.6437,-0.6437,-0.6437,-0.6437,-0.6437,-0.6437,-0.6437,-0.6437,-0.6437,-0.6437,-0.6437,-0.6437,-0.6437,-0.6437,-0.6437,-0.6437,-0.6437,-0.6437,-0.6437,-0.6437,-0.6437,-0.6437,-0.7033,-0.8623,-0.8726,-0.9414,-1.1096,-1.1077,-1.1068,-1.1165,-1.0972,-1.0868,-1.0868,-1.0674,-1.0575,-1.0575,-1.0575,-1.0575,-1.0579,-1.0773,-1.0868,0.0,0.0,0.0,0.0,0.0,0.0,0.0,0.0,0.0,0.0,0.0,0.0,0.0,0.0,0.0,0.0,0.0,0.0,0.0,0.0,0.0,0.0,0.0,0.0,0.0,0.0,0.0,0.0,0.0,0.0,0.0,-0.1617,-0.1617,-0.1617,-0.1617,-0.1617,-0.1617,-0.1617,-0.1617,-0.1617,-0.1617,-0.1617,-0.1617,-0.1617,-0.2221,-0.3429,0.0,0.0,0.0,-0.6756,-0.6653,-0.6651,-0.6439,-0.6437,-0.6437,-0.6437,-0.6437,-0.6437,-0.6437,-0.6437,-0.6437,-0.6539,-0.6639,-0.6639,-0.6437,-0.6437,-0.6437,-0.6437,-0.6437,-0.6437,-0.6639,-0.6639,-0.6639,-0.6437,-0.6437,-0.6437,-0.6437,-0.6437,-0.6437,-0.6437,-0.6437,-0.6437,-0.6437,-0.6437,-0.6437,-0.6437,-0.6437,-0.6437,-0.6437,-0.6437,-0.6437,-0.6437,-0.6437,-0.6833,-0.8028,-0.8528,-0.932,-1.0408,-1.09,-1.1194,-1.1194,-1.1118,-1.1075,-1.1075,-1.099,-1.0948,-1.0948,-1.0948,-1.0948,-1.0948,-1.1038,-1.1075,0.0,0.0,0.0,0.0,0.0,0.0,0.0,0.0,0.0,0.0,0.0,0.0,0.0,0.0,0.0,0.0,0.0,0.0,0.0,0.0,0.0,0.0,0.0,0.0,0.0,0.0,0.0,0.0,0.0,0.0,0.0,-0.1617,-0.1617,-0.1617,-0.1617,-0.1617,-0.1617,-0.1617,-0.1617,-0.1617,-0.1617,-0.1617,-0.1617,-0.1919,-0.2724,-0.4031,0.0,0.0,0.0,-0.7045,-0.6942,-0.6942,-0.6639,-0.6539,-0.6539,-0.6437,-0.6437,-0.6437,-0.6537,-0.6539,-0.6539,-0.6842,-0.6942,-0.6842,-0.6736,-0.6537,-0.6537,-0.6437,-0.6437,-0.6437,-0.6742,-0.6742,-0.6642,-0.6539,-0.6437,-0.6437,-0.6537,-0.6437,-0.6437,-0.6437,-0.6437,-0.6437,-0.6437,-0.6437,-0.6437,-0.6437,-0.6437,-0.6437,-0.6437,-0.6437,-0.6437,-0.6437,-0.6437,-0.6736,-0.7531,-0.8326,-0.9122,-0.992,-1.0801,-1.1194,-1.1194,-1.1194,-1.1194,-1.1194,-1.1194,-1.1194,-1.1194,-1.1194,-1.1194,-1.1194,-1.1194,-1.1194,0.0,0.0,0.0,0.0,0.0,0.0,0.0,0.0,0.0,0.0,0.0,0.0,0.0,0.0,0.0,0.0,0.0,0.0,0.0,0.0,0.0,0.0,0.0,0.0,0.0,0.0,0.0,0.0,0.0,0.0,0.0,-0.1617,-0.1617,-0.1617,-0.1617,-0.1617,-0.1617,-0.1617,-0.1617,-0.1617,-0.1617,-0.1617,-0.1617,-0.2722,-0.3626,0.0,0.0,0.0,0.0,-0.7238,-0.7238,-0.7138,-0.6942,-0.6845,-0.6742,-0.6537,-0.6437,-0.6437,-0.6742,-0.6845,-0.6842,-0.7138,-0.7238,-0.7238,-0.7238,-0.7042,-0.6742,-0.6437,-0.6437,-0.6437,-0.6742,-0.6639,-0.6437,-0.6742,-0.6639,-0.6437,-0.6742,-0.6539,-0.6437,-0.6437,-0.6437,-0.6437,-0.6437,-0.6437,-0.6437,-0.6437,-0.6437,-0.6437,-0.6437,-0.6437,-0.6437,-0.6437,-0.6437,-0.6736,-0.7531,-0.8326,-0.9122,-0.992,-1.0801,-1.1194,-1.1194,-1.1194,-1.1194,-1.1194,-1.1194,-1.1194,-1.1194,-1.1194,-1.1194,-1.1194,-1.1194,-1.1194,0.0,0.0,0.0,0.0,0.0,0.0,0.0,0.0,0.0,0.0,0.0,0.0,0.0,0.0,0.0,0.0,0.0,0.0,0.0,0.0,0.0,0.0,0.0,0.0,0.0,0.0,0.0,0.0,0.0,0.0,0.0,-0.1617,-0.1617,-0.1617,-0.1617,-0.1617,-0.1617,-0.1617,-0.1617,-0.1617,-0.1617,-0.2019,-0.2722,-0.3022,0.0,0.0,0.0,0.0,0.0,-0.7543,-0.7444,-0.7444,-0.7141,-0.6942,-0.6745,-0.6742,-0.6539,-0.6437,-0.6742,-0.6642,-0.6639,-0.7039,-0.7039,-0.6942,-0.7138,-0.7138,-0.7039,-0.6742,-0.6942,-0.7141,-0.6845,-0.6842,-0.6939,-0.6842,-0.6639,-0.6437,-0.6539,-0.6437,-0.6437,-0.6437,-0.6437,-0.6437,-0.6437,-0.6437,-0.6437,-0.6437,-0.6437,-0.6437,-0.6437,-0.6437,-0.6437,-0.6437,-0.6437,-0.6534,-0.6734,-0.8028,-0.8924,-0.9122,-1.0404,-1.1194,-1.1194,-1.1194,-1.1194,-1.1194,-1.1194,-1.1194,-1.1194,-1.1194,-1.1194,-1.1194,-1.1194,-1.1194,0.0,0.0,0.0,0.0,0.0,0.0,0.0,0.0,0.0,0.0,0.0,0.0,0.0,0.0,0.0,0.0,-0.0314,0.0,0.0,0.0,0.0,0.0,0.0,0.0,0.0,0.0,0.0,0.0,0.0,0.0,0.0,0.0,-0.1617,-0.1617,-0.1617,-0.1617,-0.1617,-0.1617,-0.1617,-0.1617,-0.1617,-0.212,-0.3224,-0.3624,0.0,0.0,0.0,0.0,0.0,-0.7842,-0.7743,-0.7743,-0.7441,-0.7244,-0.7045,-0.6942,-0.6742,-0.6539,-0.6842,-0.6739,-0.6639,-0.7141,-0.7341,-0.7241,-0.7437,-0.7338,-0.7138,-0.7144,-0.7244,-0.7444,-0.7144,-0.7141,-0.7138,-0.7144,-0.6879,-0.6608,-0.6709,-0.6644,-0.6575,-0.6575,-0.6575,-0.6575,-0.6575,-0.6575,-0.6575,-0.6575,-0.6535,-0.6505,-0.6505,-0.6464,-0.6437,-0.6437,-0.6437,-0.6437,-0.6437,-0.763,-0.8524,-0.8825,-1.0015,-1.09,-1.1194,-1.1194,-1.1194,-1.1194,-1.1194,-1.1194,-1.1194,-1.1194,-1.1194,-1.1194,-1.1194,-1.1194,0.0,-0.0079,0.0,0.0,0.0,0.0,0.0,0.0,0.0,0.0,0.0,0.0,0.0,0.0,0.0,0.0,-0.0786,0.0,0.0,0.0,0.0,0.0,0.0,0.0,0.0,0.0,0.0,0.0,0.0,0.0,0.0,0.0,-0.1617,-0.1617,-0.1617,-0.1617,-0.1617,-0.1617,-0.1617,-0.1718,-0.1718,-0.2321,-0.3423,-0.4425,0.0,0.0,0.0,0.0,0.0,-0.8038,-0.8038,-0.7942,-0.7746,-0.7646,-0.7547,-0.7341,-0.7042,-0.6842,-0.7138,-0.7039,-0.6845,-0.7347,-0.7743,-0.7942,-0.7942,-0.764,-0.7338,-0.7543,-0.7444,-0.7338,-0.7543,-0.7441,-0.7341,-0.7556,-0.7357,-0.7141,-0.7352,-0.7139,-0.6907,-0.6907,-0.6907,-0.6907,-0.6907,-0.6801,-0.6801,-0.6801,-0.6706,-0.6632,-0.6632,-0.6532,-0.6461,-0.6461,-0.6453,-0.6448,-0.6448,-0.7238,-0.8028,-0.8726,-0.962,-1.0408,-1.1194,-1.1194,-1.1194,-1.1194,-1.1194,-1.1194,-1.1194,-1.1194,-1.1194,-1.1194,-1.1194,-1.1203,-0.1015,0.0,0.0,0.0,0.0,0.0,0.0,0.0,0.0,0.0,0.0,0.0,0.0,0.0,0.0,0.0,0.0,0.0,0.0,0.0,0.0,0.0,0.0,0.0,0.0,0.0,0.0,0.0,0.0,0.0,0.0,0.0,-0.1617,-0.1617,-0.1617,-0.1617,-0.1617,-0.1617,-0.2019,-0.2822,-0.2822,-0.3827,-0.5632,-0.5932,0.0,0.0,0.0,0.0,-0.8038,-0.8038,-0.8038,-0.8038,-0.7942,-0.7743,-0.7547,-0.7543,-0.7341,-0.7138,-0.7444,-0.7244,-0.6845,-0.6945,-0.7344,-0.7646,-0.7646,-0.7743,-0.7739,-0.7646,-0.7743,-0.7739,-0.7646,-0.7547,-0.7572,-0.7775,-0.7626,-0.7473,-0.758,-0.7521,-0.744,-0.744,-0.744,-0.744,-0.744,-0.7328,-0.7115,-0.7115,-0.6882,-0.6757,-0.6757,-0.6736,-0.6717,-0.6717,-0.6632,-0.6575,-0.6575,-0.7795,-0.8623,-0.8825,-1.0109,-1.0998,-1.1194,-1.1194,-1.1194,-1.1194,-1.1194,-1.1194,-1.1194,-1.1194,-1.1194,-1.1194,-1.1194,-1.1283,-0.1322,-0.0943,-0.055,-0.0314,-0.0314,-0.0236,-0.0079,0.0,0.0,0.0,0.0,0.0,0.0,0.0,0.0,0.0,0.0,0.0,0.0,0.0,0.0,0.0,0.0,0.0,0.0,0.0,0.0,0.0,0.0,0.0,0.0,0.0,-0.1617,-0.1617,-0.1617,-0.1617,-0.1617,-0.212,-0.2622,-0.3224,-0.3725,-0.4828,-0.6437,-0.6437,0.0,0.0,0.0,0.0,-0.8038,-0.8038,-0.8038,-0.8038,-0.8038,-0.7942,-0.7743,-0.7743,-0.7643,-0.7441,-0.7547,-0.7444,-0.7144,-0.7144,-0.7444,-0.7743,-0.7743,-0.7842,-0.7942,-0.7842,-0.7842,-0.7942,-0.7842,-0.7743,-0.7879,-0.8024,-0.7904,-0.7799,-0.8003,-0.7991,-0.7944,-0.8002,-0.8014,-0.8014,-0.8014,-0.7901,-0.7787,-0.7569,-0.7411,-0.7155,-0.7046,-0.6953,-0.6885,-0.6885,-0.6777,-0.6703,-0.6703,-0.7773,-0.8379,-0.8237,-0.9414,-1.0306,-1.0605,-1.0998,-1.1194,-1.1194,-1.1194,-1.1194,-1.1194,-1.1293,-1.1345,-1.1345,-1.1439,-1.1543,-0.132,-0.1335,-0.1178,-0.0786,-0.0707,-0.0628,-0.0314,0.0,0.0,0.0,0.0,0.0,0.0,0.0,0.0,0.0,0.0,0.0,0.0,0.0,0.0,0.0,0.0,0.0,0.0,0.0,0.0,0.0,0.0,0.0,0.0,0.0,0.0,-0.1617,-0.1617,-0.1718,-0.1818,-0.2723,-0.3324,-0.3423,-0.4526,-0.5627,-0.6637,-0.6637,-0.7138,0.0,0.0,0.0,-0.8038,-0.8038,-0.8038,-0.8038,-0.8038,-0.8038,-0.8038,-0.8038,-0.7842,-0.7646,-0.7646,-0.7646,-0.7646,-0.7646,-0.7743,-0.8038,-0.8038,-0.8038,-0.8038,-0.8038,-0.8038,-0.8038,-0.8038,-0.8038,-0.8082,-0.8262,-0.8206,-0.8175,-0.8566,-0.852,-0.8546,-0.8656,-0.8678,-0.8678,-0.8678,-0.8561,-0.8445,-0.8215,-0.8002,-0.7815,-0.7475,-0.7301,-0.7174,-0.7174,-0.694,-0.6855,-0.6855,-0.7455,-0.7751,-0.751,-0.8396,-0.9199,-1.0004,-1.0595,-1.0987,-1.1288,-1.1189,-1.1189,-1.1288,-1.1472,-1.1562,-1.1567,-1.1737,-1.1836,-0.1248,-0.1335,-0.1257,-0.1178,-0.1178,-0.1178,0.0,0.0,0.0,0.0,0.0,0.0,0.0,0.0,0.0,0.0,0.0,0.0,0.0,0.0,0.0,0.0,0.0,0.0,0.0,0.0,0.0,0.0,0.0,0.0,0.0,0.0,0.0,-0.1617,-0.1617,-0.2019,-0.2923,-0.3123,-0.3624,-0.4524,-0.5629,-0.6736,-0.7739,-0.7739,-0.7839,0.0,0.0,-0.8038,-0.8038,-0.8038,-0.8038,-0.8038,-0.8038,-0.8038,-0.8038,-0.8038,-0.7942,-0.7942,-0.7646,-0.7743,-0.7942,-0.7646,-0.7743,-0.8038,-0.8038,-0.8038,-0.8038,-0.8038,-0.8038,-0.8038,-0.8038,-0.8038,-0.8109,-0.8384,-0.8564,-0.8649,-0.9052,-0.9124,-0.9238,-0.9258,-0.9265,-0.9265,-0.9265,-0.9033,-0.88,-0.88,-0.8546,-0.8411,-0.8296,-0.8034,-0.7896,-0.7896,-0.7458,-0.71,-0.71,-0.7025,-0.6998,-0.6959,-0.83,-0.9546,-1.0381,-0.986,-1.0166,-1.1723,-1.0999,-1.1003,-1.1723,-1.1756,-1.177,-1.177,-1.1803,-1.1917,-0.1249,-0.1335,-0.1335,-0.1335,-0.1335,0.0,0.0,0.0,0.0,0.0,0.0,0.0,0.0,0.0,0.0,0.0,0.0,0.0,0.0,0.0,0.0,0.0,0.0,0.0,0.0,0.0,0.0,0.0,0.0,0.0,0.0,0.0,0.0,0.0,-0.1617,-0.212,-0.3224,-0.3825,-0.4626,-0.5629,-0.6734,-0.7537,-0.8038,-0.8038,-0.8038,-0.8038,0.0,-0.8038,-0.8038,-0.8038,-0.8038,-0.8038,-0.8038,-0.8038,-0.8038,-0.8038,-0.8038,-0.7939,-0.7842,-0.7942,-0.7942,-0.7842,-0.7942,-0.8038,-0.8038,-0.8038,-0.8038,-0.8038,-0.8038,-0.8038,-0.8038,-0.8038,-0.8113,-0.8411,-0.8601,-0.8815,-0.9195,-0.9398,-0.9527,-0.9605,-0.9618,-0.9618,-0.9618,-0.9499,-0.9384,-0.9145,-0.8956,-0.8787,-0.8552,-0.8314,-0.8111,-0.7875,-0.7598,-0.7379,-0.7265,-0.7054,-0.7152,-0.7443,-0.858,-0.9414,-0.9835,-0.9835,-1.0252,-1.1092,-1.0672,-1.0884,-1.1817,-1.1935,-1.1992,-1.1992,-1.2101,-1.2209,-0.1251,-0.1335,-0.1335,0.0,0.0,0.0,0.0,0.0,0.0,0.0,0.0,0.0,0.0,0.0,0.0,0.0,0.0,0.0,0.0,0.0,0.0,0.0,0.0,0.0,0.0,0.0,0.0,0.0,0.0,0.0,0.0,0.0,0.0,0.0,-0.1818,-0.2521,-0.3524,-0.4626,-0.5629,-0.6437,-0.7437,-0.8038,-0.8038,-0.8038,-0.8038,-0.8038,-0.8038,-0.8038,-0.8038,-0.8038,-0.8038,-0.8038,-0.8038,-0.8038,-0.8038,-0.8038,-0.8038,-0.8038,-0.8038,-0.8038,-0.8038,-0.8038,-0.8038,-0.8038,-0.8038,-0.8038,-0.8038,-0.8038,-0.8038,-0.8038,-0.8038,-0.8038,-0.8106,-0.837,-0.8574,-0.8825,-0.9239,-0.9476,-0.9652,-0.9791,-0.9822,-0.9822,-0.9822,-0.9791,-0.965,-0.9411,-0.9284,-0.9071,-0.8838,-0.854,-0.8295,-0.8064,-0.7835,-0.7524,-0.7268,-0.7154,-0.7405,-0.7748,-0.8474,-0.8895,-0.9001,-0.9534,-1.0067,-1.0598,-1.0489,-1.091,-1.1964,-1.2129,-1.2209,-1.2428,-1.2586,-1.2659,-0.1335,-0.1335,-0.1335,-0.1335,0.0,0.0,0.0,0.0,0.0,0.0,0.0,0.0,0.0,0.0,0.0,0.0,0.0,0.0,0.0,0.0,0.0,0.0,0.0,0.0,0.0,0.0,0.0,0.0,0.0,0.0,0.0,0.0,0.0,0.0,0.0,-0.3624,-0.4624,-0.5729,-0.6334,-0.6437,-0.7437,-0.8038,-0.8038,-0.8038,-0.8038,-0.8038,-0.8038,-0.8038,-0.8038,-0.8038,-0.8038,-0.8038,-0.8038,-0.8038,-0.8038,-0.8038,-0.8038,-0.8038,-0.8038,-0.8038,-0.8038,-0.8038,-0.8038,-0.8038,-0.8038,-0.8038,-0.8038,-0.8038,-0.8038,-0.8038,-0.8038,-0.8038,-0.8079,-0.8248,-0.8503,-0.8794,-0.9103,-0.9401,-0.9652,-0.9791,-0.9822,-0.9822,-0.9822,-0.971,-0.9625,-0.9625,-0.9493,-0.9398,-0.9398,-0.9033,-0.8787,-0.8787,-0.8196,-0.7613,-0.7274,-0.7154,-0.7257,-0.7241,-0.7348,-0.768,-0.8562,-0.779,-0.8559,-1.0979,-1.0311,-1.0639,-1.2394,-1.2408,-1.2639,-1.3186,-1.3202,-1.3527,-0.1414,-0.1335,-0.1335,0.0,0.0,0.0,0.0,0.0,0.0,0.0,0.0,0.0,0.0,0.0,0.0,0.0,0.0,0.0,0.0,0.0,0.0,0.0,0.0,0.0,0.0,0.0,0.0,0.0,0.0,0.0,0.0,0.0,0.0,0.0,0.0,-0.4726,-0.5832,-0.6234,-0.6736,-0.7437,-0.7839,-0.8038,-0.8038,-0.8038,-0.8038,-0.8038,-0.8038,-0.8038,-0.8038,-0.8038,-0.8038,-0.8038,-0.8038,-0.8038,-0.8038,-0.8038,-0.8038,-0.8038,-0.8038,-0.8038,-0.8038,-0.8038,-0.8038,-0.8038,-0.8038,-0.8038,-0.8038,-0.8038,-0.8038,-0.8038,-0.8038,-0.8038,-0.8079,-0.8235,-0.8496,-0.8791,-0.9089,-0.9395,-0.9652,-0.9791,-0.9751,-0.969,-0.969,-0.9564,-0.9466,-0.9466,-0.9337,-0.9239,-0.9239,-0.9047,-0.8878,-0.8649,-0.8264,-0.7765,-0.7496,-0.7493,-0.7379,-0.7265,-0.7709,-0.7931,-0.7709,-0.8367,-0.9247,-1.0241,-1.046,-1.1232,-1.2441,-1.2767,-1.3098,-1.3315,-1.3635,-1.3954,-0.1492,-0.1335,-0.1335,0.0,0.0,0.0,0.0,0.0,0.0,0.0,0.0,0.0,0.0,0.0,0.0,0.0,0.0,0.0,0.0,0.0,0.0,0.0,0.0,0.0,0.0,0.0,0.0,0.0,0.0,0.0,0.0,0.0,0.0,0.0,0.0,-0.5629,-0.6437,-0.6736,-0.7238,-0.8038,-0.8038,-0.8038,-0.8038,-0.8038,-0.8038,-0.8038,-0.8038,-0.8038,-0.8038,-0.8038,-0.8038,-0.8038,-0.8038,-0.8038,-0.8038,-0.8038,-0.8038,-0.8038,-0.8038,-0.8038,-0.8038,-0.8038,-0.8038,-0.8038,-0.8038,-0.8038,-0.8038,-0.8038,-0.8038,-0.8038,-0.8038,-0.8038,-0.8065,-0.8174,-0.8425,-0.872,-0.9018,-0.9323,-0.9581,-0.9727,-0.9676,-0.9595,-0.9547,-0.9412,-0.931,-0.931,-0.9181,-0.9086,-0.9086,-0.8998,-0.8826,-0.8484,-0.8263,-0.8045,-0.7715,-0.7607,-0.7493,-0.7379,-0.8042,-0.8152,-0.7265,-0.8589,-0.9467,-0.9798,-1.0684,-1.1673,-1.2659,-1.3098,-1.3532,-1.3856,-1.4283,-1.46,-0.1571,-0.1335,0.0,0.0,0.0,0.0,0.0,0.0,0.0,0.0,0.0,0.0,0.0,0.0,0.0,0.0,0.0,0.0,0.0,0.0,0.0,0.0,0.0,0.0,0.0,0.0,0.0,0.0,0.0,0.0,0.0,0.0,0.0,0.0,0.0,0.0,-0.6437,-0.7437,-0.8038,-0.8038,-0.8038,-0.8038,-0.8038,-0.8038,-0.8038,-0.8038,-0.8038,-0.8038,-0.8038,-0.8038,-0.8038,-0.8038,-0.8038,-0.8038,-0.8038,-0.8038,-0.8038,-0.8038,-0.8038,-0.8038,-0.8038,-0.8038,-0.8038,-0.8038,-0.8038,-0.8038,-0.8038,-0.8038,-0.8038,-0.8038,-0.8038,-0.8038,-0.8038,-0.8038,-0.8265,-0.8567,-0.8869,-0.9167,-0.9425,-0.9578,-0.9605,-0.9557,-0.9405,-0.9252,-0.915,-0.915,-0.9028,-0.894,-0.894,-0.894,-0.8826,-0.8484,-0.8484,-0.8374,-0.8045,-0.7715,-0.7607,-0.7607,-0.8156,-0.8152,-0.7265,-0.8042,-0.8923,-0.9798,-1.0684,-1.1891,-1.3315,-1.3315,-1.3851,-1.5041,-1.5041,-1.5357,-0.2585,-0.1804,0.0,0.0,0.0,0.0,0.0,0.0,0.0,0.0,0.0,0.0,0.0,0.0,0.0,0.0,0.0,0.0,0.0,0.0,0.0,0.0,0.0,0.0,0.0,0.0,0.0,0.0,0.0,0.0,0.0,0.0,0.0,0.0,0.0,0.0,-0.7537,-0.7839,-0.8038,-0.8038,-0.8038,-0.8038,-0.8038,-0.8038,-0.8038,-0.8038,-0.8038,-0.8038,-0.8038,-0.8038,-0.8038,-0.8038,-0.8038,-0.8038,-0.8038,-0.8038,-0.8038,-0.8038,-0.8038,-0.8038,-0.8038,-0.8038,-0.8038,-0.8038,-0.8038,-0.8038,-0.8038,-0.8038,-0.8038,-0.8038,-0.8038,-0.8038,-0.8038,-0.8038,-0.8265,-0.8537,-0.8733,-0.9011,-0.9266,-0.9418,-0.9361,-0.9273,-0.9228,-0.91,-0.9001,-0.9001,-0.8964,-0.894,-0.894,-0.894,-0.8826,-0.8826,-0.8823,-0.8712,-0.8377,-0.8266,-0.8484,-0.914,-0.9361,-0.8699,-0.7265,-0.9574,-1.0562,-0.9798,-1.2096,-1.3305,-1.3315,-1.4067,-1.4719,-1.5041,-1.5464,-1.5678,-0.2584,0.0,0.0,0.0,0.0,0.0,0.0,0.0,0.0,0.0,0.0,0.0,0.0,0.0,0.0,0.0,0.0,0.0,0.0,0.0,0.0,0.0,0.0,0.0,0.0,0.0,0.0,0.0,0.0,0.0,0.0,0.0,0.0,0.0,0.0,0.0,-0.8038,-0.8038,-0.8038,-0.8038,-0.8038,-0.8038,-0.8038,-0.8038,-0.8038,-0.8038,-0.8038,-0.8038,-0.8038,-0.8038,-0.8038,-0.8038,-0.8038,-0.8038,-0.8038,-0.8038,-0.8038,-0.8038,-0.8038,-0.8038,-0.8038,-0.8038,-0.8038,-0.8038,-0.8038,-0.8038,-0.8038,-0.8038,-0.8038,-0.8038,-0.8038,-0.8085,-0.8133,-0.8133,-0.8309,-0.854,-0.8754,-0.8988,-0.9181,-0.9273,-0.9215,-0.9133,-0.9079,-0.8994,-0.894,-0.894,-0.894,-0.894,-0.894,-0.894,-0.894,-0.894,-0.9372,-0.9585,-0.9361,-0.9251,-0.9578,-1.0562,-1.0453,-0.99,-0.8906,-1.1101,-1.1546,-1.0021,-1.2748,-1.3954,-1.3305,-1.439,-1.5143,-1.5357,-1.5678,-1.5891,0.0,0.0,0.0,0.0,0.0,0.0,0.0,0.0,0.0,0.0,0.0,0.0,0.0,0.0,0.0,0.0,0.0,0.0,0.0,0.0,0.0,0.0,0.0,0.0,0.0,0.0,0.0,0.0,0.0,0.0,0.0,0.0,0.0,0.0,0.0,0.0,-0.8038,-0.8038,-0.8038,0.0,-0.8038,-0.8038,-0.8038,-0.8038,-0.8038,-0.8038,-0.8038,-0.8038,-0.8038,-0.8038,-0.8038,-0.8038,-0.8038,-0.8038,-0.8038,-0.8038,-0.8038,-0.8038,-0.8038,-0.8038,-0.8038,-0.8038,-0.8038,-0.8038,-0.8038,-0.8038,-0.8038,-0.8038,-0.8038,-0.8038,-0.8038,-0.8153,-0.8275,-0.8286,-0.8397,-0.8577,-0.8859,-0.9032,-0.9133,-0.9133,-0.9133,-0.9093,-0.896,-0.894,-0.894,-0.894,-0.9047,-0.9047,-0.894,-0.894,-0.8937,-0.9047,-1.0021,-1.0781,-1.0891,-1.0562,-1.0887,-1.2091,-1.1655,-1.1538,-1.1846,-1.263,-1.2205,-1.0468,-1.297,-1.4056,-1.3506,-1.46,-1.5357,-1.5891,-1.5891,-1.5891,0.0,0.0,0.0,0.0,0.0,0.0,0.0,0.0,0.0,0.0,0.0,0.0,0.0,0.0,0.0,0.0,0.0,0.0,0.0,0.0,0.0,0.0,0.0,0.0,0.0,0.0,0.0,0.0,0.0,0.0,0.0,0.0,0.0,0.0,0.0,-0.8038,-0.8038,-0.8038,-0.8038,0.0,-0.8038,-0.8038,-0.8038,-0.8038,-0.8038,-0.8038,-0.8038,-0.8038,-0.8038,-0.8038,-0.8038,-0.8038,-0.8038,-0.8038,-0.8038,-0.8038,-0.8038,-0.8038,-0.8038,-0.8038,-0.8038,-0.8038,-0.8038,-0.8038,-0.8038,-0.8038,-0.8038,-0.8038,-0.8038,-0.8038,-0.8038,-0.8153,-0.8299,-0.8411,-0.8554,-0.8679,-0.8747,-0.8879,-0.8984,-0.8984,-0.8984,-0.8974,-0.8944,-0.894,-0.894,-0.894,-0.9699,-1.0021,-0.9047,-0.894,-0.9265,-1.0241,-1.0562,-1.1105,-1.1978,-1.1978,-1.2417,-1.3619,-1.3619,-1.3727,-1.4266,-1.4487,-1.384,-1.2313,-1.4482,-1.5244,-1.4606,-1.5357,-1.5785,-1.5891,-1.5891,-1.5891,0.0,0.0,0.0,0.0,0.0,0.0,0.0,0.0,0.0,0.0,0.0,0.0,0.0,0.0,0.0,0.0,0.0,0.0,0.0,0.0,0.0,0.0,0.0,0.0,0.0,0.0,0.0,0.0,0.0,0.0,0.0,0.0,0.0,0.0,-0.8038,-0.8038,-0.8038,-0.8038,-0.8038,-0.8038,-0.8038,-0.8038,-0.8038,-0.8038,-0.8038,-0.8038,-0.8038,-0.8038,-0.8038,-0.8038,-0.8038,-0.8038,-0.8038,-0.8038,-0.8038,-0.8038,-0.8038,-0.8038,-0.8038,-0.8038,-0.8038,-0.8038,-0.8038,-0.8038,-0.8038,-0.8038,-0.8038,-0.8038,-0.8038,-0.8038,-0.8038,-0.8204,-0.8391,-0.8465,-0.8601,-0.873,-0.8804,-0.8882,-0.894,-0.894,-0.894,-0.894,-0.894,-0.9372,-0.9805,-0.9805,-1.0785,-1.1109,-0.9915,-0.9805,-1.0021,-1.0672,-1.1219,-1.1982,-1.3181,-1.329,-1.3727,-1.4922,-1.4493,-1.46,-1.5357,-1.5464,-1.4702,-1.3073,-1.4917,-1.5458,-1.4606,-1.5458,-1.5891,-1.5891,-1.5891,-1.5891,0.0,0.0,0.0,0.0,0.0,0.0,0.0,0.0,0.0,0.0,0.0,0.0,0.0,0.0,0.0,0.0,0.0,0.0,0.0,0.0,0.0,0.0,0.0,0.0,0.0,0.0,0.0,0.0,0.0,0.0,0.0,0.0,-0.8038,-0.8038,-0.8038,-0.8038,-0.8038,-0.8038,-0.8038,-0.8038,-0.8038,-0.8038,-0.8038,-0.8038,-0.8038,-0.8038,-0.8038,-0.8038,-0.8038,-0.8038,-0.8038,-0.8038,-0.8038,-0.8038,-0.8038,-0.8038,-0.8038,-0.8038,-0.8038,-0.8038,-0.8038,-0.8038,-0.8038,-0.8038,-0.8038,-0.7942,-0.7939,-0.7939,-0.7942,-0.7939,-0.7939,-0.8258,-0.8482,-0.8482,-0.8618,-0.8784,-0.891,-0.894,-0.894,-0.894,-0.894,-0.8937,-0.9154,-1.0241,-1.1,-1.1,-1.1978,-1.2309,-1.1109,-1.1,-1.1105,-1.1328,-1.22,-1.3181,-1.4379,-1.4487,-1.4922,-1.5891,-1.503,-1.4922,-1.5891,-1.5891,-1.5238,-1.383,-1.5131,-1.5458,-1.4493,-1.5458,-1.5891,-1.5891,-1.5891,-1.5891,0.0,0.0,0.0,0.0,0.0,0.0,0.0,0.0,0.0,0.0,0.0,0.0,0.0,0.0,0.0,0.0,0.0,0.0,0.0,0.0,0.0,0.0,0.0,0.0,0.0,0.0,0.0,0.0,0.0,0.0,0.0,-0.8038,-0.8038,-0.8038,-0.8038,-0.8038,-0.8038,-0.8038,-0.8038,-0.8038,-0.8038,-0.8038,-0.8038,-0.8038,-0.8038,-0.8038,-0.8038,-0.8038,-0.8038,-0.8038,-0.8038,-0.8038,-0.8038,-0.8038,-0.8038,-0.8038,-0.8038,-0.8038,-0.8038,-0.8038,-0.8038,-0.8038,-0.8038,-0.8038,-0.8038,-0.7842,-0.7743,-0.7942,-0.7842,-0.7743,-0.7942,-0.8258,-0.8482,-0.8482,-0.8699,-0.8913,-0.8933,-0.894,-0.894,-0.894,-0.894,-0.9265,-1.0241,-1.1437,-1.2195,-1.2195,-1.3181,-1.3511,-1.2309,-1.2195,-1.2526,-1.3619,-1.384,-1.4379,-1.5565,-1.5678,-1.5785,-1.5891,-1.5779,-1.5785,-1.5891,-1.5891,-1.5779,-1.5565,-1.5779,-1.5785,-1.5678,-1.5785,-1.5891,-1.5891,-1.5891,-1.5891,0.0,0.0,0.0,0.0,0.0,0.0,0.0,0.0,0.0,0.0,0.0,0.0,0.0,0.0,0.0,0.0,0.0,0.0,0.0,0.0,0.0,0.0,0.0,0.0,0.0,0.0,0.0,0.0,0.0,0.0,-0.8038,-0.8038,-0.8038,-0.8038,-0.8038,-0.8038,-0.8038,-0.8038,-0.8038,-0.8038,-0.8038,-0.8038,-0.8038,-0.8038,-0.8038,-0.8038,-0.8038,-0.8038,-0.8038,-0.8038,-0.8038,-0.8038,-0.8038,-0.8038,-0.8038,-0.8038,-0.8038,-0.8038,-0.8038,-0.8038,-0.8038,-0.8038,-0.8038,-0.8038,-0.8038,-0.7942,-0.7842,-0.7942,-0.7942,-0.7842,-0.7942,-0.8258,-0.8482,-0.8482,-0.8716,-0.894,-0.894,-0.894,-0.894,-0.894,-0.9482,-1.0131,-1.0566,-1.22,-1.3403,-1.3403,-1.4379,-1.4702,-1.3511,-1.3403,-1.3619,-1.4164,-1.4169,-1.4702,-1.5785,-1.5891,-1.5891,-1.5891,-1.5891,-1.5891,-1.5891,-1.5891,-1.5891,-1.5891,-1.5891,-1.5891,-1.5891,-1.5891,-1.5891,-1.5891,-1.5891,-1.5891,0.0,0.0,0.0,0.0,0.0,0.0,0.0,0.0,0.0,0.0,0.0,0.0,0.0,0.0,0.0,0.0,0.0,0.0,0.0,0.0,0.0,0.0,0.0,0.0,0.0,0.0,0.0,0.0,0.0,0.0,-0.8038,-0.8038,-0.8038,-0.8038,-0.8038,-0.8038,-0.8038,-0.8038,-0.8038,-0.8038,-0.8038,-0.8038,-0.8038,-0.8038,-0.8038,-0.8038,-0.8038,-0.8038,-0.8038,-0.8038,-0.8038,-0.8038,-0.8038,-0.8038,-0.8038,-0.8038,-0.8038,-0.8038,-0.8038,-0.8038,-0.8038,-0.8038,-0.8038,-0.8038,-0.8038,-0.7939,-0.7942,-0.7939,-0.7939,-0.7942,-0.7939,-0.8231,-0.8438,-0.8472,-0.8686,-0.8893,-0.893,-0.9154,-0.9372,-0.9372,-1.0351,-1.1219,-1.1546,-1.3073,-1.4277,-1.46,-1.5351,-1.5565,-1.4708,-1.4595,-1.4595,-1.4595,-1.4595,-1.503,-1.5785,-1.5891,-1.5891,-1.5891,-1.5891,-1.5891,-1.5891,-1.5891,-1.5891,-1.5891,-1.5891,-1.5891,-1.5891,-1.5891,-1.5891,-1.5891,-1.5891,-1.5891,0.0,0.0,0.0,0.0,0.0,0.0,0.0,0.0,0.0,0.0,0.0,0.0,0.0,0.0,0.0,0.0,0.0,0.0,0.0,0.0,0.0,0.0,0.0,0.0,0.0,0.0,0.0,0.0,0.0,0.0,-0.8038,-0.8038,-0.8038,-0.8038,-0.8038,-0.8038,-0.8038,-0.8038,-0.8038,-0.8038,-0.8038,-0.8038,-0.8038,-0.8038,-0.8038,-0.8038,-0.8038,-0.8038,-0.8038,-0.8038,-0.8038,-0.8038,-0.8038,-0.8038,-0.8038,-0.8038,-0.8038,-0.8038,-0.8038,-0.8038,-0.8038,-0.8038,-0.8038,-0.8038,-0.8038,-0.7842,-0.7646,-0.7942,-0.7842,-0.7646,-0.7942,-0.816,-0.8316,-0.8452,-0.8604,-0.876,-0.8906,-0.9805,-1.0566,-1.0566,-1.1546,-1.2635,-1.384,-1.4169,-1.46,-1.5672,-1.5891,-1.5891,-1.5779,-1.5785,-1.5785,-1.5785,-1.5785,-1.5891,-1.5891,-1.5891,-1.5891,-1.5891,-1.5891,-1.5891,-1.5891,-1.5891,-1.5891,-1.5891,-1.5891,-1.5891,-1.5891,-1.5891,-1.5891,-1.5891,-1.5891,-1.5891,0.0,0.0,0.0,0.0,0.0,0.0,0.0,0.0,0.0,0.0,0.0,0.0,0.0,0.0,0.0,0.0,0.0,0.0,0.0,0.0,0.0,0.0,0.0,0.0,0.0,0.0,0.0,0.0,0.0,0.0,-0.8038,-0.8038,-0.8038,-0.8038,-0.8038,-0.8038,-0.8038,-0.8038,-0.8038,-0.8038,-0.8038,-0.8038,-0.8038,-0.8038,-0.8038,-0.8038,-0.8038,-0.8038,-0.8038,-0.8038,-0.8038,-0.8038,-0.8038,-0.8038,-0.8038,-0.8038,-0.8038,-0.8038,-0.8038,-0.8038,-0.8038,-0.8038,-0.8038,-0.8038,-0.8038,-0.7942,-0.7842,-0.7942,-0.7942,-0.7842,-0.7942,-0.8153,-0.833,-0.857,-0.8669,-0.8754,-0.8906,-0.9805,-1.0891,-1.1655,-1.2748,-1.3727,-1.4169,-1.4815,-1.5458,-1.5891,-1.5891,-1.5891,-1.5891,-1.5891,-1.5891,-1.5891,-1.5891,-1.5891,-1.5891,-1.5891,-1.5891,-1.5891,-1.5891,-1.5891,-1.5891,-1.5891,-1.5891,-1.5891,-1.5891,-1.5891,-1.5891,-1.5891,-1.5891,-1.5891,-1.5891,-1.5891,-0.7484,0.0,0.0,0.0,0.0,0.0,0.0,0.0,0.0,0.0,0.0,0.0,0.0,0.0,0.0,0.0,0.0,0.0,0.0,0.0,0.0,0.0,0.0,0.0,0.0,0.0,0.0,0.0,0.0,0.0,-0.8038,-0.8038,-0.8038,-0.8038,-0.8038,-0.8038,-0.8038,-0.8038,-0.8038,-0.8038,-0.8038,-0.8038,-0.8038,-0.8038,-0.8038,-0.8038,-0.8038,-0.8038,-0.8038,-0.8038,-0.8038,-0.8038,-0.8038,-0.8038,-0.8038,-0.8038,-0.8038,-0.8038,-0.8038,-0.8038,-0.8038,-0.8038,-0.8038,-0.8038,-0.8038,-0.8038,-0.8038,-0.8038,-0.8038,-0.8038,-0.8038,-0.8153,-0.8319,-0.8516,-0.8601,-0.8887,-0.9798,-1.0635,-1.1542,-1.2195,-1.3722,-1.4815,-1.4815,-1.5351,-1.5891,-1.5891,-1.5891,-1.5891,-1.5891,-1.5891,-1.5891,-1.5891,-1.5891,-1.5891,-1.5891,-1.5891,-1.5891,-1.5891,-1.5891,-1.5891,-1.5891,-1.5891,-1.5891,-1.5891,-1.5891,-1.5891,-1.5891,-1.5891,-1.5891,-1.5891,-1.5891,-1.5891,0.0,0.0,0.0,0.0,0.0,0.0,0.0,0.0,0.0,0.0,0.0,0.0,0.0,0.0,0.0,0.0,0.0,0.0,0.0,0.0,0.0,0.0,0.0,0.0,0.0,0.0,0.0,0.0,0.0,-0.8038,-0.8038,-0.8038,-0.8038,-0.8038,-0.8038,-0.8038,-0.8038,-0.8038,-0.8038,-0.8038,-0.8038,-0.8038,-0.8038,-0.8038,-0.8038,-0.8038,-0.8038,-0.8038,-0.8038,-0.8038,-0.8038,-0.8038,-0.8038,-0.8038,-0.8038,-0.8038,-0.8038,-0.8038,-0.8038,-0.8038,-0.8038,-0.8038,-0.8038,-0.8038,-0.8038,-0.8038,-0.8038,-0.8038,-0.8038,-0.8038,-0.8038,-0.815,-0.8265,-0.8269,-0.8377,-0.9144,-1.1631,-1.2261,-1.2408,-1.2521,-1.4369,-1.5891,-1.5891,-1.5891,-1.5891,-1.5891,-1.5891,-1.5891,-1.5891,-1.5891,-1.5891,-1.5891,-1.5891,-1.5891,-1.5891,-1.5891,-1.5891,-1.5891,-1.5891,-1.5891,-1.5891,-1.5891,-1.5891,-1.5891,-1.5891,-1.5891,-1.5891,-1.5891,-1.5891,-1.5891,-1.5891,-1.5891,-0.7484,0.0,0.0,0.0,0.0,0.0,0.0,0.0,0.0,0.0,0.0,0.0,0.0,0.0,0.0,0.0,0.0,0.0,0.0,0.0,0.0,0.0,0.0,0.0,0.0,0.0,0.0,0.0,-0.8038,-0.8038,-0.8038,-0.8038,-0.8038,-0.8038,-0.8038,-0.8038,-0.8038,-0.8038,-0.8038,-0.8038,-0.8038,-0.8038,-0.8038,-0.8038,-0.8038,-0.8038,-0.8038,-0.8038,-0.8038,-0.8038,-0.8038,-0.8038,-0.8038,-0.8038,-0.8038,-0.8038,-0.8038,-0.8038,-0.8038,-0.8038,-0.8038,-0.8038,-0.8038,-0.8038,-0.8038,-0.8038,-0.8038,-0.8038,-0.8038,-0.8038,-0.8038,-0.8072,-0.8133,-0.8245,-0.8299,-0.8809,-1.0559,-1.162,-1.2768,-1.455,-1.5452,-1.5891,-1.5891,-1.5891,-1.5891,-1.5891,-1.5891,-1.5891,-1.5891,-1.5891,-1.5891,-1.5891,-1.5891,-1.5891,-1.5891,-1.5891,-1.5891,-1.5891,-1.5891,-1.5891,-1.5891,-1.5891,-1.5891,-1.5891,-1.5891,-1.5891,-1.5891,-1.5891,-1.5891,-1.5891,-1.5891,-1.5891,-0.7484,0.0,0.0,0.0,0.0,0.0,-0.7618,-0.778,0.0,0.0,0.0,0.0,0.0,0.0,0.0,0.0,0.0,0.0,0.0,0.0,0.0,0.0,0.0,0.0,0.0,0.0,0.0,0.0,-0.8038,-0.8038,-0.8038,-0.8038,-0.8038,-0.8038,-0.8038,-0.8038,-0.8038,-0.8038,-0.8038,-0.8038,-0.8038,-0.8038,-0.8038,-0.8038,-0.8038,-0.8038,-0.8038,-0.8038,-0.8038,-0.8038,-0.8038,-0.8038,-0.8038,-0.8038,-0.8038,-0.8038,-0.8038,-0.8038,-0.8038,-0.8038,-0.8038,-0.8038,-0.8038,-0.8038,-0.8038,-0.8038,-0.8038,-0.8038,-0.8038,-0.8038,-0.8038,-0.8038,-0.8161,-0.8751,-0.8925,-0.9552,-1.139,-1.236,-1.3334,-1.4871,-1.5565,-1.5891,-1.5891,-1.5891,-1.5891,-1.5891,-1.5891,-1.5891,-1.5891,-1.5891,-1.5891,-1.5891,-1.5891,-1.5891,-1.5891,-1.5891,-1.5891,-1.5891,-1.5891,-1.5891,-1.5891,-1.5891,-1.5891,-1.5891,-1.5891,-1.5891,-1.5891,-1.5891,-1.5891,-1.5891,-1.5891,-1.5891,0.0,0.0,0.0,0.0,0.0,0.0,-0.7484,-0.7626,-0.7801,0.0,0.0,0.0,0.0,0.0,0.0,0.0,0.0,0.0,0.0,0.0,0.0,0.0,0.0,0.0,0.0,0.0,-0.8333,-0.8038,-0.8041,-0.8038,-0.8038,-0.8038,-0.8038,-0.8038,-0.8038,-0.8038,-0.8038,-0.8038,-0.8038,-0.8038,-0.8038,-0.8038,-0.8038,-0.8038,-0.8038,-0.8038,-0.8038,-0.8038,-0.8038,-0.8038,-0.8038,-0.8038,-0.8038,-0.8038,-0.8038,-0.8038,-0.8038,-0.8038,-0.8038,-0.8038,-0.8038,-0.8038,-0.8038,-0.8038,-0.8038,-0.8038,-0.8038,-0.8038,-0.8038,-0.8038,-0.8038,-0.8038,-0.8237,-0.9217,-0.9742,-1.0628,-1.2884,-1.3636,-1.3979,-1.4336,-1.5244,-1.5891,-1.5891,-1.5891,-1.5891,-1.5891,-1.5891,-1.5891,-1.5891,-1.5891,-1.5891,-1.5891,-1.5891,-1.5891,-1.5891,-1.5891,-1.5891,-1.5891,-1.5891,-1.5891,-1.5891,-1.5891,-1.5891,-1.5891,-1.5891,-1.5891,-1.5891,-1.5891,-1.5891,-1.5891,-1.5891,-1.5891,0.0,0.0,0.0,0.0,0.0,0.0,-0.7484,-0.7626,-0.7768,0.0,0.0,0.0,0.0,0.0,0.0,0.0,0.0,0.0,0.0,0.0,0.0,0.0,0.0,0.0,0.0,0.0,-0.8627,-0.8333,-0.8137,-0.8038,-0.8038,-0.8038,-0.8038,-0.8038,-0.8038,-0.8038,-0.8038,-0.8038,-0.8038,-0.8038,-0.8038,-0.8038,-0.8038,-0.8038,-0.8038,-0.8038,-0.8038,-0.8038,-0.8038,-0.8038,-0.8038,-0.8038,-0.8038,-0.8038,-0.8038,-0.8038,-0.8038,-0.8038,-0.8038,-0.8038,-0.8038,-0.8038,-0.8038,-0.8038,-0.8038,-0.8038,-0.8038,-0.8038,-0.8038,-0.8038,-0.8038,-0.8038,-0.8038,-0.8233,-0.9145,-1.0425,-1.1961,-1.3112,-1.419,-1.5299,-1.5779,-1.5891,-1.5891,-1.5891,-1.5891,-1.5891,-1.5891,-1.5891,-1.5891,-1.5891,-1.5891,-1.5891,-1.5891,-1.5891,-1.5891,-1.5891,-1.5891,-1.5891,-1.5891,-1.5891,-1.5891,-1.5891,-1.5891,-1.5891,-1.5891,-1.5891,-1.5891,-1.5891,-1.5891,-1.5891,-1.5891,-1.5891,0.0,0.0,0.0,-0.7484,0.0,0.0,0.0,-0.7557,-0.7646,0.0,0.0,0.0,0.0,0.0,0.0,0.0,0.0,0.0,0.0,0.0,0.0,0.0,0.0,0.0,0.0,0.0,-0.8928,-0.863,-0.8432,-0.8333,-0.8237,-0.8333,-0.8333,-0.8237,-0.8333,-0.8333,-0.8237,-0.8237,-0.8137,-0.8038,-0.8038,-0.8038,-0.8038,-0.8038,-0.8038,-0.8038,-0.8038,-0.8038,-0.8038,-0.8038,-0.8038,-0.8038,-0.8038,-0.8038,-0.8038,-0.8038,-0.8038,-0.8038,-0.8038,-0.8038,-0.8038,-0.8038,-0.8038,-0.8038,-0.8038,-0.8038,-0.8038,-0.8038,-0.8038,-0.8038,-0.8038,-0.8038,-0.8354,-0.9518,-1.0382,-1.1494,-1.3371,-1.4344,-1.5088,-1.5755,-1.5891,-1.5891,-1.5891,-1.5891,-1.5891,-1.5891,-1.5891,-1.5891,-1.5891,-1.5891,-1.5891,-1.5891,-1.5891,-1.5891,-1.5891,-1.5891,-1.5891,-1.5891,-1.5891,-1.5891,-1.5891,-1.5891,-1.5891,-1.5891,-1.5891,-1.5891,-1.5891,-1.5891,-1.5891,-1.5891,-1.5891,-1.5891,0.0,0.0,0.0,0.0,0.0,-0.7261,0.0,0.0,0.0,0.0,0.0,0.0,0.0,0.0,0.0,0.0,0.0,0.0,0.0,0.0,0.0,0.0,0.0,0.0,0.0,0.0,-0.9031,-0.8928,-0.8825,-0.8627,-0.8531,-0.8726,-0.8726,-0.8531,-0.8726,-0.8726,-0.8432,-0.8432,-0.8333,-0.8038,-0.8038,-0.8038,-0.8038,-0.8038,-0.8038,-0.8038,-0.8038,-0.8038,-0.8038,-0.8038,-0.8038,-0.8038,-0.8038,-0.8038,-0.8038,-0.8038,-0.8038,-0.8038,-0.8038,-0.8038,-0.8038,-0.8038,-0.8038,-0.8038,-0.8237,-0.8137,-0.8038,-0.8237,-0.8333,-0.8333,-0.8333,-0.8453,-0.9199,-1.1139,-1.1982,-1.2842,-1.4815,-1.5599,-1.5891,-1.5891,-1.5891,-1.5891,-1.5891,-1.5891,-1.5891,-1.5891,-1.5891,-1.5891,-1.5891,-1.5891,-1.5891,-1.5891,-1.5891,-1.5891,-1.5891,-1.5891,-1.5891,-1.5891,-1.5891,-1.5891,-1.5891,-1.5891,-1.5891,-1.5891,-1.5891,-1.5891,-1.5891,-1.5891,-1.5891,-1.5891,-1.5891,-1.5891,0.0,0.0,0.0,0.0,-0.7099,0.0,0.0,0.0,0.0,0.0,0.0,0.0,0.0,0.0,0.0,0.0,0.0,0.0,0.0,0.0,0.0,0.0,0.0,0.0,0.0,0.0,0.0,-0.9133,-0.8733,-0.8531,-0.8726,-0.8825,-0.8825,-0.8726,-0.8825,-0.8825,-0.8726,-0.8726,-0.863,-0.8333,-0.8333,-0.8233,-0.8038,-0.8038,-0.8038,-0.8038,-0.8038,-0.8038,-0.8038,-0.8038,-0.8038,-0.8038,-0.8038,-0.8038,-0.8038,-0.8038,-0.8038,-0.8038,-0.8038,-0.8038,-0.8038,-0.8038,-0.8038,-0.8137,-0.9118,-0.8726,-0.8237,-0.9118,-0.941,-0.941,-0.941,-1.0319,-1.1248,-1.1573,-1.271,-1.3771,-1.4008,-1.5059,-1.5891,-1.5891,-1.5891,-1.5891,-1.5891,-1.5891,-1.5891,-1.5891,-1.5891,-1.5891,-1.5891,-1.5891,-1.5891,-1.5891,-1.5891,-1.5891,-1.5891,-1.5891,-1.5891,-1.5891,-1.5891,-1.5891,-1.5891,-1.5891,-1.5891,-1.5891,-1.5891,-1.5891,-1.5891,-1.5891,-1.5891,-1.5891,-1.5891,-1.5891,0.0,0.0,0.0,0.0,0.0,0.0,0.0,0.0,-0.7642,0.0,0.0,0.0,0.0,0.0,0.0,0.0,0.0,0.0,0.0,0.0,0.0,0.0,0.0,0.0,0.0,0.0,0.0,0.0,0.0,-0.9031,-0.9031,-0.9229,-0.9229,-0.9031,-0.9229,-0.9229,-0.9031,-0.9031,-0.8928,-0.8627,-0.8627,-0.8825,-0.9118,-0.8531,-0.8531,-0.892,-0.892,-0.892,-0.9019,-0.9608,-0.9903,-0.9903,-0.9903,-0.9118,-0.8038,-0.8038,-0.8038,-0.8038,-0.8038,-0.8038,-0.8038,-0.8038,-0.8038,-0.8038,-0.8531,-0.8825,-0.9019,-0.9509,-1.0096,-1.0516,-1.0721,-1.1211,-1.1841,-1.271,-1.3445,-1.4157,-1.4941,-1.5488,-1.5891,-1.5891,-1.5891,-1.5891,-1.5891,-1.5891,-1.5891,-1.5891,-1.5891,-1.5891,-1.5891,-1.5891,-1.5891,-1.5891,-1.5891,-1.5891,-1.5891,-1.5891,-1.5891,-1.5891,-1.5891,-1.5891,-1.5891,-1.5891,-1.5891,-1.5891,-1.5891,-1.5891,-1.5891,-1.5891,-1.5891,-1.5891,-1.5891,-1.5891,-0.7116,0.0,0.0,0.0,0.0,0.0,0.0,0.0,0.0,0.0,0.0,0.0,0.0,0.0,0.0,0.0,0.0,0.0,0.0,0.0,0.0,0.0,0.0,0.0,0.0,0.0,0.0,0.0,-0.9501,-0.943,-0.9331,-0.9529,-0.9529,-0.9331,-0.9529,-0.9529,-0.9331,-0.9331,-0.913,-0.8928,-0.8928,-0.932,-1.0096,-0.9213,-0.9118,-0.9706,-0.9899,-0.9899,-0.9706,-1.0779,-1.117,-1.117,-1.117,-1.0293,-0.892,-0.892,-0.892,-0.8825,-0.8528,-0.8432,-0.8432,-0.8432,-0.8627,-0.8924,-0.9213,-0.9608,-1.0096,-1.0386,-1.1016,-1.1781,-1.1939,-1.237,-1.2955,-1.4036,-1.4384,-1.469,-1.5743,-1.5891,-1.5891,-1.5891,-1.5891,-1.5891,-1.5891,-1.5891,-1.5891,-1.5891,-1.5891,-1.5891,-1.5891,-1.5891,-1.5891,-1.5891,-1.5891,-1.5891,-1.5891,-1.5891,-1.5891,-1.5891,-1.5891,-1.5891,-1.5891,-1.5891,-1.5891,-1.5891,-1.5891,-1.5891,-1.5891,-1.5891,-1.5891,-1.5891,-1.5891,-1.5891,0.0,0.0,0.0,-0.7026,0.0,0.0,0.0,0.0,-0.8004,0.0,0.0,0.0,0.0,0.0,0.0,-0.8568,0.0,0.0,0.0,0.0,0.0,0.0,0.0,0.0,0.0,0.0,0.0,-0.9364,-0.9335,-0.9331,-0.9529,-0.9628,-0.9628,-0.9628,-0.9628,-0.9628,-0.9628,-0.9628,-0.943,-0.9236,-0.9236,-0.962,-1.0391,-1.0096,-0.9998,-0.9998,-1.0783,-1.0587,-0.9706,-1.0779,-1.117,-1.117,-1.117,-1.117,-1.1077,-1.1077,-1.1077,-1.0974,-0.9899,-0.9509,-0.9509,-0.9509,-1.0293,-1.1268,-1.2242,-1.1853,-1.1365,-1.2339,-1.2795,-1.3066,-1.3077,-1.4247,-1.5371,-1.5389,-1.5692,-1.5879,-1.5891,-1.5891,-1.5891,-1.5891,-1.5891,-1.5891,-1.5891,-1.5891,-1.5891,-1.5891,-1.5891,-1.5891,-1.5891,-1.5891,-1.5891,-1.5891,-1.5891,-1.5891,-1.5891,-1.5891,-1.5891,-1.5891,-1.5891,-1.5891,-1.5891,-1.5891,-1.5891,-1.5891,-1.5891,-1.5891,-1.5891,-1.5891,-1.5891,-1.5891,-1.5891,-1.5891,0.0,0.0,-0.6875,-0.7052,0.0,0.0,0.0,0.0,0.0,0.0,0.0,0.0,0.0,0.0,-0.8568,-0.8568,-0.8568,0.0,0.0,0.0,0.0,0.0,0.0,0.0,0.0,0.0,0.0,-0.9344,-0.9316,-0.9405,0.0,-0.9628,-0.9628,-0.9628,-0.9628,-0.9628,-0.9628,-0.9628,-0.9529,-0.943,-0.943,-1.0207,-1.1658,-1.0877,-1.117,-1.2339,-1.2436,-1.2242,-1.195,-1.2926,-1.3221,-1.3221,-1.3221,-1.3221,-1.3119,-1.1755,-1.117,-1.117,-1.0779,-1.0685,-1.0685,-1.0685,-1.0877,-1.1268,-1.156,-1.2051,-1.2563,-1.286,-1.364,-1.4488,-1.4657,-1.5045,-1.5541,-1.5716,-1.5825,-1.5891,-1.5891,-1.5891,-1.5891,-1.5891,-1.5891,-1.5891,-1.5891,-1.5891,-1.5891,-1.5891,-1.5891,-1.5891,-1.5891,-1.5891,-1.5891,-1.5891,-1.5891,-1.5891,-1.5891,-1.5891,-1.5891,-1.5891,-1.5891,-1.5891,-1.5891,-1.5891,-1.5891,-1.5891,-1.5891,-1.5891,-1.5891,-1.5891,-1.5891,-1.5891,-1.5891,-1.5891,-0.7139,-0.7075,0.0,-0.721,-0.7421,0.0,-0.7692,0.0,0.0,0.0,0.0,0.0,0.0,0.0,0.0,-0.8472,-0.8564,-0.8568,0.0,-0.8568,0.0,0.0,0.0,0.0,0.0,0.0,-0.9317,-1.0081,-0.9659,-0.9598,0.0,0.0,-0.9628,-0.9628,-0.9628,-0.9628,-0.9628,-0.9628,-0.9628,-0.9628,-0.9628,-1.0404,-1.1853,-1.1463,-1.195,-1.3119,-1.3511,-1.3414,-1.3119,-1.4004,-1.4298,-1.4298,-1.4298,-1.4298,-1.41,-1.2829,-1.2052,-1.1755,-1.1755,-1.1755,-1.1755,-1.1755,-1.2103,-1.2469,-1.2469,-1.3127,-1.3819,-1.3819,-1.4517,-1.5288,-1.5457,-1.5565,-1.568,-1.5849,-1.5891,-1.5891,-1.5891,-1.5891,-1.5891,-1.5891,-1.5891,-1.5891,-1.5891,-1.5891,-1.5891,-1.5891,-1.5891,-1.5891,-1.5891,-1.5891,-1.5891,-1.5891,-1.5891,-1.5891,-1.5891,-1.5891,-1.5891,-1.5891,-1.5891,-1.5891,-1.5891,-1.5891,-1.5891,-1.5891,-1.5891,-1.5891,-1.5891,-1.5891,-1.5891,-1.5891,-1.5891,-1.5891]}]]